[[{"header":{"parameterUnit":"m.s-1","parameterCategory":1,"la1":30.6,"la2":28.766,"lo1":-90.7593,"lo2":-88.6598,"dy":0.0162,"dx":0.0183,"nx":116,"ny":114,"refTime":"2024-05-24T12:00:00:Z","depth":0,"parameterNumber":2,"parameterNumberName":"U-component_of_WINDS"},"data":[0.0,0.0,0.0,0.0,0.0,0.0,0.0,0.0,0.0,0.0,0.0,0.0,0.0,0.0,0.0,0.0,0.0,0.0,0.0,0.0,0.0,0.0,0.0,0.0,0.0,0.0,0.0,0.0,0.0,0.0,0.0,0.0,0.0,0.0,0.0,0.0,0.0,0.0,0.0,0.0,0.0,0.0,0.0,0.0,0.0,0.0,0.0,0.0,0.0,0.0,0.0,0.0,0.0,0.0,0.0,0.0,0.0,0.0,0.0,0.0,0.0,0.0,0.0,0.0,0.0,0.0,0.0,0.0,0.0,0.0,0.0,0.0,0.0,0.0,0.0,0.0,0.0,0.0,0.0,0.0,0.0,0.0,0.0,0.0,0.0,0.0,0.0,0.0,0.0,0.0,0.0,0.0,0.0,0.0,0.0,0.0,0.0,0.0,0.0,0.0,0.0,0.0,0.0,0.0,0.0,0.0,0.0,0.0,0.0,0.0,0.0,0.0,0.0,0.0,0.0,0.0,0.0,0.0,0.0,0.0,0.0,0.0,0.0,0.0,0.0,0.0,0.0,0.0,0.0,0.0,0.0,0.0,0.0,0.0,0.0,0.0,0.0,0.0,0.0,0.0,0.0,0.0,0.0,0.0,0.0,0.0,0.0,0.0,0.0,0.0,0.0,0.0,0.0,0.0,0.0,0.0,0.0,0.0,0.0,0.0,0.0,0.0,0.0,0.0,0.0,0.0,0.0,0.0,0.0,0.0,0.0,0.0,0.0,0.0,0.0,0.0,0.0,0.0,0.0,0.0,0.0,0.0,0.0,0.0,0.0,0.0,0.0,0.0,0.0,0.0,0.0,0.0,0.0,0.0,0.0,0.0,0.0,0.0,0.0,0.0,0.0,0.0,0.0,0.0,0.0,0.0,0.0,0.0,0.0,0.0,0.0,0.0,0.0,0.0,0.0,0.0,0.0,0.0,0.0,0.0,0.0,0.0,0.0,0.0,0.0,0.0,0.0,0.0,0.0,0.0,0.0,0.0,0.0,0.0,0.0,0.0,0.0,0.0,0.0,0.0,0.0,0.0,0.0,0.0,0.0,0.0,0.0,0.0,0.0,0.0,0.0,0.0,0.0,0.0,0.0,0.0,0.0,0.0,0.0,0.0,0.0,0.0,0.0,0.0,0.0,0.0,0.0,0.0,0.0,0.0,0.0,0.0,0.0,0.0,0.0,0.0,0.0,0.0,0.0,0.0,0.0,0.0,0.0,0.0,0.0,0.0,0.0,0.0,0.0,0.0,0.0,0.0,0.0,0.0,0.0,0.0,0.0,0.0,0.0,0.0,0.0,0.0,0.0,0.0,0.0,0.0,0.0,0.0,0.0,0.0,0.0,0.0,0.0,0.0,0.0,0.0,0.0,0.0,0.0,0.0,0.0,0.0,0.0,0.0,0.0,0.0,0.0,0.0,0.0,0.0,0.0,0.0,0.0,0.0,0.0,0.0,0.0,0.0,0.0,0.0,0.0,0.0,0.0,0.0,0.0,0.0,0.0,0.0,0.0,0.0,0.0,0.0,0.0,0.0,0.0,0.0,0.0,0.0,0.0,0.0,0.0,0.0,0.0,0.0,0.0,0.0,0.0,0.0,0.0,0.0,0.0,0.0,0.0,0.0,0.0,0.0,0.0,0.0,0.0,0.0,0.0,0.0,0.0,0.0,0.0,0.0,0.0,0.0,0.0,0.0,0.0,0.0,0.0,0.0,0.0,0.0,0.0,0.0,0.0,0.0,0.0,0.0,0.0,0.0,0.0,0.0,0.0,0.0,0.0,0.0,0.0,0.0,0.0,0.0,0.0,0.0,0.0,0.0,0.0,0.0,0.0,0.0,0.0,0.0,0.0,0.0,0.0,0.0,0.0,0.0,0.0,0.0,0.0,0.0,0.0,0.0,0.0,0.0,0.0,0.0,0.0,0.0,0.0,0.0,0.0,0.0,0.0,0.0,0.0,0.0,0.0,0.0,0.0,0.0,0.0,0.0,0.0,0.0,0.0,0.0,0.0,0.0,0.0,0.0,0.0,0.0,0.0,0.0,0.0,0.0,0.0,0.0,0.0,0.0,0.0,0.0,0.0,0.0,0.0,0.0,0.0,0.0,0.0,0.0,0.0,0.0,0.0,0.0,0.0,0.0,0.0,0.0,0.0,0.0,0.0,0.0,0.0,0.0,0.0,0.0,0.0,0.0,0.0,0.0,0.0,0.0,0.0,0.0,0.0,0.0,0.0,0.0,0.0,0.0,0.0,0.0,0.0,0.0,0.0,0.0,0.0,0.0,0.0,0.0,0.0,0.0,0.0,0.0,0.0,0.0,0.0,0.0,0.0,0.0,0.0,0.0,0.0,0.0,0.0,0.0,0.0,0.0,0.0,0.0,0.0,0.0,0.0,0.0,0.0,0.0,0.0,0.0,0.0,0.0,0.0,0.0,0.0,0.0,0.0,0.0,0.0,0.0,0.0,0.0,0.0,0.0,0.0,0.0,0.0,0.0,0.0,0.0,0.0,0.0,0.0,0.0,0.0,0.0,0.0,0.0,0.0,0.0,0.0,0.0,0.0,0.0,0.0,0.0,0.0,0.0,0.0,0.0,0.0,0.0,0.0,0.0,0.0,0.0,0.0,0.0,0.0,0.0,0.0,0.0,0.0,0.0,0.0,0.0,0.0,0.0,0.0,0.0,0.0,0.0,0.0,0.0,0.0,0.0,0.0,0.0,0.0,0.0,0.0,0.0,0.0,0.0,0.0,0.0,0.0,0.0,0.0,0.0,0.0,0.0,0.0,0.0,0.0,0.0,0.0,0.0,0.0,0.0,0.0,0.0,0.0,0.0,0.0,0.0,0.0,0.0,0.0,0.0,0.0,0.0,0.0,0.0,0.0,0.0,0.0,0.0,0.0,0.0,0.0,0.0,0.0,0.0,0.0,0.0,0.0,0.0,0.0,0.0,0.0,0.0,0.0,0.0,0.0,0.0,0.0,0.0,0.0,0.0,0.0,0.0,0.0,0.0,0.0,0.0,0.0,0.0,0.0,0.0,0.0,0.0,0.0,0.0,0.0,0.0,0.0,0.0,0.0,0.0,0.0,0.0,0.0,0.0,0.0,0.0,0.0,0.0,0.0,0.0,0.0,0.0,0.0,0.0,0.0,0.0,0.0,0.0,0.0,0.0,0.0,0.0,0.0,0.0,0.0,0.0,0.0,0.0,0.0,0.0,0.0,0.0,0.0,0.0,0.0,0.0,0.0,0.0,0.0,0.0,0.0,0.0,0.0,0.0,0.0,0.0,0.0,0.0,0.0,0.0,0.0,0.0,0.0,0.0,0.0,0.0,0.0,0.0,0.0,0.0,0.0,0.0,0.0,0.0,0.0,0.0,0.0,0.0,0.0,0.0,0.0,0.0,0.0,0.0,0.0,0.0,0.0,0.0,0.0,0.0,0.0,0.0,0.0,0.0,0.0,0.0,0.0,0.0,0.0,0.0,0.0,0.0,0.0,0.0,0.0,0.0,0.0,0.0,0.0,0.0,0.0,0.0,0.0,0.0,0.0,0.0,0.0,0.0,0.0,0.0,0.0,0.0,0.0,0.0,0.0,0.0,0.0,0.0,0.0,0.0,0.0,0.0,0.0,0.0,0.0,0.0,0.0,0.0,0.0,0.0,0.0,0.0,0.0,0.0,0.0,0.0,0.0,0.0,0.0,0.0,0.0,0.0,0.0,0.0,0.0,0.0,0.0,0.0,0.0,0.0,0.0,0.0,0.0,0.0,0.0,0.0,0.0,0.0,0.0,0.0,0.0,0.0,0.0,0.0,0.0,0.0,0.0,0.0,0.0,0.0,0.0,0.0,0.0,0.0,0.0,0.0,0.0,0.0,0.0,0.0,0.0,0.0,0.0,0.0,0.0,0.0,0.0,0.0,0.0,0.0,0.0,0.0,0.0,0.0,0.0,0.0,0.0,0.0,0.0,0.0,0.0,0.0,0.0,0.0,0.0,0.0,0.0,0.0,0.0,0.0,0.0,0.0,0.0,0.0,0.0,0.0,0.0,0.0,0.0,0.0,0.0,0.0,0.0,0.0,0.0,0.0,0.0,0.0,0.0,0.0,0.0,0.0,0.0,0.0,0.0,0.0,0.0,0.0,0.0,0.0,0.0,0.0,0.0,0.0,0.0,0.0,0.0,0.0,0.0,0.0,0.0,0.0,0.0,0.0,0.0,0.0,0.0,0.0,0.0,0.0,0.0,0.0,0.0,0.0,0.0,0.0,0.0,0.0,0.0,0.0,0.0,0.0,0.0,0.0,0.0,0.0,0.0,0.0,0.0,0.0,0.0,0.0,0.0,0.0,0.0,0.0,0.0,0.0,0.0,0.0,0.0,0.0,0.0,0.0,0.0,0.0,0.0,0.0,0.0,0.0,0.0,0.0,0.0,0.0,0.0,0.0,0.0,0.0,0.0,0.0,0.0,0.0,0.0,0.0,0.0,0.0,0.0,0.0,0.0,0.0,0.0,0.0,0.0,0.0,0.0,0.0,0.0,0.0,0.0,0.0,0.0,0.0,0.0,0.0,0.0,0.0,0.0,0.0,0.0,0.0,0.0,0.0,0.0,0.0,0.0,0.0,0.0,0.0,0.0,0.0,0.0,0.0,0.0,0.0,0.0,0.0,0.0,0.0,0.0,0.0,0.0,0.0,0.0,0.0,0.0,0.0,0.0,0.0,0.0,0.0,0.0,0.0,0.0,0.0,0.0,0.0,0.0,0.0,0.0,0.0,0.0,0.0,0.0,0.0,0.0,0.0,0.0,0.0,0.0,0.0,0.0,0.0,0.0,0.0,0.0,0.0,0.0,0.0,0.0,0.0,0.0,0.0,0.0,0.0,0.0,0.0,0.0,0.0,0.0,0.0,0.0,0.0,0.0,0.0,0.0,0.0,0.0,0.0,0.0,0.0,0.0,0.0,0.0,0.0,0.0,0.0,0.0,0.0,0.0,0.0,0.0,0.0,0.0,0.0,0.0,0.0,0.0,0.0,0.0,0.0,0.0,0.0,0.0,0.0,0.0,0.0,0.0,0.0,0.0,0.0,0.0,0.0,0.0,0.0,0.0,0.0,0.0,0.0,0.0,0.0,0.0,0.0,0.0,0.0,0.0,0.0,0.0,0.0,0.0,0.0,0.0,0.0,0.0,0.0,0.0,0.0,0.0,0.0,0.0,0.0,0.0,0.0,0.0,0.0,0.0,0.0,0.0,0.0,0.0,0.0,0.0,0.0,0.0,0.0,0.0,0.0,0.0,0.0,0.0,0.0,0.0,0.0,0.0,0.0,0.0,0.0,0.0,0.0,0.0,0.0,0.0,0.0,0.0,0.0,0.0,0.0,0.0,0.0,0.0,0.0,0.0,0.0,0.0,0.0,0.0,0.0,0.0,0.0,0.0,0.0,0.0,0.0,0.0,0.0,0.0,0.0,0.0,0.0,0.0,0.0,0.0,0.0,0.0,0.0,0.0,0.0,0.0,0.0,0.0,0.0,0.0,0.0,0.0,0.0,0.0,0.0,0.0,0.0,0.0,0.0,0.0,0.0,0.0,0.0,0.0,0.0,0.0,0.0,0.0,0.0,0.0,0.0,0.0,0.0,0.0,0.0,0.0,0.0,0.0,0.0,0.0,0.0,0.0,0.0,0.0,0.0,0.0,0.0,0.0,0.0,0.0,0.0,0.0,0.0,0.0,0.0,0.0,0.0,0.0,0.0,0.0,0.0,0.0,0.0,0.0,0.0,0.0,0.0,0.0,0.0,0.0,0.0,0.0,0.0,0.0,0.0,0.0,0.0,0.0,0.0,0.0,0.0,0.0,0.0,0.0,0.0,0.0,0.0,0.0,0.0,0.0,0.0,0.0,0.0,0.0,0.0,0.0,0.0,0.0,0.0,0.0,0.0,0.0,0.0,0.0,0.0,0.0,0.0,0.0,0.0,0.0,0.0,0.0,0.0,0.0,0.0,0.0,0.0,0.0,0.0,0.0,0.0,0.0,0.0,0.0,0.0,0.0,0.0,0.0,0.0,0.0,0.0,0.0,0.0,0.0,0.0,0.0,0.0,-5.4318,0.0,0.0,0.0,0.0,0.0,0.0,0.0,0.0,0.0,0.0,0.0,0.0,0.0,0.0,0.0,0.0,0.0,0.0,0.0,0.0,0.0,0.0,0.0,0.0,-3.7539,-3.9258,-4.0937,-4.1484,-4.1758,-4.1758,0.0,0.0,0.0,0.0,0.0,-3.9844,-4.0234,-4.1014,-4.2249,-4.2613,-4.3803,-4.5721,-4.4766,-4.2825,-4.0123,0.0,0.0,0.0,0.0,0.0,0.0,0.0,0.0,0.0,0.0,0.0,0.0,0.0,0.0,0.0,0.0,0.0,0.0,0.0,0.0,0.0,0.0,0.0,0.0,0.0,0.0,0.0,0.0,0.0,0.0,0.0,0.0,0.0,0.0,0.0,0.0,0.0,0.0,0.0,0.0,0.0,0.0,0.0,0.0,0.0,0.0,0.0,0.0,0.0,0.0,0.0,0.0,0.0,0.0,0.0,0.0,0.0,0.0,0.0,0.0,0.0,0.0,0.0,0.0,0.0,0.0,0.0,0.0,0.0,0.0,0.0,-5.6665,0.0,0.0,0.0,0.0,0.0,0.0,0.0,0.0,0.0,0.0,0.0,0.0,0.0,0.0,0.0,0.0,0.0,0.0,0.0,0.0,0.0,-3.4336,-3.625,-3.8633,-4.0781,-4.2461,-4.3281,-4.3398,-4.2656,-4.2461,0.0,0.0,0.0,-4.1406,-4.1406,-4.2343,-4.3619,-4.5242,-4.6697,-4.852,-5.0673,-5.1288,-4.9015,-4.4422,-4.3576,0.0,0.0,0.0,0.0,0.0,0.0,0.0,0.0,0.0,0.0,0.0,0.0,0.0,0.0,0.0,0.0,0.0,0.0,0.0,0.0,0.0,0.0,0.0,0.0,0.0,0.0,0.0,0.0,0.0,0.0,0.0,0.0,0.0,0.0,0.0,0.0,0.0,0.0,0.0,0.0,0.0,0.0,0.0,0.0,0.0,0.0,0.0,0.0,0.0,0.0,0.0,0.0,0.0,0.0,0.0,0.0,0.0,0.0,0.0,0.0,0.0,0.0,0.0,0.0,-6.8359,-7.0783,-7.0206,-7.036,-7.0706,-6.4897,-6.3089,-6.3808,0.0,0.0,0.0,0.0,0.0,0.0,0.0,0.0,0.0,0.0,0.0,0.0,0.0,0.0,0.0,0.0,0.0,0.0,0.0,0.0,-3.5469,-3.7969,-3.9922,-4.1719,-4.3398,-4.3633,-4.3633,-4.3555,-4.2812,0.0,0.0,-4.2226,-4.2226,-4.2226,-4.3693,-4.5341,-4.7042,-5.0653,-5.3279,-5.4898,-5.4993,-5.4657,-5.3735,-5.0057,-4.8334,-4.7942,0.0,0.0,0.0,0.0,0.0,0.0,0.0,0.0,0.0,0.0,0.0,0.0,0.0,0.0,0.0,0.0,0.0,0.0,0.0,0.0,0.0,0.0,0.0,0.0,0.0,0.0,0.0,0.0,0.0,0.0,0.0,0.0,0.0,0.0,0.0,0.0,0.0,0.0,0.0,0.0,0.0,-4.8086,-5.0731,0.0,0.0,0.0,0.0,0.0,0.0,0.0,0.0,0.0,0.0,0.0,0.0,0.0,0.0,-6.8321,-7.1475,-7.2899,-7.2706,-7.5361,-7.613,-7.5207,-7.5822,-7.6169,-7.6207,-7.4553,0.0,-6.7475,-6.382,0.0,0.0,0.0,0.0,0.0,0.0,0.0,0.0,0.0,0.0,0.0,0.0,0.0,0.0,0.0,0.0,0.0,0.0,0.0,0.0,0.0,-4.1875,-4.457,-4.5781,-4.7656,-4.793,-4.6016,-4.5547,-4.4453,-4.25,-4.2376,-4.2329,-4.2329,-4.4841,-4.8141,-5.2173,-5.5793,-5.8147,-5.9331,-5.9742,-5.9973,-5.9858,-5.755,-5.4177,-4.9975,-4.6659,0.0,0.0,0.0,0.0,0.0,0.0,0.0,0.0,0.0,0.0,0.0,0.0,0.0,0.0,0.0,0.0,0.0,0.0,0.0,0.0,0.0,0.0,0.0,0.0,0.0,0.0,0.0,0.0,0.0,0.0,0.0,0.0,0.0,0.0,0.0,0.0,0.0,0.0,0.0,-4.7855,-5.1548,-5.3164,-5.3895,-5.3713,0.0,0.0,0.0,0.0,0.0,0.0,0.0,0.0,0.0,-6.7475,-6.9244,-7.1168,-7.3206,-7.5168,-7.6476,-7.7053,-7.8515,-7.9092,-7.8861,-7.9246,-7.9438,-7.94,-7.9015,-7.7323,-7.4437,-6.959,-6.6359,-6.4166,0.0,0.0,0.0,0.0,0.0,-5.905,0.0,0.0,0.0,0.0,0.0,0.0,0.0,0.0,0.0,0.0,0.0,0.0,-3.9961,-4.4258,-4.75,-4.8789,-5.1016,-5.1367,-4.9062,-4.7656,-4.5898,-4.3516,-4.2911,-4.2735,-4.2982,-4.705,-5.169,-5.683,-5.9716,-6.1666,-6.2743,-6.3128,-6.3423,-6.3589,-6.2781,-5.9138,-5.3405,-5.0433,-4.7341,-4.4143,0.0,0.0,0.0,0.0,0.0,0.0,0.0,0.0,0.0,0.0,0.0,0.0,0.0,0.0,0.0,0.0,0.0,0.0,0.0,0.0,0.0,0.0,0.0,0.0,0.0,0.0,0.0,0.0,0.0,0.0,0.0,0.0,0.0,0.0,0.0,0.0,0.0,-5.1702,-5.4818,-5.5665,-5.7627,-5.8088,0.0,0.0,0.0,0.0,0.0,0.0,-6.5731,-6.7705,-7.0014,-7.2745,-7.4091,-7.5592,-7.7284,-7.7938,-7.89,-8.0131,-8.0131,-8.0477,-8.1093,-8.1093,-8.1093,-8.1093,-8.1093,-8.0746,-7.9746,-7.463,-7.1437,-6.9385,-6.6397,-6.4628,0.0,-6.4397,-6.4359,-6.4397,0.0,0.0,0.0,0.0,0.0,0.0,0.0,0.0,0.0,0.0,0.0,-4.0039,-4.4219,-4.7148,-4.9766,-5.2226,-5.1836,-5.1758,-5.2383,-4.7851,-4.543,-4.6094,-4.4435,-4.3962,-4.4843,-5.1125,-5.6048,-5.9331,-6.1139,-6.2858,-6.4474,-6.3666,-6.3743,-6.4512,-6.3628,-6.2589,-6.1254,-5.7049,-5.3741,-5.0952,-4.602,0.0,0.0,0.0,0.0,0.0,0.0,0.0,0.0,0.0,0.0,0.0,0.0,0.0,0.0,0.0,0.0,0.0,0.0,0.0,0.0,0.0,0.0,0.0,0.0,0.0,0.0,0.0,0.0,0.0,0.0,0.0,0.0,0.0,0.0,0.0,0.0,0.0,0.0,-5.9165,-6.2204,0.0,0.0,0.0,0.0,-6.4089,-6.6474,-6.9398,-7.2808,-7.3129,-7.4707,-7.8015,-7.8207,-7.9092,-8.0823,-8.09,-8.0939,-8.1016,-8.1016,-8.1054,-8.1093,-8.1093,-8.1093,-8.1093,-8.1093,-8.1093,-8.0823,-7.8092,-7.5515,-7.3053,-7.1245,-6.9513,-6.809,-6.8129,-6.8629,-6.936,0.0,0.0,0.0,0.0,0.0,-2.8867,-2.918,-3.0937,-3.2617,-3.3711,-3.7617,-4.1289,-4.3867,-4.8945,-5.2773,-5.4258,-5.5625,-5.5859,-5.4453,-5.0586,-4.8711,-4.9531,-4.7326,-4.7924,-5.1989,-5.5358,-5.8412,-6.1166,-6.2858,-6.4282,-6.5436,-6.5128,-6.5128,-6.5436,-6.5128,-6.4512,-6.3435,-5.9165,-5.6203,-5.3905,-4.8916,-4.5349,0.0,0.0,0.0,0.0,0.0,0.0,0.0,0.0,0.0,0.0,0.0,0.0,0.0,0.0,0.0,0.0,0.0,0.0,0.0,0.0,0.0,0.0,0.0,0.0,0.0,0.0,0.0,0.0,0.0,0.0,0.0,0.0,0.0,0.0,0.0,0.0,0.0,-6.4936,-6.7744,0.0,-6.7013,-6.7667,-6.8783,-7.0206,-7.1668,-7.3707,-7.6553,-7.7246,-7.8361,-8.0131,-8.0169,-8.0708,-8.1862,-8.1362,-8.1362,-8.1862,-8.1362,-8.1093,-8.1093,-8.1093,-8.1093,-8.1093,-8.1093,-8.1093,-8.1016,-8.0131,-7.89,-7.7323,-7.5053,-7.3822,-7.3168,-7.2091,-7.1898,-7.2168,0.0,0.0,0.0,0.0,-2.7734,-2.8398,-2.8672,-3.0937,-3.3125,-3.4531,-3.8984,-4.3125,-4.5976,-5.1445,-5.5469,-5.6914,-5.8086,-5.8164,-5.6719,-5.2578,-5.0547,-5.1367,-4.9666,-5.1204,-5.6652,-5.8384,-6.0448,-6.2935,-6.4359,-6.532,-6.5897,-6.5897,-6.5897,-6.5897,-6.5897,-6.559,-6.482,-6.1743,-5.9088,-5.6637,-5.279,-4.9867,-4.7432,0.0,0.0,0.0,0.0,0.0,0.0,0.0,0.0,0.0,0.0,0.0,0.0,0.0,0.0,0.0,0.0,0.0,0.0,0.0,0.0,0.0,0.0,0.0,0.0,0.0,0.0,0.0,0.0,0.0,0.0,0.0,0.0,0.0,0.0,0.0,-6.5628,-6.8513,-7.1591,-7.3014,-7.1898,-7.2552,-7.363,-7.5091,-7.5938,-7.7284,-7.9246,-7.9939,-8.0516,-8.1093,-8.1362,-8.1747,-8.2285,-8.2054,-8.2208,-8.2708,-8.19,-8.1516,-8.1516,-8.1208,-8.1093,-8.1093,-8.1093,-8.1093,-8.1093,-8.1093,-8.0746,-8.0054,-7.8054,-7.6938,-7.6284,-7.5207,-7.4591,-7.4322,0.0,0.0,0.0,-2.6797,-2.7695,-2.8594,-2.9414,-3.1758,-3.4336,-3.6914,-4.1055,-4.5664,-5.0781,-5.4492,-5.7617,-6.0117,-5.8828,-5.8203,-5.9062,-5.3516,-5.0586,-5.1445,-5.1531,-5.3702,-5.8325,-6.0171,-6.2246,-6.4589,-6.5513,-6.5936,-6.5936,-6.5936,-6.5936,-6.5936,-6.5897,-6.5897,-6.582,-6.4974,-6.2666,-5.9473,-5.778,-5.5162,-5.1904,0.0,0.0,0.0,0.0,0.0,0.0,0.0,0.0,0.0,0.0,0.0,0.0,0.0,0.0,0.0,0.0,0.0,0.0,0.0,0.0,0.0,0.0,0.0,0.0,0.0,0.0,0.0,0.0,0.0,0.0,0.0,0.0,0.0,-6.0819,-6.4589,-6.7936,-6.9706,-7.3591,-7.5476,-7.3899,-7.5976,-7.7746,-7.8515,-7.9361,-8.0208,-8.1054,-8.1131,-8.1131,-8.1131,-8.19,-8.2362,-8.2362,-8.317,-8.3593,-8.3632,-8.2708,-8.2285,-8.2285,-8.1477,-8.1093,-8.1093,-8.1093,-8.1093,-8.1093,-8.1093,-8.1093,-8.1016,-8.0131,-7.8784,-7.7323,-7.7323,-7.6746,-7.5861,0.0,0.0,-2.5781,-2.6016,-2.7305,-2.8398,-2.8633,-3.1367,-3.4101,-3.6094,-4.1172,-4.5898,-4.9219,-5.3789,-5.7148,-5.8476,-5.7578,-5.707,-5.7305,-5.2851,-5.1133,-5.3203,-5.7223,-6.0026,-6.1337,-6.2828,-6.3931,-6.4589,-6.6051,-6.6782,-6.6782,-6.6782,-6.6782,-6.6744,-6.6167,-6.5897,-6.582,-6.4974,-6.3705,-6.2062,-5.9891,-5.7723,-5.5521,0.0,0.0,0.0,0.0,0.0,0.0,0.0,0.0,0.0,0.0,0.0,0.0,0.0,0.0,0.0,0.0,0.0,0.0,0.0,0.0,0.0,0.0,0.0,0.0,0.0,0.0,0.0,0.0,0.0,0.0,0.0,0.0,-6.3512,-6.4359,-6.8129,-7.1898,-7.4861,-7.7323,-7.8823,-7.8977,-7.9631,-8.0131,-8.0362,-8.0592,-8.0862,-8.1093,-8.1631,-8.1977,-8.1977,-8.2785,-8.3555,-8.417,-8.3785,-8.3901,-8.4516,-8.3016,-8.2285,-8.2285,-8.1477,-8.1093,-8.1093,-8.1093,-8.1093,-8.1093,-8.1093,-8.1093,-8.1016,-8.0131,-7.9131,-7.8092,-7.7515,-7.6746,-7.5861,0.0,-2.5703,-2.582,-2.6172,-2.7383,-2.8437,-2.8789,-3.1445,-3.4297,-3.6758,-4.1719,-4.6406,-5.0078,-5.3828,-5.6562,-5.7773,-5.7109,-5.6289,-5.5547,-5.3164,-5.3241,-5.6473,-5.9758,-6.2129,-6.3425,-6.4251,-6.4991,-6.5667,-6.6628,-6.7282,-6.7628,-6.7282,-6.709,-6.7051,-6.6244,-6.5897,-6.5859,-6.5359,-6.4628,-6.3703,-6.2129,-6.0391,-5.8521,-5.6217,-5.4408,-5.2928,-5.0973,-5.0039,-4.9375,-4.7096,0.0,0.0,0.0,0.0,0.0,0.0,0.0,0.0,0.0,0.0,0.0,0.0,0.0,0.0,0.0,0.0,0.0,0.0,0.0,0.0,0.0,0.0,0.0,0.0,-6.3974,-6.7398,-6.9321,-7.1706,-7.4361,-7.7438,-7.8977,-8.0131,-8.1016,-8.1093,-8.1093,-8.1093,-8.1093,-8.1093,-8.1093,-8.1862,-8.2285,-8.2285,-8.3516,-8.4401,-8.4901,-8.4747,-8.4901,-8.5401,-8.367,-8.2824,-8.2785,-8.1631,-8.1093,0.0,-8.1093,-8.1093,-8.1093,-8.1093,-8.1093,0.0,0.0,0.0,0.0,0.0,-7.6746,-7.5938,0.0,-2.5781,-2.6094,-2.6875,-2.7812,-2.8711,-2.9492,-3.1758,-3.4648,-3.8125,-4.2266,-4.6758,-5.1719,-5.3828,-5.5508,-5.7187,-5.6601,-5.5586,-5.4219,-5.4414,-5.6284,-6.0073,-6.057,-6.2075,-6.4804,-6.4897,-6.568,-6.7115,-6.7231,-6.7705,-6.8552,-6.7744,-6.7321,-6.7205,-6.6397,-6.5974,-6.5897,-6.5897,-6.5345,-6.4455,-6.3984,-6.2726,-6.0948,-5.8725,-5.7883,-5.7614,-5.5387,-5.4141,-5.332,-5.1601,0.0,0.0,0.0,0.0,0.0,0.0,0.0,0.0,0.0,0.0,0.0,0.0,0.0,0.0,0.0,0.0,0.0,0.0,0.0,0.0,0.0,0.0,0.0,0.0,-6.7321,-7.1129,-7.4399,-7.5014,-7.6015,-7.8361,-7.94,-8.0246,-8.1016,-8.1093,-8.1093,-8.1093,-8.1093,-8.1131,-8.1246,0.0,0.0,0.0,0.0,-8.5055,-8.5055,-8.5747,-8.6094,-8.6094,-8.4401,-8.3593,-8.3516,-8.1862,-8.1093,-8.1093,-8.1093,-8.1093,-8.1093,-8.1093,-8.1093,-8.1093,-8.0977,-8.0439,-7.9477,-7.7861,-7.6746,0.0,0.0,-2.6289,-2.6797,-2.6953,-2.8281,-2.9414,-2.957,-3.1758,-3.4648,-3.8125,-4.1719,-4.5391,-4.9219,-5.1133,-5.2578,-5.3594,-5.3555,-5.3906,-5.4961,-5.7031,-5.8828,-6.031,-6.2896,-6.4606,-6.5191,-6.5639,-6.6351,-6.7346,-6.787,-6.859,-6.9436,-6.9283,-6.8821,-6.8129,-6.7244,-6.6513,-6.5897,-6.5897,-6.508,-6.3787,-6.3687,-6.3068,-6.2121,-6.1205,-6.0463,-5.9725,-5.8593,-5.8515,-5.8632,-5.6854,-5.5558,-5.4346,-5.2329,-4.9124,0.0,0.0,0.0,0.0,0.0,0.0,0.0,0.0,0.0,0.0,0.0,0.0,0.0,0.0,0.0,0.0,0.0,0.0,0.0,-6.6744,-6.9821,-7.2668,-7.5361,-7.6899,-7.8207,-7.94,-8.0323,-8.09,-8.1093,-8.1093,-8.1093,-8.1093,-8.1093,-8.1362,-8.2016,-8.2862,0.0,-8.4362,-8.5363,-8.5863,-8.5863,-8.6017,-8.6094,-8.6094,0.0,0.0,-8.3516,-8.1862,-8.1093,-8.1093,-8.1093,-8.1093,-8.1093,-8.1093,-8.1093,-8.1016,-8.0323,-7.9515,-7.8631,-7.7669,-7.6746,-7.6015,-2.6367,-2.6719,-2.7266,-2.8164,-2.9023,-2.9766,-3.0195,-3.2031,-3.4492,-3.7539,-4.0937,-4.4375,-4.7851,-4.8984,-4.9844,-5.0703,-5.0781,-5.2266,-5.5703,-5.7578,-5.9687,-6.2226,-6.4329,-6.5596,-6.5953,-6.6624,-6.7347,-6.7997,-6.8751,-6.9565,-7.0283,-6.9436,-6.8821,-6.8346,-6.7051,-6.6282,-6.591,-6.5951,-6.5283,-6.4173,-6.3927,-6.3387,-6.2565,-6.1879,-6.1362,-6.1015,-6.0586,-6.0703,-6.0859,-5.9484,-5.8505,-5.7444,-5.552,-5.286,-4.9949,0.0,0.0,0.0,0.0,0.0,0.0,0.0,0.0,0.0,0.0,0.0,0.0,0.0,0.0,-5.755,0.0,0.0,-6.6513,-7.0321,-7.236,-7.4322,-7.6899,-7.7977,-7.8823,-7.9708,-8.0554,-8.1093,-8.1093,-8.1093,-8.1093,-8.1093,-8.1093,-8.1439,-8.2247,-8.3131,-8.3978,-8.4863,-8.567,-8.6094,-8.6094,-8.6094,-8.5901,-8.5478,-8.4209,-8.3362,-8.2901,-8.167,-8.1093,-8.1093,-8.1093,-8.1093,-8.1093,-8.1093,-8.1093,-8.1054,-8.0631,-7.9631,-7.8438,-7.8054,-7.7092,-7.6015,-2.7226,-2.7383,-2.7969,-2.9336,-2.9726,-3.0078,-3.0781,-3.2305,-3.4297,-3.6719,-3.9883,-4.3125,-4.625,-4.6601,-4.707,-4.8281,-4.8984,-5.1445,-5.6289,-5.789,-6.0312,-6.414,-6.5312,-6.6129,-6.6639,-6.7328,-6.793,-6.8476,-6.9303,-7.0036,-7.0684,-6.9297,-6.8578,-6.8359,-6.6845,-6.6112,-6.5943,-6.6109,-6.558,-6.4629,-6.4242,-6.3497,-6.2496,-6.1796,-6.1627,-6.168,-6.1523,-6.1367,-6.1094,-6.039,-5.9609,-5.867,-5.701,-5.5467,-5.3621,-5.0464,-4.9596,0.0,0.0,0.0,0.0,0.0,0.0,0.0,0.0,-5.3933,-5.5434,-5.8154,-6.005,-6.2358,-6.5974,-6.8013,-7.0206,-7.3476,-7.4553,-7.5784,-7.8169,-7.8477,-7.8746,-7.9477,-8.0477,-8.1093,-8.1093,-8.1093,-8.1093,-8.1093,-8.1246,-8.1708,-8.2516,-8.3362,-8.4247,-8.5132,-8.5747,-8.6094,-8.6094,-8.6094,-8.5709,-8.4901,-8.4016,-8.3131,-8.2285,-8.1477,-8.1093,-8.1093,-8.1093,-8.1093,-8.1093,-8.1093,-8.1093,-8.1093,-8.1093,-8.0015,-7.8477,-7.8477,-7.7438,-7.6015,0.0,-2.8789,-2.9375,-2.957,-3.0234,-3.0781,-3.0898,-3.2305,-3.4062,-3.5898,-3.8516,-4.0898,-4.2773,-4.2969,-4.3945,-4.6367,-4.9375,-5.2695,-5.6367,-5.9531,-6.2187,-6.4219,-6.5898,-6.6797,-6.6874,-6.6805,-6.7149,-6.798,-6.8688,-6.9359,-7.0026,-6.9815,-6.9258,-6.8359,-6.757,-6.6796,-6.608,-6.6275,-6.55,-6.4162,-6.4106,-6.3176,-6.1796,-6.1718,-6.1679,-6.1601,-6.082,-6.0078,-5.9453,-5.9375,-5.875,-5.8007,-5.7656,-5.6804,-5.558,-5.3738,-5.155,-4.9833,-5.0497,-5.1308,-5.2141,-5.2655,-5.3454,-5.5434,0.0,0.0,-6.0896,-6.4205,-6.6244,-6.7782,-6.9052,-7.0629,-7.2629,-7.5284,-7.5784,-7.6476,-7.8246,-7.8477,-7.8515,-7.8631,-8.0092,-8.1093,-8.1093,-8.1093,-8.1093,-8.1093,-8.1747,-8.2554,-8.3401,-8.4286,-8.5132,-8.594,-8.6055,-8.6094,-8.6094,-8.6094,-8.5709,-8.4901,-8.4016,-8.3131,-8.2285,-8.1477,-8.1093,-8.1093,-8.1093,-8.1093,-8.1093,-8.1093,-8.1093,-8.1093,-8.1093,-8.0015,-7.8477,-7.8477,-7.7438,-7.6015,0.0,-2.9414,-3.0351,-3.0351,-3.0664,-3.0898,-3.0898,-3.2305,-3.3828,-3.5078,-3.7539,-3.9609,-4.082,-4.1406,-4.2344,-4.3906,-4.7656,-5.1406,-5.4844,-5.875,-6.1953,-6.4219,-6.5469,-6.6367,-6.6875,-6.73,-6.7631,-6.7897,-6.8678,-6.9161,-6.9312,-6.8785,-6.8347,-6.7909,-6.716,-6.6617,-6.6283,-6.6457,-6.5562,-6.4118,-6.4197,-6.3198,-6.164,-6.1133,-6.0664,-6.0195,-5.9844,-5.8828,0.0,-5.7695,-5.7109,-5.6444,-5.6838,-5.5975,-5.4585,-5.3403,-5.2883,-5.3263,-5.5633,-5.6096,-5.6312,-5.7955,-5.9396,-6.1012,-6.3474,-6.4282,-6.5013,-6.6974,-6.8321,-6.9706,-7.1591,-7.2476,-7.3783,0.0,-7.6746,-7.7169,-7.8323,-7.8477,-7.8323,-7.7861,-7.8861,-7.9785,-8.0285,-8.0785,-8.1093,-8.1093,-8.14,-8.1977,-8.2785,-8.367,-8.4516,-8.5363,-8.5863,-8.6094,-8.6094,-8.6094,-8.544,-8.4132,-8.3747,-8.2901,-8.1593,-8.1246,-8.1093,-8.1093,-8.1093,-8.1093,-8.1093,-8.1093,-8.1093,-8.1054,-8.0554,-7.9592,-7.8477,-7.8477,-7.7438,-7.6015,0.0,-2.9687,-3.0898,-3.0898,-3.0898,-3.0976,-3.1211,-3.2461,-3.3711,-3.4609,-3.6758,-3.8476,-3.9101,-4.0195,-4.1094,-4.1641,-4.5664,-4.9648,-5.3047,-5.7305,-6.0859,-6.3476,-6.4883,-6.5898,-6.6523,-6.7383,-6.7769,-6.762,-6.8518,-6.8827,-6.8616,-6.7965,-6.763,-6.7587,-6.678,-6.6335,-6.6112,-6.6265,-6.5358,-6.3798,-6.3904,-6.289,-6.125,-6.039,-5.9258,-5.8125,-5.8125,-5.6992,-5.5469,-5.5,-5.4414,-5.3984,-5.4509,-5.394,-5.3108,-5.3242,-5.4564,-5.6412,-5.827,-5.918,-5.9957,-6.167,-6.3705,-6.5359,-6.559,-6.6782,-6.8052,-6.8898,-6.9783,-7.0937,-7.2783,-7.3514,-7.4591,-7.6899,-7.7476,-7.7823,-7.84,-7.8284,-7.7861,-7.7053,-7.7438,-7.813,-7.9015,-8.0092,-8.0823,-8.1093,-8.1323,-8.1708,-8.2285,-8.3362,-8.4247,-8.4901,-8.567,-8.6094,-8.6094,-8.6094,-8.5247,-8.3593,-8.3593,-8.2708,-8.1093,-8.1093,-8.1093,-8.1093,-8.1093,-8.1093,-8.1093,-8.1093,-8.1093,-8.1016,-8.0131,-7.9285,-7.8477,-7.8246,-7.7246,-7.6015,0.0,0.0,-3.0898,-3.0898,-3.0898,-3.1172,-3.2031,-3.2851,-3.3711,-3.4609,-3.625,-3.7344,-3.7383,-3.8906,-3.9961,-3.9961,-4.3906,-4.7812,-5.125,-5.5547,-5.9101,-6.168,-6.4219,-6.5625,-6.5625,-6.6484,-6.6953,-6.6914,-6.7812,-6.8114,-6.7933,-6.7901,-6.7807,-6.7554,-6.688,-6.6106,-6.5367,-6.554,-6.4648,-6.3047,-6.3047,-6.1992,-6.0351,-5.9531,-5.7656,-5.543,-5.543,-5.4297,-5.2578,-5.0937,-5.0391,-5.0351,-5.039,-5.0806,-5.1789,-5.445,-5.69,-5.8403,-5.668,-5.9156,-6.2162,-6.2094,-6.4602,-6.7244,-6.809,-6.8975,-6.986,-7.0667,-7.1514,-7.2129,-7.2206,-7.3553,-7.5245,-7.7015,-7.7938,-7.8477,-7.8477,-7.7823,-7.7015,-7.613,-7.6053,-7.6438,0.0,-7.8861,-8.0208,-8.1054,-8.1823,-8.2285,-8.2285,-8.3939,-8.4863,-8.4901,-8.567,-8.6094,-8.6094,-8.6094,-8.5247,-8.3593,-8.3593,-8.2708,-8.1093,-8.1093,-8.1093,-8.1093,-8.1093,-8.1093,-8.1093,-8.1093,-8.1093,-8.1016,-8.0131,-7.9285,-7.8415,-7.763,-7.6784,-7.6015,0.0,0.0,0.0,-3.2461,-3.2578,-3.2851,-3.3711,-3.3594,-3.3711,-3.4609,-3.6211,0.0,0.0,0.0,0.0,0.0,-4.4141,-4.7266,-4.9609,-5.3789,-5.707,-5.9101,-6.164,-6.3281,-6.3867,-6.4726,-6.5156,-6.5156,-6.5469,-6.5585,-6.5499,-6.55,-6.5494,-6.5399,-6.5183,-6.4914,-6.4642,-6.4726,-6.4062,-6.2969,-6.2383,-6.1445,-6.0312,-5.9492,-5.7226,-5.4297,0.0,-5.125,-4.9219,-4.8672,-4.8086,-4.7812,-4.8984,-4.91,-4.9522,-5.3217,-5.5658,-5.7751,-6.0349,-6.2495,-6.4347,-6.5895,-6.7552,-6.9052,-6.986,-6.986,-6.9783,-7.0052,-6.9436,-6.8975,-6.959,-7.0629,-7.2283,-7.513,-7.6784,-7.8092,-7.9208,-7.9131,-7.8207,-7.6245,-7.6515,0.0,0.0,0.0,0.0,-8.0208,-8.1016,-8.1516,-8.1516,-8.2554,-8.3439,-8.4016,-8.4863,-8.5555,-8.6094,-8.6094,-8.5247,-8.3593,-8.2477,-8.1631,-8.1093,-8.1093,-8.1093,-8.1093,-8.1093,-8.1093,-8.1093,-8.1093,-8.1093,-8.0977,-7.9515,-7.8746,-7.8323,-7.6938,-7.6245,-7.6015,0.0,0.0,0.0,0.0,0.0,0.0,0.0,0.0,0.0,0.0,0.0,0.0,0.0,0.0,0.0,0.0,0.0,-4.5781,-4.7851,-5.1133,-5.4062,-5.6406,-5.8359,-5.9805,-6.0703,-6.125,-6.1992,-6.289,-6.289,-6.3398,-6.4297,-6.4297,-6.4297,-6.4297,-6.4297,-6.414,-6.3828,-6.3515,-6.2851,-6.1953,-6.0469,-5.9375,-5.8437,-5.6953,-5.4648,0.0,-5.0195,-4.832,-4.6601,-4.6328,-4.6055,-4.6133,-4.7891,-4.9531,-5.1328,-5.4005,-5.6575,-5.9328,-6.3099,-6.4841,-6.6151,-6.8321,-6.9513,-7.0206,-7.0437,-6.9821,-6.9167,-6.8821,-6.7398,-6.6474,-6.7359,-6.7975,-6.9552,-7.3206,-7.5245,-7.7053,-7.9054,-7.9323,-7.8746,-7.7092,-7.713,-7.7169,0.0,0.0,0.0,-7.9823,-8.0592,-8.1093,-8.1093,-8.1862,-8.2554,-8.3131,-8.4286,-8.5016,-8.5209,-8.5517,-8.4824,-8.3131,-8.1747,-8.1093,-8.1093,-8.1093,-8.1093,-8.1093,-8.1093,-8.1093,-8.1093,-8.1093,-8.1093,-8.0939,-7.9169,-7.8477,-7.8284,-7.663,-7.6015,-7.6015,0.0,0.0,0.0,0.0,0.0,0.0,0.0,0.0,0.0,0.0,0.0,0.0,0.0,0.0,0.0,0.0,0.0,0.0,-4.5937,-4.7812,-5.0273,-5.3516,-5.4648,-5.5547,-5.6367,-5.6445,-5.7656,-6.0078,-6.0117,-6.1406,-6.3828,-6.3906,-6.3906,-6.3906,-6.3906,-6.3437,-6.2617,-6.1758,-6.0898,-5.9922,-5.7422,-5.5898,-5.4883,-5.2422,-5.0391,-4.8672,-4.7031,-4.582,-4.4883,-4.4141,-4.457,-4.5703,-4.7383,-5.1914,-5.6601,-5.6797,-5.9544,-6.2931,-6.4792,-6.6235,-6.7628,-6.936,-7.0283,-7.0629,-6.9821,-6.8936,-6.8013,-6.7051,-6.5513,-6.4551,0.0,0.0,-6.7051,-7.1206,-7.3476,-7.563,-7.8207,-7.8592,-7.8631,0.0,0.0,0.0,0.0,0.0,0.0,-7.9823,0.0,-8.1093,-8.1093,-8.1823,-8.2247,-8.2285,-8.3901,-8.4401,-8.3593,-8.4362,-8.3939,-8.2285,-8.1477,-8.1093,-8.1093,-8.1093,-8.1093,-8.1093,-8.1093,-8.1093,-8.1093,-8.1093,-8.1093,-8.0939,-7.9169,-7.8477,-7.8284,-7.663,-7.6015,-7.6015,0.0,0.0,0.0,0.0,0.0,0.0,0.0,0.0,0.0,0.0,0.0,0.0,0.0,0.0,0.0,0.0,0.0,0.0,-4.3359,-4.625,-4.832,-4.918,-5.1875,-5.3476,-5.3672,-5.4336,-5.4961,-5.5625,-5.6289,-5.6953,-5.7617,-5.8242,-5.8555,-5.8555,-5.8555,-5.8437,-5.8164,-5.7305,-5.6797,-5.6445,-5.4492,-5.3555,-5.3281,-5.2617,-5.0937,-4.8828,-4.8398,-4.6836,-4.5156,-4.625,-4.8437,-5.0937,-5.2031,-5.4209,-5.6875,-5.9497,-6.1684,-6.3908,-6.6967,-6.8392,-6.9283,-7.0321,-7.0283,-6.9783,-6.8936,-6.759,-6.5936,-6.3832,-6.2012,-6.0281,-5.8588,0.0,0.0,-6.7013,-7.1552,0.0,-7.9015,-8.0015,0.0,-7.9554,-7.9285,-7.8977,-7.8515,-7.9285,0.0,0.0,-8.0592,-8.1093,-8.1093,-8.1285,-8.167,-8.2285,-8.2747,-8.317,-8.3593,-8.317,-8.2747,-8.2285,-8.1477,-8.1093,-8.1093,-8.1093,-8.1093,-8.1093,-8.1093,-8.1093,-8.1093,-8.1093,-8.1093,-8.0939,-7.9169,-7.8477,-7.8284,-7.663,-7.6015,-7.6015,0.0,0.0,0.0,0.0,0.0,0.0,0.0,0.0,0.0,0.0,0.0,0.0,0.0,0.0,0.0,0.0,0.0,0.0,0.0,-4.4609,-4.6211,-4.6992,-4.8867,-5.0078,-5.0469,-5.0937,-5.1562,-5.2344,-5.3164,-5.3984,-5.4726,-5.5234,-5.5469,-5.5469,-5.5469,-5.5469,-5.539,-5.4531,-5.4141,0.0,0.0,-5.1016,-5.0937,-5.0195,-4.8984,-4.7773,-4.7773,-4.8047,-4.8594,-4.9961,-5.2187,-5.4648,-5.5898,-5.7835,-6.0249,-6.306,-6.508,-6.6933,-6.9287,-7.0426,-7.1029,-7.1362,-7.0283,-6.8706,-6.709,-6.5175,-6.2921,-5.993,-5.7993,-5.6377,-5.4878,-5.7165,-6.0473,0.0,0.0,0.0,-7.813,-7.9746,-8.0477,0.0,-8.0362,0.0,-7.9669,-8.0092,-8.0362,0.0,-8.0823,-8.1093,-8.1093,-8.1093,-8.1323,-8.1747,-8.2131,-8.2516,-8.3016,-8.217,-8.1785,-8.1785,-8.1323,-8.1093,-8.1093,-8.1093,-8.1093,-8.1093,0.0,-8.1093,-8.1093,-8.1093,-8.1093,-8.0939,-7.9169,-7.8477,-7.8284,-7.663,-7.6015,-7.6015,0.0,0.0,0.0,0.0,0.0,0.0,0.0,0.0,0.0,0.0,0.0,0.0,0.0,0.0,0.0,0.0,0.0,0.0,0.0,0.0,-4.4531,-4.6055,-4.625,-4.6641,-4.7422,-4.7422,-4.8164,-4.9687,-5.0508,-5.168,-5.3164,-5.3281,-5.332,-5.332,-5.332,-5.332,-5.3281,-5.2383,-5.2031,-5.1836,-4.9492,-4.8555,-4.8398,0.0,0.0,-4.6289,-4.6289,-4.8828,-5.2383,-5.3594,-5.5469,-5.7617,-5.9453,-6.2015,-6.4749,-6.6794,-6.8801,-7.0583,-7.1459,-7.2094,-7.2418,-7.2135,-7.0131,-6.7552,-6.4896,-6.2418,-5.962,-5.5991,-5.4095,-5.2956,-5.2589,-5.4185,-5.7165,-6.2166,0.0,-7.136,-7.6553,-7.8631,-7.9977,-8.0977,-8.1093,-8.1093,-8.1093,-8.1093,-8.1093,-8.1093,-8.1093,-8.1093,-8.1093,-8.1093,-8.1093,-8.1093,-8.1785,-8.2131,-8.2131,-8.1439,-8.1093,-8.1093,-8.1093,-8.1093,-8.1093,-8.1093,-8.1093,-8.1093,0.0,0.0,-8.1093,-8.1093,-8.1093,-8.0939,-7.9169,-7.8477,-7.8284,-7.663,-7.6015,-7.6015,0.0,0.0,0.0,0.0,0.0,0.0,0.0,0.0,0.0,0.0,-4.0976,-4.0312,0.0,0.0,0.0,0.0,0.0,0.0,0.0,0.0,0.0,-4.5195,-4.5937,-4.6367,-4.6523,-4.6523,-4.668,-4.6992,-4.7851,-4.8398,-4.8711,-4.9453,-4.9766,-4.9766,-4.9766,-4.9766,-4.9726,-4.8867,-4.8476,-4.8398,-4.7226,-4.6758,-4.6719,-4.6406,0.0,0.0,-4.6289,-4.7695,-5.0,-5.3008,-5.7031,-6.125,-6.3711,-6.5259,-6.667,-6.9294,-7.0645,-7.1491,-7.2461,-7.2599,-7.2316,-7.1567,-6.9316,-6.6499,-6.3426,-6.0703,-5.771,-5.3715,-5.2031,-5.0813,-4.9428,-5.2212,-5.6126,-6.0512,-6.5397,-7.0667,-7.6476,-7.813,-7.9323,0.0,-8.1093,-8.1093,-8.1093,-8.1093,0.0,0.0,0.0,0.0,-8.1093,-8.1093,-8.1093,-8.1093,-8.1246,-8.1323,-8.1323,-8.117,-8.1093,-8.1093,-8.1093,-8.1093,-8.1093,-8.1093,-8.1093,-8.1093,0.0,0.0,-8.1093,-8.1093,-8.1093,-8.0939,-7.9169,-7.8477,-7.8284,-7.663,-7.6015,-7.6015,0.0,0.0,0.0,0.0,0.0,0.0,0.0,-4.0664,-4.2305,-4.5312,-4.4687,-4.3867,-4.375,-4.3008,-4.25,0.0,0.0,0.0,0.0,0.0,0.0,0.0,-4.582,-4.6289,-4.6289,-4.6758,0.0,0.0,0.0,0.0,0.0,0.0,0.0,0.0,0.0,0.0,-4.7539,-4.7109,-4.6914,-4.6875,0.0,0.0,0.0,0.0,0.0,0.0,0.0,-4.7695,-4.9883,-5.1953,-5.5781,-6.0312,-6.3828,-6.5689,-6.7057,-6.9372,-7.1102,-7.2491,-7.3435,-7.3563,-7.3197,-7.2227,-6.9266,-6.5477,-6.1383,-5.8381,-5.5222,-5.0586,-4.9333,-4.8598,-4.7236,-5.0054,-5.3648,-5.6994,-6.1435,-6.6667,-7.3053,-7.5091,-7.7015,-8.0054,-8.0823,-8.1093,-8.1093,-8.1093,0.0,0.0,0.0,0.0,-8.1093,-8.1093,-8.1093,-8.1093,-8.1093,-8.1093,-8.1093,-8.1093,-8.1093,-8.1093,-8.1093,-8.1093,-8.1093,-8.1093,-8.1093,-8.1093,0.0,0.0,-8.1093,-8.1093,-8.1093,-8.0939,-7.9169,-7.8477,-7.8284,-7.663,-7.6015,-7.6015,0.0,0.0,0.0,0.0,0.0,0.0,0.0,-4.2461,-4.4492,-4.7969,-4.8242,-4.7656,-4.625,-4.5,-4.4101,0.0,0.0,0.0,0.0,0.0,0.0,0.0,0.0,-4.6289,-4.6289,0.0,0.0,0.0,0.0,0.0,0.0,0.0,0.0,0.0,0.0,0.0,0.0,0.0,-4.6289,0.0,0.0,0.0,0.0,0.0,0.0,0.0,0.0,-4.7617,-4.9531,-5.0742,-5.3437,-5.6914,-6.0859,-6.3935,-6.649,-6.8397,-7.0654,-7.2693,-7.3588,-7.3891,-7.3743,-7.254,-6.9127,-6.4757,-5.9637,-5.6409,-5.3164,-4.8304,-4.7192,-4.6916,-4.6274,-4.8406,-5.1277,-5.4304,-5.7852,-6.2743,-6.9898,-7.2399,-7.5091,-7.9323,-8.0554,0.0,-8.1093,-8.1093,0.0,0.0,0.0,0.0,0.0,-8.1093,-8.1093,-8.1093,-8.1093,-8.1093,-8.1093,-8.1093,-8.1093,-8.1093,-8.1093,-8.1093,-8.1093,-8.1093,-8.1093,-8.1093,0.0,0.0,0.0,-8.1093,-8.0977,-8.0669,-7.9092,-7.84,-7.8054,-7.6553,-7.6015,-7.6015,0.0,0.0,0.0,0.0,0.0,0.0,0.0,-4.4375,-4.7187,-5.0586,-5.0391,-4.9883,-4.9726,-4.7539,-4.543,0.0,0.0,0.0,0.0,0.0,0.0,0.0,0.0,0.0,0.0,0.0,0.0,0.0,0.0,0.0,0.0,0.0,0.0,0.0,0.0,0.0,0.0,0.0,0.0,0.0,0.0,0.0,0.0,0.0,0.0,0.0,0.0,-4.6445,-4.7031,-4.9492,-5.0586,-5.1367,-5.4101,-5.9336,-6.4843,-6.6601,-6.8945,0.0,-7.1952,-7.2676,-7.2746,-7.1101,-6.8378,-6.4635,-5.8971,-5.5575,-5.247,-4.8387,-4.6859,-4.6435,-4.7123,-4.7932,-5.0116,-5.4998,-5.7341,-6.1435,-6.9744,-7.2399,-7.5091,-7.9323,0.0,0.0,-8.1093,0.0,0.0,0.0,0.0,0.0,0.0,-8.1093,-8.1093,-8.1093,-8.1093,-8.1093,-8.1093,-8.1093,-8.1093,-8.1093,-8.1093,-8.1093,-8.1093,-8.1093,-8.1093,-8.1093,0.0,0.0,0.0,-8.1093,-8.0631,-7.9823,-7.8861,-7.8054,-7.7284,-7.6361,-7.6015,-7.6015,0.0,0.0,0.0,0.0,0.0,0.0,-4.1992,-4.418,-4.6758,-5.0234,-5.082,-5.0937,-5.0937,-4.957,-4.7734,-4.5469,0.0,0.0,0.0,0.0,0.0,0.0,0.0,0.0,0.0,0.0,0.0,-4.707,0.0,0.0,0.0,0.0,0.0,0.0,0.0,0.0,0.0,0.0,0.0,0.0,0.0,0.0,0.0,0.0,0.0,0.0,0.0,0.0,0.0,-4.75,-4.8555,-4.9609,-5.0625,-5.3867,-5.8047,-6.1875,-6.5937,-6.9492,-7.0859,-7.2185,-7.2764,-7.1045,-6.8131,-6.415,-5.8334,-5.4864,-5.1746,-4.7653,-4.6482,-4.6316,-4.6561,-4.7242,-4.8725,-5.1625,-5.3494,-5.6782,-6.3152,-6.5974,-6.9513,-7.5322,-7.7207,0.0,0.0,0.0,0.0,0.0,0.0,0.0,0.0,-8.1093,-8.1093,-8.1093,-8.1093,-8.1093,-8.1093,-8.1093,-8.1093,-8.1093,-8.1093,-8.1093,-8.1093,-8.1093,-8.1093,-8.1093,0.0,0.0,0.0,-8.1093,-8.0592,-7.9708,-7.8823,-7.8015,-7.7169,-7.6322,-7.6015,-7.6015,0.0,0.0,0.0,0.0,0.0,-3.9453,-4.1992,-4.4101,-4.6523,-4.9766,-5.0703,-5.1133,-5.1367,-5.0234,-4.8789,-4.7226,-4.6601,0.0,0.0,0.0,0.0,0.0,0.0,0.0,0.0,0.0,-4.6992,-4.7617,-4.8125,0.0,0.0,0.0,0.0,0.0,0.0,0.0,0.0,0.0,0.0,0.0,0.0,0.0,0.0,0.0,0.0,0.0,0.0,0.0,0.0,0.0,0.0,-4.8125,-4.8125,-4.9726,-5.2578,-5.7773,-6.2422,-6.6367,-6.8594,-7.0469,-7.1445,-6.9961,-6.729,-6.3477,-5.7576,-5.4278,-5.1321,-4.7147,-4.6289,-4.6288,-4.6195,-4.6644,-4.7609,-4.9388,-5.1048,-5.3937,-5.9181,-6.2098,-6.5936,0.0,0.0,0.0,0.0,0.0,0.0,0.0,0.0,0.0,0.0,-8.1093,-8.1093,-8.1093,-8.1093,-8.1093,-8.1093,-8.1093,-8.1093,-8.1093,-8.1093,-8.1093,-8.1093,-8.1093,-8.1093,0.0,0.0,0.0,0.0,-8.1093,-8.0439,-7.9361,-7.8746,-7.7861,-7.6823,-7.6245,-7.6015,-7.6015,0.0,0.0,0.0,0.0,0.0,0.0,-4.1992,-4.4609,-4.7226,-4.9844,-5.0195,-5.0508,-5.1328,-4.9141,-4.7969,-4.8789,-4.7305,0.0,0.0,0.0,0.0,0.0,0.0,0.0,0.0,0.0,-4.7578,-4.7617,-4.9336,-4.9726,-4.8906,-4.8906,0.0,0.0,0.0,0.0,0.0,0.0,0.0,0.0,0.0,0.0,0.0,0.0,0.0,0.0,0.0,0.0,0.0,0.0,0.0,0.0,0.0,-4.7539,-4.9961,-5.5117,-5.8476,-6.125,-6.4726,-6.6914,-6.8047,-6.7148,-6.5533,-6.2576,-5.6678,-5.3849,-5.1321,-4.7147,-4.6289,-4.6289,-4.6289,-4.6198,-4.6945,-4.9469,-5.1153,-5.418,-6.016,-6.3048,-6.6167,0.0,0.0,0.0,0.0,0.0,0.0,0.0,0.0,0.0,0.0,0.0,-8.1093,-8.1093,-8.1093,-8.1093,-8.1093,-8.1093,-8.1093,-8.1093,-8.1093,-8.1093,-8.1093,-8.1093,0.0,0.0,0.0,0.0,0.0,-8.1093,-8.0092,-7.8515,-7.8477,-7.7476,-7.6015,-7.6015,-7.6015,-7.6015,0.0,0.0,0.0,0.0,0.0,0.0,0.0,-4.2851,-4.5234,-4.7266,-4.8047,-4.8984,-5.043,-4.8789,-4.7969,-4.8828,-4.7305,0.0,0.0,0.0,0.0,0.0,0.0,0.0,0.0,-4.7148,-4.8164,-4.9375,-5.0469,-5.1172,-5.1484,-5.0898,-4.9844,0.0,0.0,0.0,0.0,0.0,0.0,0.0,0.0,0.0,0.0,0.0,0.0,0.0,0.0,0.0,0.0,0.0,0.0,0.0,0.0,0.0,0.0,-5.0508,-5.4844,-5.8945,-6.0039,-6.1992,-6.3281,-6.125,-5.9842,-5.7847,-5.3593,-5.1756,-5.0034,-4.6953,-4.6289,-4.6289,-4.6289,-4.6288,-4.7412,-5.1089,-5.2558,-5.4669,-5.8715,0.0,0.0,-6.9655,0.0,0.0,0.0,0.0,0.0,0.0,0.0,0.0,0.0,0.0,-8.1093,-8.1093,-8.1093,-8.1093,-8.1093,-8.1093,-8.1093,-8.1093,-8.1093,-8.1093,-8.1093,-8.1093,0.0,0.0,0.0,0.0,0.0,-8.0477,-7.9554,-7.8438,-7.79,-7.6976,-7.6015,-7.6015,-7.6015,-7.5899,0.0,0.0,0.0,0.0,0.0,0.0,0.0,-4.1992,-4.3828,-4.5586,-4.6289,-4.7422,-4.9492,-4.8164,-4.7578,-4.8789,-4.7305,0.0,0.0,0.0,0.0,0.0,0.0,0.0,-4.6797,-4.7656,-4.9101,-5.1133,-5.2305,-5.3164,-5.3672,-5.3125,-5.1797,-4.9805,-4.8594,0.0,0.0,0.0,0.0,0.0,0.0,0.0,0.0,0.0,0.0,0.0,0.0,0.0,0.0,0.0,0.0,0.0,0.0,0.0,0.0,0.0,-5.1289,-5.4805,-5.6094,-5.7812,-5.8906,-5.7305,-5.625,-5.4805,-5.1641,-5.0312,-4.9062,-4.6758,-4.6289,-4.6289,-4.6289,-4.6289,-4.7343,-5.061,-5.2071,-5.4067,0.0,0.0,0.0,0.0,0.0,0.0,0.0,0.0,0.0,0.0,0.0,0.0,0.0,0.0,-8.1093,-8.1093,-8.1093,-8.1093,-8.1093,-8.1093,-8.1093,-8.1093,-8.1093,-8.1093,-8.1093,0.0,0.0,0.0,0.0,0.0,0.0,-7.9669,-7.8823,-7.7977,-7.7476,-7.6784,-7.6015,-7.6015,-7.6015,-7.5861,0.0,0.0,0.0,0.0,0.0,0.0,0.0,-4.1835,-4.3007,-4.4687,-4.4961,-4.5937,-4.8437,-4.7266,-4.6953,-4.8555,0.0,0.0,0.0,0.0,0.0,0.0,0.0,0.0,-4.7578,-4.8437,-5.0156,-5.2695,-5.4453,-5.5351,-5.5469,-5.5469,-5.4101,-5.1523,-4.9844,-4.8476,0.0,0.0,0.0,0.0,0.0,0.0,0.0,0.0,0.0,0.0,0.0,0.0,0.0,0.0,0.0,0.0,0.0,0.0,0.0,0.0,0.0,0.0,0.0,-5.4141,-5.4805,-5.4687,-5.4101,-5.2891,-5.0469,-4.9336,0.0,-4.6641,-4.6289,-4.6367,-4.6523,-4.6484,-4.707,-4.9219,-5.0686,-5.3036,0.0,-6.0793,0.0,0.0,0.0,0.0,0.0,0.0,0.0,0.0,0.0,0.0,0.0,0.0,0.0,-8.1093,-8.1093,-8.1093,-8.1093,-8.1093,-8.1093,-8.1093,-8.1093,-8.1093,-8.1093,0.0,0.0,0.0,0.0,0.0,0.0,-7.8784,-7.7977,-7.7284,-7.7207,-7.6707,-7.6015,-7.6015,-7.5976,-7.5784,0.0,0.0,0.0,0.0,0.0,0.0,0.0,0.0,0.0,0.0,-4.451,-4.5418,-4.6758,-4.6562,-4.6445,0.0,0.0,0.0,0.0,0.0,0.0,0.0,0.0,0.0,-4.7578,-4.8437,-5.0156,-5.2695,-5.4453,-5.5976,-5.7305,-5.7305,-5.5898,-5.332,-5.1562,-4.9258,0.0,0.0,0.0,0.0,0.0,0.0,0.0,0.0,0.0,0.0,0.0,-4.6289,0.0,0.0,0.0,0.0,0.0,0.0,0.0,0.0,-4.6758,-4.7109,-4.7891,0.0,-5.0078,-4.875,-4.875,-4.8789,0.0,-4.7578,-4.7617,-4.6523,-4.6289,-4.6914,-4.8906,-4.8203,-4.9141,-5.4844,-5.5546,-5.6731,-6.0723,0.0,0.0,0.0,0.0,0.0,0.0,0.0,0.0,0.0,0.0,0.0,0.0,0.0,0.0,-8.1093,-8.1093,-8.1093,-8.1093,-8.1093,-8.1093,-8.1093,-8.1093,-8.1093,-8.1093,0.0,0.0,0.0,0.0,0.0,0.0,-7.79,-7.7476,-7.7207,-7.6553,-7.6169,-7.6015,-7.6015,-7.5592,-7.4899,0.0,0.0,0.0,0.0,0.0,0.0,0.0,0.0,0.0,0.0,0.0,-4.4777,-4.6083,-4.6249,0.0,0.0,0.0,0.0,0.0,0.0,0.0,0.0,0.0,-4.6914,-4.8164,-4.9062,-5.1133,-5.4492,-5.582,-5.7383,-5.9023,-5.8672,-5.7109,-5.4453,-5.1562,-4.8789,0.0,0.0,0.0,0.0,0.0,0.0,0.0,0.0,0.0,0.0,-4.6289,-4.6289,0.0,-4.6289,-4.6289,-4.6289,0.0,0.0,0.0,0.0,-4.6289,-4.6289,-4.6289,-4.7851,-4.918,-4.7812,-4.8164,-4.8555,-4.7695,-4.7226,-4.6875,-4.6406,-4.6289,-4.6836,-4.8672,-4.8906,-5.0273,-5.4765,-5.6362,0.0,0.0,0.0,0.0,0.0,0.0,0.0,0.0,0.0,0.0,0.0,0.0,0.0,0.0,0.0,0.0,0.0,-8.1093,-8.1093,-8.1093,-8.1093,-8.1093,-8.1093,-8.0708,-8.0516,-8.0477,0.0,0.0,0.0,0.0,0.0,-7.7861,-7.7053,-7.6707,-7.6669,-7.6169,-7.6015,-7.5938,-7.5553,-7.5091,-7.4553,0.0,0.0,0.0,0.0,0.0,0.0,0.0,0.0,0.0,0.0,0.0,0.0,0.0,0.0,0.0,0.0,0.0,0.0,0.0,0.0,0.0,0.0,-4.6289,-4.7187,-4.9062,-4.9687,-5.2109,-5.6406,-5.7265,-5.8555,-6.0195,-5.9765,-5.7969,-5.4922,-5.1016,-4.8164,0.0,0.0,0.0,0.0,0.0,0.0,0.0,0.0,0.0,0.0,0.0,0.0,0.0,-4.6289,-4.6289,-4.6289,-4.6289,0.0,0.0,0.0,0.0,0.0,-4.6601,-4.8711,-5.0391,-4.8867,-4.9375,-4.9922,-4.8945,-4.7578,-4.6484,-4.6484,-4.6484,-4.6875,-4.8164,-4.9687,-5.1484,0.0,0.0,0.0,0.0,0.0,0.0,0.0,0.0,0.0,0.0,0.0,0.0,0.0,0.0,0.0,0.0,0.0,0.0,0.0,-8.0739,-8.0708,-8.0708,-8.0823,-8.09,-8.09,-8.0015,-7.9592,-7.9592,-7.8707,0.0,0.0,0.0,0.0,-7.7053,-7.6284,-7.6015,-7.6015,-7.6015,-7.5938,-7.5707,-7.4976,-7.4553,-7.4091,0.0,0.0,0.0,0.0,0.0,0.0,0.0,0.0,0.0,0.0,0.0,0.0,0.0,0.0,0.0,0.0,0.0,0.0,0.0,0.0,0.0,-4.6289,-4.6289,-4.7461,-4.9961,-4.9414,-5.1211,-5.5508,-5.6367,-5.7695,-5.9414,-6.0703,-5.8789,-5.4101,-5.1953,-4.9258,-4.6367,-4.7226,0.0,0.0,0.0,0.0,0.0,0.0,0.0,0.0,0.0,0.0,0.0,-4.6289,-4.6289,-4.6289,-4.6289,0.0,0.0,0.0,0.0,0.0,-4.8086,-5.0898,-5.2344,-4.7812,-4.8476,-4.9766,-4.8164,-4.7578,-4.7383,-4.7383,-4.7383,-4.832,-5.1367,-5.2734,-5.4922,0.0,0.0,0.0,0.0,0.0,0.0,0.0,0.0,0.0,0.0,0.0,0.0,0.0,0.0,0.0,0.0,0.0,0.0,0.0,0.0,-7.89,-7.89,-7.9631,-8.0015,-7.9977,-7.9131,-7.8707,-7.8669,-7.7861,-7.7476,0.0,0.0,0.0,-7.6207,-7.6053,-7.6015,-7.6015,-7.6015,-7.5553,-7.4899,-7.4745,-7.3783,-7.2437,0.0,0.0,0.0,0.0,0.0,0.0,0.0,0.0,0.0,0.0,0.0,0.0,0.0,0.0,0.0,0.0,0.0,0.0,0.0,0.0,-4.6719,-4.7656,-4.7695,-4.8476,-5.0156,-5.1172,-5.332,-5.6719,-5.8476,-5.9765,-6.0547,-5.9453,-5.6914,-5.3203,-5.1016,-4.8633,-4.6328,-4.6719,-4.668,0.0,0.0,0.0,0.0,0.0,0.0,0.0,0.0,0.0,0.0,0.0,-4.6289,-4.6289,-4.6289,0.0,0.0,0.0,0.0,0.0,-4.7266,-4.9336,-5.0781,-4.8867,-5.1406,-5.3906,-5.2148,-5.1406,-5.0937,-5.0469,-5.0351,-5.0976,-5.3047,0.0,-5.8085,-6.4086,0.0,0.0,0.0,0.0,0.0,0.0,0.0,0.0,0.0,0.0,0.0,0.0,0.0,0.0,0.0,0.0,0.0,0.0,0.0,0.0,-7.8477,-7.8477,-7.8669,-7.9092,-7.8246,-7.7861,-7.7823,-7.6976,-7.6592,0.0,0.0,-7.6015,-7.6015,-7.6015,-7.5707,-7.5284,-7.5284,-7.4784,-7.4014,-7.3514,-7.2552,-7.1437,0.0,0.0,0.0,0.0,0.0,0.0,0.0,0.0,0.0,0.0,0.0,0.0,0.0,0.0,0.0,0.0,0.0,0.0,0.0,-4.6289,-4.6992,-4.8516,-4.8984,-4.9883,-5.1367,-5.3125,-5.5469,-5.8476,-6.0234,-6.1328,-6.164,-5.8633,-5.5703,-5.2891,-5.0547,-4.8281,-4.6289,-4.6289,-4.6289,0.0,0.0,0.0,0.0,0.0,0.0,0.0,0.0,0.0,0.0,0.0,0.0,0.0,0.0,0.0,0.0,-4.6289,-4.6172,-4.6133,-4.6758,-4.7891,-4.9141,-5.0234,-5.332,-5.6015,-5.5664,-5.4609,-5.375,-5.3906,-5.375,-5.3867,-5.4765,-5.7539,0.0,-6.708,0.0,0.0,0.0,0.0,0.0,0.0,0.0,0.0,0.0,0.0,0.0,0.0,0.0,0.0,0.0,0.0,0.0,0.0,0.0,0.0,-7.7992,-7.7376,-7.7449,-7.8207,-7.74,-7.6976,-7.6976,-7.6284,-7.6015,-7.6015,-7.6015,-7.5861,-7.5707,-7.5707,-7.5207,-7.4437,-7.4437,-7.3937,-7.3091,-7.2206,-7.1475,-7.0898,0.0,0.0,0.0,0.0,0.0,0.0,0.0,0.0,0.0,0.0,0.0,0.0,0.0,0.0,0.0,0.0,0.0,0.0,0.0,-4.6289,-4.6719,-4.7656,-4.9258,-5.1601,-5.4844,-5.4336,-5.6055,-6.0234,-5.9648,-6.0195,-6.164,-5.9844,-5.7187,-5.3828,-5.2031,-4.9375,-4.6289,-4.6289,-4.6289,-4.6289,-4.6289,0.0,0.0,0.0,0.0,0.0,0.0,0.0,0.0,0.0,0.0,0.0,0.0,0.0,-4.6289,-4.6289,-4.5742,-4.5625,-4.8047,-4.8789,-4.9297,-5.0898,-5.1016,-5.1758,-5.5625,-5.457,-5.3672,-5.6875,-5.6875,-5.6601,-5.7461,-6.168,-6.5742,0.0,0.0,0.0,0.0,0.0,0.0,0.0,0.0,0.0,0.0,0.0,0.0,0.0,0.0,0.0,0.0,0.0,0.0,0.0,0.0,0.0,-7.6455,-7.6405,-7.6726,-7.7361,-7.6515,-7.6092,-7.6092,-7.6015,-7.6015,-7.6015,-7.6015,-7.5553,-7.4784,-7.4784,-7.4322,-7.3591,-7.3591,-7.3053,-7.2168,-7.1321,-7.0937,-7.0898,0.0,0.0,0.0,0.0,0.0,0.0,0.0,0.0,0.0,0.0,0.0,0.0,0.0,0.0,0.0,0.0,0.0,0.0,0.0,-4.6289,-4.6914,-4.8359,-4.957,-5.1289,-5.3633,-5.5469,-5.7734,-6.039,-6.0625,-6.1094,-6.164,-5.8867,-5.6289,-5.3906,-5.1641,-4.9648,-4.7891,-4.7344,-4.7109,-4.707,-4.6523,0.0,0.0,0.0,0.0,0.0,0.0,0.0,0.0,0.0,-4.5508,-4.5586,-4.6133,-4.6289,-4.6289,-4.6289,-4.5664,-4.5312,-4.6875,-4.8086,-4.9414,-5.1641,-5.2383,-5.3398,-5.668,-5.8281,-5.9648,-6.1484,-6.1601,-6.1328,-6.1094,0.0,-6.6328,0.0,0.0,0.0,0.0,0.0,0.0,0.0,0.0,0.0,0.0,0.0,0.0,0.0,0.0,0.0,0.0,0.0,0.0,0.0,0.0,0.0,0.0,-7.6341,-7.6432,-7.6649,-7.6206,-7.6015,-7.6015,-7.6015,-7.5707,-7.5207,-7.5207,-7.4707,-7.3976,-7.3976,-7.3476,-7.2629,-7.2091,-7.1668,-7.136,-7.1014,-7.0898,-7.0898,0.0,0.0,0.0,0.0,0.0,0.0,0.0,0.0,0.0,0.0,0.0,0.0,0.0,0.0,0.0,0.0,0.0,0.0,-4.6289,-4.6289,-4.6953,-4.8437,-4.9336,-5.0703,-5.2656,-5.5586,-5.8047,-6.0039,-6.1133,-6.1289,-6.043,-5.7812,-5.582,-5.4297,-5.1719,-5.0234,-4.9609,-4.8203,-4.7617,-4.7539,-4.6641,-4.6289,0.0,0.0,0.0,0.0,0.0,0.0,0.0,0.0,-4.4609,-4.4726,-4.5625,-4.5898,-4.5898,-4.5898,-4.5664,-4.5547,-4.6133,-4.7383,-4.9101,-5.1641,-5.3164,-5.4805,-5.7969,-6.0703,-6.3164,-6.5117,-6.5078,-6.4531,-6.3945,-6.5039,0.0,0.0,0.0,0.0,0.0,0.0,0.0,0.0,0.0,0.0,0.0,0.0,0.0,0.0,0.0,0.0,0.0,0.0,0.0,0.0,0.0,0.0,0.0,-7.5759,-7.5641,-7.5556,-7.543,-7.5452,-7.5592,-7.5322,-7.4899,-7.4322,-7.4322,-7.386,-7.3091,-7.3091,-7.2591,-7.1745,-7.1129,-7.0898,-7.0898,-7.0898,-7.0898,-7.086,0.0,0.0,0.0,0.0,0.0,0.0,0.0,0.0,0.0,0.0,0.0,0.0,0.0,0.0,0.0,0.0,0.0,0.0,-4.6289,-4.6289,-4.668,-4.7539,-4.8437,-5.0078,-5.2617,-5.4375,-5.6562,-5.918,-6.0859,-6.0351,-5.7851,-5.6992,-5.6133,-5.5156,-5.2578,-5.1406,-5.1211,-4.8672,-4.7617,-4.7539,-4.6641,-4.6289,-4.6289,0.0,0.0,0.0,0.0,0.0,0.0,0.0,-4.3672,-4.3828,-4.4726,-4.5,-4.5,-4.5,-4.5625,-4.6289,-4.6289,-4.6953,-4.8242,-5.0781,-5.2734,-5.5195,-5.9453,-6.1094,-6.2969,-6.7344,-6.6836,-6.5625,-6.5625,-6.6328,0.0,0.0,0.0,0.0,0.0,0.0,0.0,0.0,0.0,0.0,0.0,0.0,0.0,0.0,0.0,0.0,0.0,0.0,0.0,0.0,0.0,0.0,0.0,-7.4297,-7.4197,-7.4,-7.3992,-7.4228,-7.4668,-7.386,-7.3514,-7.35,-7.35,-7.2976,-7.2168,-7.2182,-7.1681,-7.0898,-7.0912,-7.0912,-7.0912,-7.0912,-7.0898,-7.0783,0.0,0.0,0.0,0.0,0.0,0.0,0.0,0.0,0.0,0.0,0.0,0.0,0.0,0.0,0.0,0.0,0.0,0.0,-4.6289,-4.6289,-4.6406,-4.668,-4.8125,-4.8984,-4.9101,-5.1992,-5.5039,-5.8281,-5.9414,-5.8594,-5.6055,-5.582,-5.4883,-5.3437,-5.2656,-5.1641,-5.0469,-4.9101,-4.8164,-4.7539,-4.6641,-4.6289,-4.6289,0.0,0.0,0.0,0.0,0.0,0.0,0.0,0.0,0.0,-4.4531,-4.543,-4.5781,-4.5195,-4.5625,-4.6172,-4.5547,-4.7773,-5.0586,-5.1953,-5.5898,-5.9922,-6.1797,-6.3398,-6.5508,-6.9219,-6.9101,-6.8164,-6.7539,-6.7656,0.0,0.0,0.0,0.0,0.0,0.0,0.0,0.0,0.0,0.0,0.0,0.0,0.0,0.0,0.0,0.0,0.0,0.0,0.0,0.0,0.0,0.0,0.0,0.0,-7.4285,-7.4207,-7.3438,-7.3428,-7.398,-7.3748,-7.324,-7.2591,-7.2591,-7.2091,-7.131,-7.1424,-7.1324,-7.1115,-7.1271,-7.1335,-7.1317,-7.1169,-7.0706,-7.0131,0.0,0.0,0.0,0.0,0.0,0.0,0.0,0.0,0.0,0.0,-4.6064,-4.6147,0.0,0.0,0.0,0.0,0.0,0.0,0.0,-4.6289,-4.6445,-4.6797,-4.7812,-4.8594,-4.9101,-5.1484,-5.3555,-5.5312,-5.6523,-5.5976,-5.3789,-5.4805,-5.4726,-5.375,-5.4101,-5.3281,-5.1601,-5.0078,-4.8906,-4.8047,-4.7187,-4.6836,-4.6836,0.0,0.0,0.0,0.0,0.0,0.0,0.0,0.0,0.0,-4.3633,-4.4336,-4.4766,-4.4961,-4.5859,-4.6836,-4.7031,-4.9687,-5.2891,-5.4805,-5.8242,-6.1758,-6.4023,-6.5898,-6.793,-7.0664,-7.0312,-6.9453,-6.9219,-6.8906,0.0,0.0,0.0,0.0,0.0,0.0,0.0,0.0,0.0,0.0,0.0,0.0,0.0,0.0,0.0,0.0,0.0,0.0,0.0,0.0,0.0,0.0,0.0,0.0,0.0,-7.3369,-7.2736,-7.2596,-7.2889,-7.2837,-7.2483,-7.1899,-7.1899,-7.1629,-7.1148,-7.1271,-7.1326,-7.1305,-7.1085,-7.0929,-7.0804,-7.0341,-6.9793,-6.9247,0.0,0.0,0.0,0.0,0.0,0.0,0.0,0.0,0.0,0.0,-4.6087,-4.6147,0.0,0.0,0.0,0.0,0.0,0.0,0.0,-4.6289,-4.668,-4.7578,-4.7734,-4.8945,-5.1367,-5.2109,-5.2031,-5.1172,-5.2891,-5.2891,-5.1367,-5.3867,-5.5078,-5.5117,-5.5898,-5.5273,-5.3476,-5.1016,-4.9453,-4.8594,-4.7812,-4.7461,-4.7461,-4.7383,0.0,0.0,0.0,0.0,0.0,0.0,0.0,0.0,-4.25,-4.2539,-4.2812,-4.4414,-4.6172,-4.7969,-4.9648,-5.1992,-5.4844,-5.832,-6.0039,-6.1953,-6.6094,-6.8242,-6.9844,-7.1445,0.0,-6.9844,-7.0586,0.0,0.0,0.0,0.0,0.0,0.0,0.0,0.0,0.0,0.0,0.0,0.0,0.0,0.0,0.0,0.0,0.0,0.0,0.0,0.0,0.0,0.0,0.0,0.0,0.0,0.0,0.0,-7.1992,-7.1907,-7.1738,-7.1583,-7.1498,-7.1478,-7.1478,-7.1439,-7.1361,-7.1381,-7.1349,-7.1193,-7.0408,-6.9997,-6.974,-6.8927,-6.8491,-6.8218,0.0,0.0,0.0,0.0,0.0,0.0,0.0,0.0,0.0,0.0,0.0,0.0,0.0,0.0,0.0,0.0,0.0,0.0,0.0,-4.6289,-4.668,-4.7578,-4.8906,-5.0195,-5.1367,-5.0976,-5.0312,-4.9453,-5.1133,-5.1445,-5.0508,-5.2383,-5.3242,-5.3281,-5.3476,-5.2617,-5.0898,-4.8984,-4.7656,-4.6836,-4.6641,-4.6562,-4.6484,-4.582,-4.543,0.0,0.0,0.0,0.0,0.0,0.0,0.0,-4.3203,-4.3437,-4.3476,-4.3867,-4.5703,-4.7812,-4.8906,-5.1523,-5.4844,-5.832,-6.1875,-6.5078,-6.7383,-6.8203,-6.8789,-6.9805,-7.0234,-7.0508,0.0,0.0,0.0,0.0,0.0,0.0,0.0,0.0,0.0,0.0,0.0,0.0,0.0,0.0,0.0,0.0,0.0,0.0,0.0,0.0,0.0,0.0,0.0,0.0,-7.1992,-7.1992,-7.1992,0.0,-7.1992,-7.1992,-7.1949,-7.1741,-7.1604,-7.1478,-7.1478,-7.1128,-7.0473,-7.0639,-7.0329,-6.9662,-6.9475,-6.9385,-6.9309,-6.8949,-6.8404,-6.7829,0.0,0.0,0.0,0.0,0.0,0.0,0.0,0.0,0.0,0.0,0.0,0.0,0.0,0.0,0.0,0.0,0.0,0.0,0.0,-4.6289,-4.6875,-4.8164,-4.9101,-4.9961,-5.082,-4.9609,-4.8711,-4.8281,-4.8711,-4.9375,-5.0234,-5.2773,-5.3945,-5.3945,-5.4375,-5.3164,-5.0664,-4.8945,-4.7734,-4.6914,-4.6914,-4.668,-4.625,-4.5781,-4.5117,-4.4336,-4.3867,0.0,0.0,0.0,0.0,0.0,0.0,0.0,-4.2656,-4.3476,-4.4961,-4.6914,-4.9414,-5.2305,-5.5742,-6.0469,-6.3633,-6.5937,-6.7265,-6.7578,-6.7695,-6.8164,-6.9219,0.0,0.0,0.0,0.0,0.0,0.0,0.0,0.0,0.0,0.0,0.0,0.0,0.0,0.0,0.0,0.0,0.0,0.0,0.0,0.0,0.0,0.0,0.0,0.0,0.0,-7.0742,-7.0742,-7.0781,-7.0781,-7.0781,-7.0781,-7.082,-7.1085,-7.098,-7.0547,-7.0547,-7.0274,-6.9848,-6.993,-6.9708,-6.9318,-6.889,-6.8679,-6.8525,-6.8002,-6.7503,-6.7055,0.0,0.0,0.0,0.0,0.0,0.0,0.0,0.0,0.0,0.0,0.0,0.0,0.0,0.0,0.0,0.0,0.0,0.0,0.0,-4.6367,-4.7187,-4.8594,-4.8828,-4.9258,-4.9961,-4.8437,-4.7617,-4.7617,-4.6875,-4.8008,-5.0898,-5.3437,-5.4805,-5.5078,-5.5508,-5.4023,-5.1055,-4.9062,-4.7812,-4.7148,-4.6992,-4.6484,-4.582,-4.5664,-4.4726,-4.3476,-4.3476,-4.3476,-4.3398,-4.2812,0.0,0.0,0.0,0.0,-4.1289,-4.2812,-4.3867,-4.5391,-4.9258,-5.2851,-5.6875,-6.2461,-6.4726,-6.5781,-6.6523,-6.6797,-6.6914,-6.6914,0.0,0.0,0.0,0.0,0.0,0.0,0.0,0.0,0.0,0.0,0.0,0.0,0.0,0.0,0.0,0.0,0.0,0.0,0.0,0.0,0.0,0.0,0.0,0.0,0.0,-6.9414,-6.9414,-6.9414,-6.9414,-6.9492,-6.9492,-6.9414,-6.9297,-6.9961,-7.0,-6.9492,-6.9492,-6.9375,-6.918,-6.918,-6.914,-6.8984,-6.8202,-6.7835,-6.7595,-6.685,-6.6525,-6.6435,0.0,0.0,0.0,0.0,0.0,0.0,0.0,0.0,0.0,0.0,-4.5852,-4.5967,-4.6093,-4.5541,0.0,0.0,0.0,0.0,-4.5156,0.0,0.0,-4.7773,-4.8516,-4.8945,-4.9062,-4.8125,-4.7617,-4.7617,-4.7461,-4.9492,-5.3476,-5.2422,-5.2734,-5.4101,-5.2734,-5.1445,-5.0156,-4.6914,-4.5469,-4.5273,-4.4531,-4.4141,-4.3945,-4.3203,-4.2773,-4.2578,-4.2578,-4.2578,-4.2656,-4.332,-4.3008,0.0,0.0,0.0,0.0,-4.125,-4.2109,-4.3203,-4.5273,-5.1016,-5.7344,-6.1094,-6.3828,-6.5625,-6.5742,0.0,-6.6914,0.0,0.0,0.0,0.0,0.0,0.0,0.0,0.0,0.0,0.0,0.0,0.0,0.0,0.0,0.0,0.0,0.0,0.0,0.0,0.0,0.0,0.0,0.0,-6.957,-6.9414,-6.9414,0.0,-6.9492,-6.9414,-6.9414,-6.9414,-6.9414,-6.9062,-6.8398,-6.8476,-6.8906,-6.9492,-6.9453,-6.9023,-6.8359,-6.8359,-6.793,-6.7226,-6.6928,-6.6781,-6.6772,-6.6655,-6.661,-6.661,0.0,0.0,0.0,0.0,0.0,0.0,0.0,0.0,0.0,0.0,0.0,-4.5891,-4.608,-4.5366,0.0,0.0,0.0,0.0,-4.4961,-4.5703,0.0,-4.7578,-4.75,-4.7422,-4.7422,-4.6601,-4.6133,-4.6133,-4.5664,-4.8125,-5.3242,-5.25,-5.4062,-5.75,-5.5273,-5.3281,-5.1328,-4.7383,-4.5469,-4.4922,-4.4062,-4.457,-4.5625,-4.3281,-4.332,-4.4258,-4.1875,-4.1328,-4.1719,-4.1601,-4.1641,-4.1719,-4.1719,0.0,0.0,0.0,-4.0703,-4.1992,-4.6641,-5.1445,-5.6211,-6.0586,-6.2578,-6.3672,-6.4648,-6.5156,-6.543,0.0,0.0,0.0,0.0,0.0,0.0,0.0,0.0,0.0,0.0,0.0,0.0,0.0,0.0,0.0,0.0,0.0,0.0,0.0,0.0,0.0,0.0,-6.8789,-6.8515,-6.8008,-6.8008,0.0,-6.8047,-6.8008,-6.8008,-6.8008,-6.8008,-6.7812,-6.7461,-6.7461,-6.7695,-6.8047,-6.8008,-6.7812,-6.7461,-6.7461,-6.7265,-6.6875,-6.679,-6.6784,-6.6784,-6.6784,-6.6784,-6.6787,0.0,0.0,0.0,0.0,0.0,0.0,0.0,0.0,0.0,0.0,0.0,-4.5847,-4.6011,0.0,0.0,0.0,0.0,0.0,-4.4609,0.0,0.0,0.0,-4.6328,-4.5976,-4.5976,-4.5312,-4.4883,-4.4687,-4.4258,-4.7109,-5.3047,-5.3242,-5.6133,-6.0937,-5.8164,-5.5234,-5.2148,-4.8516,-4.6601,-4.5937,-4.5039,-4.5859,-4.7383,-4.543,-4.5898,-4.707,-4.3008,-4.1953,-4.2266,-4.0742,-4.0664,-4.1172,-4.0937,0.0,0.0,0.0,0.0,-4.0312,-4.6797,-5.0117,-5.3008,-5.8398,-6.039,-6.1523,0.0,0.0,0.0,0.0,0.0,0.0,0.0,0.0,0.0,0.0,0.0,0.0,0.0,0.0,0.0,0.0,0.0,0.0,0.0,0.0,0.0,0.0,0.0,0.0,-6.789,-6.7851,-6.7578,-6.6914,-6.6914,-6.6914,-6.6914,-6.6914,-6.6914,-6.6914,-6.6914,-6.6914,-6.6914,-6.6914,-6.6914,-6.6914,-6.6914,-6.6914,-6.6914,-6.6914,-6.6914,-6.6914,-6.6914,-6.6914,-6.6914,-6.6914,-6.6914,-6.6914,0.0,0.0,0.0,0.0,0.0,0.0,0.0,0.0,0.0,0.0,0.0,-4.5846,-4.5914,-4.4562,-4.3686,-4.375,-4.2969,0.0,0.0,0.0,0.0,0.0,0.0,0.0,-4.5078,-4.5039,-4.4609,-4.3789,-4.4531,-4.8008,-5.3945,-5.4765,-5.793,-6.2734,-5.9336,-5.5469,-5.1367,-4.9531,-4.875,-4.8633,-4.7734,-4.7461,-4.7851,-5.0078,-5.1016,-5.0664,-4.7226,-4.6016,-4.5547,-4.2226,-4.1172,-4.1055,-4.0234,-3.9375,-3.8516,0.0,0.0,0.0,-4.2617,-4.4726,-4.6914,-5.2891,-5.6875,-5.9765,0.0,0.0,0.0,0.0,0.0,0.0,0.0,0.0,0.0,0.0,0.0,0.0,0.0,0.0,0.0,0.0,0.0,0.0,0.0,0.0,0.0,0.0,0.0,0.0,-6.6953,-6.6953,-6.6953,-6.6914,-6.6914,-6.6914,-6.6914,-6.6914,-6.6914,-6.6914,-6.6914,-6.6914,-6.6914,-6.6914,-6.6914,-6.6914,-6.6914,-6.6914,-6.6914,-6.6914,-6.6914,-6.6914,-6.6914,-6.6914,-6.6914,-6.6914,-6.6914,-6.6914,0.0,0.0,0.0,0.0,0.0,0.0,0.0,0.0,0.0,0.0,0.0,0.0,0.0,-4.4854,-4.3999,-4.3557,-4.2272,0.0,0.0,0.0,0.0,0.0,0.0,0.0,-4.5,-4.4453,-4.4023,-4.3711,-4.3437,-4.5859,-5.0742,-5.2148,-5.4062,-5.6406,-5.6875,-5.6211,-5.4414,-4.9375,-4.7891,-4.8828,-4.7969,-4.9258,-5.168,-5.1484,-5.2773,-5.4219,-5.0234,-4.8086,-4.6875,-4.5078,-4.3359,-4.1836,-4.1016,-3.9766,-3.832,-3.6875,-3.7031,-3.832,-4.1289,-4.3516,-4.6055,-5.0469,-5.3711,-5.6328,-5.8047,0.0,0.0,0.0,0.0,0.0,0.0,0.0,0.0,0.0,0.0,0.0,0.0,0.0,0.0,0.0,0.0,0.0,0.0,0.0,0.0,0.0,0.0,0.0,-6.6055,-6.5547,-6.5508,-6.6055,-6.5508,-6.5234,-6.5234,-6.5781,-6.6055,-6.6055,-6.664,-6.6914,-6.6914,-6.6914,-6.6914,-6.6914,-6.6914,-6.6914,-6.6914,-6.6914,-6.6914,-6.6914,-6.6914,-6.6914,-6.6914,-6.6914,-6.6914,-6.6914,0.0,0.0,0.0,0.0,0.0,0.0,0.0,0.0,-4.5594,-4.5594,0.0,0.0,0.0,0.0,-4.4297,-4.3548,-4.2504,-4.2061,-4.2383,-4.2383,0.0,0.0,0.0,0.0,-4.5,-4.4414,-4.3867,-4.3242,-4.2969,-4.4609,-4.8047,-4.9766,-5.1328,-5.2734,-5.3633,-5.4805,-5.5898,-5.1562,-5.0273,-5.1016,-5.0742,-5.2344,-5.4883,-5.5195,-5.6562,-5.7812,-5.4101,-5.1836,-5.0312,-4.8281,-4.6055,-4.3906,-4.2461,-4.0273,-3.7891,-3.6445,-3.7031,-3.8437,-3.957,-4.1562,-4.4258,-4.832,0.0,-5.2344,-5.582,0.0,0.0,0.0,0.0,0.0,0.0,0.0,0.0,0.0,0.0,0.0,0.0,0.0,0.0,0.0,0.0,0.0,0.0,0.0,0.0,0.0,0.0,0.0,-6.5117,-6.4609,-6.457,-6.5156,-6.4609,-6.4297,-6.4297,-6.4883,-6.5156,-6.5156,-6.5742,-6.6015,-6.6015,-6.6015,-6.6015,-6.6015,-6.6015,-6.6367,-6.6914,-6.6914,-6.6914,-6.6914,-6.6914,-6.6914,-6.6914,-6.6914,-6.6914,-6.6875,0.0,0.0,0.0,0.0,0.0,0.0,0.0,0.0,-4.5594,-4.5594,0.0,0.0,0.0,0.0,0.0,-4.3827,-4.375,-4.3359,-4.2461,-4.2383,-4.2773,-4.3672,0.0,0.0,-4.5039,-4.5,-4.4141,-4.2422,-4.3281,-4.4531,-4.6211,-4.7969,-5.0117,-5.2422,-4.9961,-5.1211,-5.5195,-5.5937,-5.5859,-5.5312,-5.6133,-5.6562,-5.7148,-6.1328,-6.2422,-6.1445,-5.8945,-5.7461,-5.6055,-5.1875,-4.9219,-4.7226,-4.4492,-4.0781,-3.7226,-3.6328,-3.6719,-3.7383,0.0,0.0,0.0,-4.6133,0.0,0.0,0.0,0.0,0.0,0.0,0.0,0.0,0.0,0.0,0.0,0.0,0.0,0.0,0.0,0.0,0.0,0.0,0.0,0.0,0.0,0.0,0.0,0.0,0.0,-6.4219,-6.4258,-6.4258,-6.4258,-6.4219,-6.4219,-6.4219,-6.4219,-6.4258,-6.4258,-6.4258,-6.4297,-6.4297,-6.4297,-6.4297,-6.4297,-6.4297,-6.4297,-6.5273,-6.6836,-6.6836,-6.6875,-6.6914,-6.6914,-6.6914,-6.6914,-6.6875,-6.6875,-6.6758,0.0,0.0,0.0,0.0,0.0,-4.5594,-4.5594,-4.5594,-4.5594,0.0,0.0,0.0,-4.5866,-4.5716,-4.5592,-4.5441,-4.4901,-4.3936,-4.25,-4.2383,-4.2773,-4.3672,-4.3711,-4.4414,-4.5898,-4.5312,-4.4453,-4.3359,-4.3594,-4.3633,-4.3516,-4.5273,-4.6797,-4.8086,-4.8633,-4.9922,-5.1445,-4.918,-5.0586,-5.4258,-5.3242,-5.5469,-5.9414,-6.0039,-6.164,-6.3398,-6.207,-6.0234,-5.8281,-5.7109,-5.3476,-4.8672,-4.418,-4.1094,-3.9023,-3.8125,-3.8945,-3.9844,-3.8594,0.0,0.0,0.0,0.0,0.0,0.0,0.0,0.0,0.0,0.0,0.0,0.0,0.0,0.0,0.0,0.0,0.0,0.0,0.0,0.0,0.0,0.0,0.0,0.0,0.0,0.0,0.0,0.0,-6.2695,-6.332,-6.3359,-6.3086,-6.2422,-6.2422,-6.2422,-6.2422,-6.3047,-6.3359,-6.3359,-6.3984,-6.4297,-6.4297,-6.4297,-6.4297,-6.4297,-6.4297,-6.457,-6.5078,-6.5703,-6.6328,-6.6914,-6.6914,-6.6914,-6.6836,-6.6172,-6.5976,-6.5859,0.0,0.0,-4.571,-4.6086,-4.6432,-4.6624,-4.6624,-4.6624,-4.6624,0.0,0.0,0.0,-4.6834,-4.7641,-4.7756,-4.6748,-4.6266,-4.515,-4.3086,-4.293,-4.3164,-4.3672,-4.3711,-4.4531,-4.625,-4.5781,-4.4922,-4.3711,-4.3711,-4.3086,-4.1914,-4.3281,-4.418,-4.4726,-4.5742,-4.6875,-4.7851,-4.5078,-4.7617,-5.3516,-5.4336,-5.6758,-6.0039,-6.1367,-6.289,-6.4297,-6.414,-6.289,-6.1211,-6.0508,-5.6211,-5.0469,-4.5976,-4.3398,-4.1719,-4.0156,-4.0898,-4.1875,-4.0156,-4.1016,-4.2344,-4.2109,0.0,0.0,0.0,0.0,0.0,0.0,0.0,0.0,0.0,0.0,0.0,0.0,0.0,0.0,0.0,0.0,0.0,0.0,0.0,0.0,0.0,0.0,0.0,0.0,-6.1992,-6.1914,-6.2422,-6.2461,-6.2226,-6.1719,-6.1719,-6.1719,-6.1719,-6.2187,-6.2461,-6.2461,-6.2969,-6.3203,-6.3203,-6.3203,-6.3203,-6.3203,-6.3203,-6.3437,-6.3789,-6.4297,-6.5039,-6.582,-6.582,-6.582,-6.5742,-6.5234,-6.5078,-6.4922,0.0,0.0,-4.5855,-4.674,-4.7586,-4.8163,-4.8355,-4.8317,-4.8355,0.0,-4.8066,-4.8,-4.9033,-5.0432,-5.0433,-4.8147,-4.7801,-4.6679,-4.4141,-4.3828,-4.375,-4.3828,-4.375,-4.4531,-4.625,-4.6289,-4.5469,-4.3711,-4.3711,-4.2851,-4.1211,-4.1914,-4.2266,-4.2266,-4.2266,-4.3164,-4.4648,-4.3359,-4.6523,-5.2773,-5.6758,-5.8789,-5.9883,-6.3711,-6.4922,-6.4687,-6.5351,-6.5117,-6.414,-6.2226,-5.793,-5.2773,-4.9141,-4.6953,-4.5195,-4.2539,-4.2969,-4.3906,-4.2226,-4.2344,-4.3281,-4.4531,0.0,0.0,-4.7031,-4.6445,0.0,0.0,0.0,0.0,0.0,0.0,0.0,0.0,0.0,0.0,0.0,0.0,0.0,0.0,0.0,0.0,0.0,0.0,0.0,-6.1719,-6.1719,-6.1719,-6.1719,-6.1719,-6.1719,-6.1719,-6.1719,-6.1719,-6.1719,-6.1719,-6.1719,-6.1719,-6.1719,-6.1719,-6.1719,-6.1719,-6.1719,-6.1719,-6.1719,-6.2148,-6.2851,-6.2851,-6.3437,-6.4297,-6.4297,-6.4297,-6.4297,-6.418,-6.414,-6.4023,-4.5594,-4.5594,-4.5855,-4.674,-4.7586,-4.8586,-4.9971,-4.9586,-4.9894,-5.1933,-5.2162,-5.2708,-5.4265,-5.3022,-5.1918,-5.1531,-4.9642,-4.7718,-4.5898,-4.4492,-4.4023,-4.4726,-4.4062,-4.4531,-4.625,-4.6289,-4.5469,-4.3711,-4.3711,-4.2851,-4.1211,-4.1367,-4.1445,-4.1445,-4.1445,-4.1992,-4.3008,-4.4805,-4.7539,-5.082,-5.2305,-5.625,-6.1289,-6.2148,-6.4101,-6.6328,-6.5781,-6.5508,-6.4883,-6.1719,-5.9453,-5.707,-5.2187,-5.043,-4.9492,-4.625,-4.6523,-4.75,-4.5781,-4.5937,-4.6172,-4.4375,0.0,0.0,-4.3867,-4.3828,0.0,0.0,0.0,0.0,0.0,0.0,0.0,0.0,0.0,0.0,0.0,0.0,0.0,0.0,0.0,0.0,0.0,0.0,-6.1719,-6.1719,-6.1719,-6.1719,-6.1719,-6.1719,-6.1719,-6.1719,-6.1719,-6.1719,-6.1719,-6.1719,-6.1719,-6.1719,-6.1719,-6.1719,-6.1719,-6.1719,-6.1719,-6.1719,-6.1719,-6.1797,-6.1953,-6.1953,-6.289,-6.4297,-6.4297,-6.4297,-6.4219,-6.3515,-6.3242,-6.3125,-4.5594,-4.5594,-4.6018,-4.7278,-4.8202,-4.9471,-5.1625,-5.1587,-5.2202,-5.4741,-5.5874,-5.629,-5.5847,-5.48,-5.3625,-5.2419,-5.0091,-4.796,-4.6201,-4.4993,-4.4335,-4.4286,-4.4335,-4.4766,-4.5625,-4.6094,-4.5469,-4.3711,-4.3711,-4.2851,-4.1211,-4.1211,-4.1875,-4.3047,-4.2187,-4.3008,-4.5,-4.5,-4.6758,-4.9883,-5.375,-5.7851,-6.1875,-6.3633,-6.539,-6.6836,-6.6406,-6.5976,-6.5117,-6.207,-6.0508,0.0,-5.4726,-5.3633,-5.332,0.0,-4.9766,-5.0312,-4.8164,-4.793,0.0,-4.6601,0.0,0.0,0.0,0.0,0.0,0.0,0.0,0.0,0.0,0.0,0.0,0.0,0.0,0.0,0.0,0.0,0.0,0.0,0.0,0.0,0.0,0.0,-6.1211,-6.168,-6.1719,-6.1719,-6.1719,-6.1719,-6.1719,-6.1719,-6.1719,-6.1719,-6.1719,-6.1719,-6.1719,-6.1719,-6.1719,-6.1719,-6.1719,-6.1719,-6.1719,-6.1719,-6.1719,-6.1719,-6.1719,-6.1719,-6.2226,-6.3008,-6.3008,-6.3008,-6.2969,-6.25,-6.2344,-6.2305,-4.5594,-4.5594,-4.6095,-4.7586,-4.8856,-5.0433,-5.2856,-5.3356,-5.4318,-5.6676,-5.8759,-5.9265,-5.7184,-5.6815,-5.6024,-5.4322,-5.1425,-4.9037,-4.7579,-4.6233,-4.5153,-4.4387,-4.4762,-4.5078,-4.5234,-4.5781,-4.5195,-4.3437,-4.3437,-4.2695,-4.1211,-4.1211,-4.2383,-4.4453,-4.3203,-4.4414,-4.7226,-4.5273,-4.6758,-5.0898,0.0,-5.957,-6.0898,-6.4687,-6.6133,-6.6211,-6.6719,-6.6445,-6.5469,-6.3047,-6.1719,-6.0547,-5.7148,-5.664,0.0,0.0,0.0,-5.3164,0.0,0.0,0.0,0.0,0.0,-4.6797,0.0,0.0,0.0,-4.6367,0.0,0.0,0.0,0.0,0.0,0.0,0.0,0.0,0.0,0.0,0.0,0.0,0.0,0.0,0.0,0.0,-5.9922,-6.1133,-6.0898,-6.0937,-6.1406,-6.1601,-6.1719,-6.1719,-6.1719,-6.1719,-6.1719,-6.1719,-6.1719,-6.1719,-6.1719,-6.1719,-6.1719,-6.1719,-6.1719,-6.1719,-6.1719,-6.1719,-6.1719,-6.1719,-6.1719,-6.1719,-6.1719,-6.1719,-6.1719,-6.1719,-6.1719,-6.1719,-4.5594,-4.5594,-4.5893,-4.6855,-4.8971,-5.1164,-5.2933,-5.3857,-5.4972,-5.6791,-5.9911,-6.187,-6.156,-6.0325,-6.0093,-6.1474,-5.6464,-5.3176,-5.3083,-4.9453,-4.7265,-4.7148,-4.5781,-4.5351,-4.6133,-4.5508,-4.4297,-4.2539,-4.2539,-4.2109,-4.1211,-4.1211,-4.1719,-4.2734,-4.3281,-4.4648,-4.6484,-4.6953,-5.0469,0.0,-5.7422,-5.7226,0.0,-6.1562,-6.3437,-6.375,-6.6055,-6.6836,-6.6484,0.0,-6.3945,-6.3242,0.0,-5.9297,-5.9453,-5.6797,0.0,0.0,0.0,0.0,0.0,0.0,-5.1523,0.0,0.0,0.0,-4.6445,-4.4531,0.0,0.0,0.0,0.0,0.0,0.0,0.0,0.0,0.0,0.0,0.0,0.0,0.0,0.0,0.0,0.0,0.0,-5.9297,-5.8047,-5.8164,-6.043,-6.1289,-6.1719,-6.1719,-6.1719,-6.1719,-6.1719,-6.1719,-6.1719,-6.1719,-6.1719,-6.1719,-6.1719,-6.1719,-6.1719,-6.1719,-6.1719,-6.1719,-6.1719,-6.1719,-6.1719,-6.1719,-6.1719,-6.1719,-6.1719,-6.1719,-6.1719,-6.1719,-4.5594,-4.5594,-4.5855,-4.674,-4.7778,-4.9548,-5.2741,-5.6857,-5.9704,-5.9946,-6.21,-6.3861,-6.451,-6.2207,-6.1408,-6.3263,-5.8913,-5.5619,-5.4594,-5.1555,-4.9569,-4.901,-4.7381,-4.668,-4.7031,-4.5703,-4.4375,-4.3164,-4.2656,-4.1992,-4.1211,-4.168,-4.3164,-4.5469,-4.6328,-4.8242,-5.0742,-5.0078,-5.1289,0.0,0.0,0.0,0.0,-6.2539,-6.5273,-6.539,-6.6523,-6.6914,-6.6562,0.0,-6.3867,0.0,0.0,0.0,0.0,-5.7969,0.0,0.0,0.0,0.0,0.0,0.0,0.0,0.0,-4.8047,0.0,-4.6055,0.0,0.0,0.0,0.0,0.0,0.0,0.0,0.0,0.0,0.0,0.0,0.0,0.0,0.0,0.0,0.0,0.0,0.0,0.0,0.0,-5.6523,-5.8125,-5.9922,-6.0937,-6.0937,-6.1445,-6.1719,-6.1719,-6.1719,-6.1719,-6.1719,-6.1719,-6.1719,-6.1719,-6.1719,-6.1719,-6.1719,-6.1719,-6.1719,-6.1719,-6.1719,-6.1719,-6.1719,-6.1719,-6.1719,-6.1719,-6.1719,-6.1719,-6.1719,-4.5594,-4.5594,-4.5787,-4.6432,-4.6932,-4.8663,-5.2895,-5.8127,-6.1627,-6.1743,-6.3249,-6.49,-6.636,-6.4404,-6.3878,-6.6205,-6.2596,-5.9536,-5.7931,-5.491,-5.2771,-5.1856,-4.9763,-4.8555,-4.832,-4.6601,-4.5039,-4.3711,-4.3086,-4.2461,-4.1914,-4.2461,-4.4219,-4.6953,-4.8555,-5.0898,-5.3594,-5.3047,-5.3516,-5.4687,-5.5703,-5.668,-5.8125,-6.3711,-6.6289,-6.6914,-6.6914,-6.6914,-6.6562,-6.4414,-6.414,0.0,-6.1875,0.0,0.0,0.0,0.0,0.0,-5.5898,0.0,0.0,0.0,0.0,0.0,0.0,0.0,0.0,0.0,0.0,0.0,0.0,0.0,-4.4609,-4.4141,0.0,0.0,0.0,0.0,0.0,0.0,0.0,0.0,0.0,0.0,0.0,0.0,0.0,0.0,-5.6133,-5.8203,-5.9687,-6.039,-6.1015,-6.1445,-6.1719,-6.1719,-6.1719,-6.1719,-6.1719,-6.1719,-6.1719,-6.1719,-6.1719,-6.1719,-6.1719,-6.1719,-6.1719,-6.1719,-6.1719,-6.1719,-6.1719,-6.1719,-6.1719,-6.1719,-6.1719,-6.1719,-4.5594,-4.5594,-4.5594,-4.5633,-4.6971,-4.951,-5.3818,-5.6011,-5.8099,-6.0512,-6.247,-6.4599,-6.7077,-6.7559,-6.9029,-7.242,-6.8971,-6.6211,-6.5312,-6.0508,-5.7305,-5.6445,-5.3125,-5.0898,-5.0117,-4.8398,-4.625,-4.3711,-4.3672,-4.3633,-4.3633,-4.3633,-4.418,-4.5234,-4.8633,-5.1133,-5.2891,-5.539,-5.8828,-6.2578,-6.1758,-6.3476,-6.625,0.0,-6.4687,-6.6914,-6.6914,0.0,0.0,-6.582,-6.5547,0.0,0.0,0.0,0.0,0.0,0.0,0.0,0.0,0.0,0.0,-5.2891,0.0,0.0,0.0,0.0,-4.957,0.0,0.0,0.0,0.0,-4.8086,-4.6914,-4.5234,-4.4961,0.0,0.0,0.0,0.0,0.0,0.0,0.0,0.0,0.0,0.0,0.0,0.0,0.0,-5.5078,-5.6211,-5.7851,-6.0312,-6.043,-6.0859,-6.168,-6.1719,-6.1719,-6.1719,-6.1719,-6.1719,-6.1719,-6.1719,-6.1719,-6.1719,-6.1719,-6.1719,-6.1719,-6.1719,-6.1719,-6.1719,-6.1719,-6.1719,-6.1719,-6.1719,-6.1719,-6.1719,-4.6471,-4.6471,-4.6278,-4.571,-4.6547,-4.8933,-5.3741,-5.7819,-6.1293,-6.382,-6.5688,-6.822,-7.2024,-7.152,-7.1894,-7.4301,-7.1788,-6.9162,-6.7058,-6.3378,-6.1091,-6.067,-5.6362,-5.4101,-5.4414,-5.1094,-4.832,-4.6289,-4.5117,-4.4258,-4.3711,-4.4297,-4.5039,-4.6055,-5.0078,-5.2812,-5.4609,0.0,0.0,0.0,0.0,-6.3789,-6.6797,0.0,0.0,-6.6914,-6.6914,-6.6914,0.0,-6.6562,-6.6094,-6.539,-6.4219,-6.3086,-6.1953,-6.1094,-6.0469,0.0,0.0,0.0,-5.9375,-5.5078,0.0,0.0,0.0,0.0,0.0,0.0,0.0,0.0,0.0,-4.7734,-4.6562,-4.5976,-4.4414,-4.2578,0.0,0.0,0.0,0.0,0.0,0.0,0.0,0.0,0.0,0.0,0.0,0.0,0.0,-5.4883,-5.6992,-5.7851,-5.9531,-6.0547,-6.0859,-6.1406,-6.1719,-6.1719,-6.1719,-6.1719,-6.1719,-6.1719,-6.1719,-6.1719,-6.1719,-6.1719,-6.1719,-6.1719,-6.1719,-6.1719,-6.1719,-6.1719,-6.1719,-6.1719,-6.1719,-6.1719,-4.6962,-4.6885,-4.674,-4.6163,-4.7278,-4.9663,-5.3857,-5.883,-6.314,-6.5936,-6.8052,-7.0838,-7.491,-7.4447,-7.4459,-7.6,-7.449,-7.2067,-6.8816,-6.6739,-6.5015,-6.3676,-6.0341,-5.8319,-5.7881,-5.4647,-5.1484,-4.8516,-4.7383,-4.6094,-4.4648,-4.5195,-4.5742,-4.6484,-5.0469,-5.3203,-5.5078,-5.8594,-6.0469,0.0,0.0,-6.4883,0.0,0.0,-6.6914,-6.6914,0.0,-6.6914,-6.6914,-6.6914,-6.6523,-6.5859,-6.4687,-6.3515,-6.2383,-6.1211,-6.0508,-6.0039,-5.9726,-6.0,0.0,0.0,-5.5351,0.0,-5.0586,0.0,0.0,0.0,0.0,0.0,0.0,-4.9453,-4.7578,-4.7266,-4.5039,-4.2422,0.0,0.0,0.0,0.0,0.0,0.0,0.0,0.0,-4.3594,-4.4531,0.0,0.0,0.0,0.0,-5.5195,-5.6094,-5.8633,-6.0117,-6.039,-6.125,-6.1719,-6.1719,-6.1719,-6.1719,-6.1719,-6.1719,-6.1719,-6.1719,-6.1719,-6.1719,-6.1719,-6.1719,-6.1719,-6.1719,-6.1719,-6.1719,-6.1719,-6.1719,-6.1719,-6.1719,-4.7115,-4.7038,-4.7154,-4.7192,-4.9202,-5.1712,0.0,0.0,-6.3371,-6.6782,-6.9513,-7.2437,-7.5822,-7.6366,-7.6815,-7.7655,-7.7048,-7.4944,-7.0945,-7.0571,-6.905,-6.5808,-6.4906,-6.323,-6.0577,-5.8815,-5.5507,-5.0507,-5.0234,-4.8867,-4.6406,-4.6328,-4.6289,-4.6445,-4.9844,-5.2344,-5.4336,-5.9414,-6.2656,-6.4492,-6.6211,-6.6914,-6.6914,-6.6914,0.0,-6.6914,-6.6914,-6.6914,-6.6914,-6.6914,-6.6914,-6.6601,-6.4883,-6.4336,-6.3984,-6.2265,-6.1719,-6.1523,-6.0703,-6.0469,-5.9883,-5.7383,0.0,0.0,0.0,0.0,-5.4922,0.0,0.0,0.0,0.0,0.0,-4.9961,-4.8984,-4.6641,-4.3476,-3.9297,0.0,0.0,0.0,0.0,0.0,0.0,-4.1836,-4.1719,-4.5703,-4.3125,-4.3555,0.0,0.0,0.0,-5.5078,-5.7695,-5.9492,-6.0312,-6.1211,-6.164,-6.1719,-6.1719,-6.1719,-6.1719,-6.1719,-6.1719,-6.1719,-6.1719,-6.1719,-6.1719,-6.1719,-6.1719,-6.1719,-6.1719,-6.1719,-6.1719,-6.1719,-6.1719,-6.1719,-4.8086,-4.9308,-5.0808,-5.1471,-5.2125,-5.3626,0.0,0.0,0.0,0.0,-7.2322,-7.5745,-7.8515,-7.8874,-7.9008,-7.924,-7.8073,0.0,0.0,0.0,0.0,-7.0598,-6.8138,-6.6135,-6.4771,-6.0726,-5.731,-5.458,-5.0998,-4.8824,-4.8051,-4.6872,-4.6289,-4.6406,-4.9258,-5.1797,-5.4258,-5.8164,-6.1953,-6.5351,-6.6445,-6.6914,0.0,0.0,-6.6914,-6.6914,-6.6914,-6.6914,-6.6914,-6.6914,-6.6914,-6.6719,-6.5625,-6.4805,-6.4062,-6.3008,-6.2226,-6.164,-6.1445,-6.1367,-6.1055,-5.9765,-5.8476,-5.7148,0.0,0.0,0.0,0.0,0.0,0.0,0.0,0.0,0.0,-4.8281,-4.5742,-4.3203,-4.0859,0.0,0.0,0.0,0.0,0.0,0.0,0.0,-4.2383,-4.1601,0.0,0.0,0.0,0.0,0.0,-5.3281,-5.5898,-5.8008,-5.9492,-6.0312,-6.1055,-6.1719,-6.1719,-6.1719,-6.1719,-6.1719,-6.1719,-6.1719,-6.1719,-6.1719,-6.1719,-6.1719,-6.1719,-6.1719,-6.1719,-6.1719,-6.1719,-6.1719,-6.1719,-6.1719,-4.9962,-5.2423,-5.4846,-5.5357,0.0,0.0,-5.9704,-6.2166,0.0,-6.9206,-7.3053,0.0,-7.7938,-7.9477,-8.0208,-7.9823,-7.9051,0.0,-7.5131,0.0,0.0,-7.1954,-7.0563,-6.9033,-6.7338,-6.3558,0.0,-5.608,-5.2643,-4.9979,-4.8018,-4.6745,-4.6149,-4.632,-4.8546,-5.0973,-5.375,-5.875,-6.2695,-6.5664,-6.6562,0.0,0.0,-6.6914,-6.6914,-6.6914,-6.6914,-6.6914,-6.6914,-6.6914,-6.6914,-6.6758,-6.5859,-6.5,-6.414,-6.3242,-6.2383,-6.1719,-6.1719,-6.1719,-6.1562,-6.1094,-6.0273,-5.9258,-5.8008,-5.8125,-5.8203,0.0,0.0,0.0,0.0,0.0,0.0,-4.6992,-4.4609,-4.2695,-4.1367,0.0,0.0,0.0,0.0,0.0,0.0,0.0,0.0,0.0,0.0,0.0,0.0,0.0,0.0,0.0,-5.5039,-5.7265,-5.8633,-5.9805,-6.0664,-6.1133,-6.1523,-6.1719,-6.1719,-6.1719,-6.1719,-6.1719,-6.1719,-6.1719,-6.1719,-6.1719,-6.1719,-6.1719,-6.1719,-6.1719,-6.1719,-6.1719,-6.1719,-6.1719,-5.2577,-5.5857,-5.8588,0.0,0.0,0.0,0.0,-6.4512,0.0,-7.009,0.0,-7.5822,-7.6592,-7.9323,-8.0785,-8.0054,0.0,-7.8233,-7.456,-7.6359,-7.5867,-7.2004,-7.2559,-7.1723,-6.9115,-6.6453,-6.2238,-5.6537,-5.4336,-5.1234,-4.7325,-4.6337,-4.5971,-4.6155,-4.7806,0.0,0.0,-6.0039,-6.3828,-6.5508,-6.6484,-6.6914,-6.6914,-6.6914,-6.6914,-6.6914,-6.6914,-6.6914,-6.6914,-6.6914,-6.6914,-6.6758,-6.6015,-6.5078,-6.414,-6.3398,-6.2461,-6.1719,-6.1719,-6.1719,-6.1719,-6.1719,-6.1719,-6.1328,-5.9844,-5.9531,-5.9531,-5.9531,-5.832,0.0,0.0,0.0,0.0,-4.6172,-4.4258,0.0,0.0,0.0,0.0,0.0,0.0,0.0,0.0,0.0,0.0,0.0,0.0,0.0,0.0,0.0,0.0,0.0,-5.4453,0.0,-5.789,0.0,-6.0312,-6.039,-6.1289,-6.1719,-6.1719,-6.1719,-6.1719,-6.1719,-6.1719,-6.1719,-6.1719,-6.1719,-6.1719,-6.1719,-6.1719,-6.1719,-6.1719,-6.1719,-6.1719,-6.1719,-5.6099,-5.8396,-6.0127,0.0,0.0,-6.609,-6.8052,-6.9783,-7.1822,-7.4553,-7.7861,-8.0054,-8.0208,-8.0746,-8.1054,-8.09,-8.0208,0.0,0.0,0.0,0.0,-7.5215,-7.4653,-7.3472,-7.1595,-6.7177,-6.2888,-5.8922,-5.3889,-5.032,-4.8057,-4.6605,-4.5892,-4.599,-4.7123,0.0,-5.5156,-5.9922,0.0,-6.4687,-6.625,-6.6914,-6.6914,-6.6914,-6.6914,-6.6914,-6.6914,-6.6914,-6.6914,-6.6914,-6.6914,-6.6875,-6.6719,-6.5586,-6.4258,-6.4101,-6.2969,-6.1719,-6.1719,-6.1719,-6.1719,-6.1719,-6.1719,-6.1601,-6.1328,-6.125,-6.125,-6.125,-6.1015,-6.0351,-5.8828,0.0,0.0,0.0,0.0,0.0,0.0,0.0,0.0,0.0,0.0,0.0,0.0,0.0,0.0,0.0,0.0,0.0,0.0,0.0,0.0,0.0,0.0,0.0,0.0,0.0,0.0,-6.039,-6.1289,-6.1719,-6.1719,-6.1719,-6.1719,-6.1719,-6.1719,-6.1719,-6.1719,-6.1719,-6.1719,-6.1719,-6.1719,-6.1719,-6.1719,-6.1719,-6.1719,-6.1719,-6.0858,-6.2281,-6.3589,-6.4051,0.0,0.0,0.0,-7.4784,0.0,-7.5399,-7.7169,-7.8438,-7.8438,-8.0054,-8.1093,-8.1093,-8.0708,-7.99,-7.8592,-7.813,-7.7361,-7.6053,-7.5168,-7.3937,-7.2245,-6.8551,-6.4517,-6.0165,-5.5237,-5.1462,-4.8822,-4.6728,-4.5776,-4.598,-4.8712,-5.2164,0.0,0.0,0.0,-6.4358,-6.6076,-6.674,-6.6743,-6.6874,-6.6833,-6.6743,-6.6874,-6.6784,-6.6664,-6.6833,-6.6914,-6.6914,-6.6914,-6.6015,-6.4883,-6.4414,-6.3398,-6.2265,-6.1836,-6.1719,-6.1719,-6.1719,-6.1719,-6.1719,-6.1719,-6.1719,-6.1719,-6.1719,-6.1719,-6.0781,-5.7773,-5.5117,0.0,0.0,0.0,0.0,0.0,0.0,0.0,0.0,0.0,0.0,0.0,0.0,0.0,0.0,0.0,0.0,0.0,0.0,0.0,0.0,0.0,0.0,0.0,0.0,0.0,-5.9805,-6.0625,-6.125,-6.1719,-6.1719,-6.1719,-6.1719,-6.1719,-6.1719,-6.1719,-6.1719,-6.1719,-6.1719,-6.1719,-6.1719,-6.1719,-6.1719,-6.1719,-6.1719,-6.5013,-6.6128,0.0,0.0,-7.1091,0.0,-7.5707,-7.8323,-7.9131,-7.6399,-7.6669,-7.7092,-7.7092,-7.9477,-8.1093,-8.1093,-8.1093,-8.0362,-7.8592,-7.8477,-7.7746,-7.6053,-7.5361,-7.4284,-7.2745,-7.0244,-6.6436,0.0,-5.728,-5.3395,-4.9625,-4.7441,-4.656,0.0,0.0,0.0,0.0,0.0,-6.3019,-6.4435,-6.596,-6.6549,-6.6557,-6.6733,-6.6683,-6.6596,-6.6735,-6.6603,-6.6429,-6.6719,-6.6785,-6.6785,-6.6785,-6.6199,-6.5301,-6.4442,-6.3583,-6.2723,-6.1864,-6.1591,-6.1591,-6.1591,-6.1634,-6.1677,-6.1677,-6.1679,-6.1719,-6.1719,-6.1719,-6.0664,-5.7226,-5.5781,0.0,0.0,0.0,0.0,0.0,0.0,0.0,0.0,0.0,0.0,0.0,0.0,0.0,0.0,0.0,0.0,-4.1094,-4.3086,0.0,0.0,0.0,0.0,-5.5,0.0,-5.8359,0.0,-6.0039,-6.0859,-6.1719,-6.1719,-6.1719,-6.1719,-6.1719,-6.1719,-6.1719,-6.1719,-6.1719,-6.1719,-6.1719,-6.1719,-6.1719,-6.1719,-6.1719,-6.1719,0.0,0.0,0.0,0.0,0.0,0.0,0.0,-7.8823,-8.0862,-8.0554,-8.0554,-8.0631,-8.0631,-8.09,-8.1093,-8.1093,-8.1093,-8.0362,-7.8592,-7.8477,-7.7746,-7.6053,-7.5938,-7.5438,-7.4476,-7.1975,-6.8167,0.0,0.0,-5.5434,-5.0558,-4.951,0.0,0.0,0.0,0.0,0.0,-6.0493,-6.2762,-6.5076,-6.6055,-6.6412,-6.6412,-6.6429,-6.6423,-6.6412,-6.6429,-6.6412,-6.6393,-6.6423,-6.6435,-6.6435,-6.6435,-6.5845,-6.4983,-6.4093,-6.3236,-6.2374,-6.1562,-6.1328,-6.1328,-6.1328,-6.1413,-6.1515,-6.1515,-6.1629,-6.1719,-6.1719,-6.1719,-6.0664,-5.7226,-5.7773,-5.7109,0.0,0.0,0.0,0.0,0.0,-4.7109,-4.6172,0.0,0.0,0.0,0.0,0.0,0.0,0.0,0.0,0.0,-4.1445,0.0,-4.8867,0.0,-5.2344,-5.4101,-5.664,0.0,-5.9219,-6.0039,-6.0859,-6.1719,-6.1719,-6.1719,-6.1719,-6.1719,-6.1719,-6.1719,-6.1719,-6.1719,-6.1719,-6.1719,-6.1719,-6.1719,-6.1719,-6.1719,-6.1719,0.0,0.0,0.0,0.0,0.0,0.0,0.0,-8.0208,-8.1093,-8.1093,-8.1093,-8.1093,-8.1093,-8.1093,-8.1093,-8.1093,-8.1093,-8.0362,-7.8592,-7.8477,-7.7746,-7.6053,-7.6015,-7.5592,-7.4707,-7.2706,-6.9667,0.0,0.0,0.0,0.0,0.0,0.0,0.0,0.0,-5.7726,-6.0205,-6.2355,-6.3892,-6.4993,-6.5863,-6.6212,-6.6228,-6.6347,-6.632,-6.6228,-6.6347,-6.6275,-6.6099,-6.6209,-6.6298,-6.6387,-6.6387,-6.6153,-6.5719,-6.4824,-6.3968,-6.3112,-6.2256,-6.1672,-6.1283,-6.1283,-6.1334,-6.1373,-6.1373,-6.1409,-6.1478,-6.1478,-6.1478,-6.075,-5.8408,-5.7711,-5.6861,0.0,0.0,0.0,0.0,0.0,0.0,-4.7187,0.0,-4.2539,0.0,0.0,0.0,0.0,0.0,0.0,0.0,0.0,0.0,-4.7226,0.0,-5.1992,-5.3203,-5.582,-5.7578,-5.8437,-5.9297,-6.0117,-6.0937,-6.1445,-6.1719,-6.1719,-6.1719,-6.1719,-6.1719,-6.1719,-6.1719,-6.1719,-6.1719,-6.1719,-6.1719,-6.1719,-6.1719,-6.1719,-7.5399,0.0,-7.5784,0.0,-7.813,-7.8323,-8.0746,-8.1093,-8.1093,-8.1093,-8.1093,-8.1093,-8.1093,-8.1093,-8.1093,-8.1093,-8.1093,-8.0362,-7.8592,-7.8477,-7.7746,-7.6053,-7.6015,0.0,-7.5091,-7.3668,-7.1398,-6.8205,-6.4743,0.0,0.0,0.0,0.0,0.0,-5.8742,-6.0558,-6.2539,-6.3993,-6.4941,-6.5505,-6.5874,-6.6028,-6.6049,-6.6191,-6.6156,-6.6059,-6.62,-6.6108,-6.5897,-6.6003,-6.6157,-6.6259,-6.6259,-6.6259,-6.6096,-6.5203,-6.4349,-6.3456,-6.2595,-6.1788,-6.1167,-6.1167,-6.1172,-6.1214,-6.1214,-6.1253,-6.1283,-6.1283,-6.1283,-6.0811,-5.9143,-5.7868,-5.6797,0.0,0.0,0.0,0.0,0.0,0.0,0.0,-4.5195,-4.2969,-4.2031,0.0,0.0,0.0,0.0,0.0,0.0,0.0,0.0,0.0,0.0,0.0,0.0,0.0,-5.7187,-5.8281,-5.8906,-5.9765,-6.0781,-6.1406,-6.1719,-6.1719,-6.1719,-6.1719,-6.1719,-6.1719,-6.1719,-6.1719,-6.1719,-6.1719,-6.1719,-6.1719,-6.1719,-6.1719,-7.7092,-7.79,-7.8707,-7.9631,-8.0477,-8.1054,-8.1093,-8.1093,-8.1093,-8.1093,-8.1093,-8.1093,-8.1093,-8.1093,-8.1093,-8.1093,-8.1093,-8.0362,-7.8592,-7.8477,-7.7746,0.0,0.0,-7.6015,-7.5976,-7.513,-7.3437,-7.086,0.0,0.0,-6.1985,0.0,0.0,-6.0781,-6.1678,-6.3447,-6.5795,-6.4936,-6.5551,-6.6987,-6.6218,-6.591,-6.591,-6.591,-6.591,-6.591,-6.591,-6.591,-6.5897,-6.591,-6.591,-6.591,-6.591,-6.591,-6.5718,-6.4871,-6.3986,-6.314,-6.2332,-6.1447,-6.0793,-6.0793,-6.0895,-6.1006,-6.1006,-6.1165,-6.1283,-6.1283,-6.1283,-6.0783,-5.9038,-5.8688,-5.7553,-5.4196,0.0,0.0,0.0,0.0,0.0,0.0,-4.4991,-4.2734,-4.3594,0.0,0.0,0.0,0.0,0.0,0.0,0.0,0.0,-4.8711,-5.0508,0.0,-5.3984,-5.5703,-5.7461,-5.918,-5.918,-6.0078,-6.168,-6.1719,-6.1719,-6.1719,-6.1719,-6.1719,-6.1719,-6.1719,-6.1719,-6.1719,-6.1719,-6.1719,-6.1719,-6.1719,-6.1719,-6.1719,-7.8938,-7.9708,-8.0362,-8.0631,-8.0939,-8.1093,-8.1093,-8.1093,-8.1093,-8.1093,-8.1093,-8.1093,-8.1093,-8.1093,-8.1093,0.0,-8.1093,-8.0362,0.0,-7.8477,-7.7746,-7.6053,-7.6015,-7.6015,-7.6015,-7.5168,-7.4053,-7.2668,0.0,0.0,0.0,-6.4128,-6.4282,-6.5089,-6.5371,-6.6282,-6.759,-6.7321,-6.7513,-6.7975,-6.7705,-6.7244,-6.6705,-6.6705,-6.6359,-6.5897,-6.5897,-6.5897,-6.5897,-6.5897,-6.5897,-6.5897,-6.5897,-6.5897,-6.5859,-6.5551,-6.4859,-6.4012,-6.3166,-6.232,-6.1562,-6.0935,-6.0823,-6.085,-6.085,-6.0913,-6.0973,-6.0973,-6.0973,-6.049,-5.8855,-5.8575,-5.7882,-5.5703,0.0,0.0,0.0,0.0,0.0,0.0,-4.5485,-4.4077,0.0,-4.244,0.0,0.0,0.0,0.0,0.0,0.0,0.0,0.0,-5.0781,0.0,-5.3984,-5.5742,-5.7187,-5.832,-5.8906,-6.0078,-6.1719,-6.1719,-6.1719,-6.1719,-6.1719,-6.1719,-6.1719,-6.1719,-6.1719,-6.1719,-6.1719,-6.1719,-6.1719,-6.1719,-6.1719,-6.1719,-8.0285,-8.0746,-8.1093,-8.1093,-8.1093,-8.1093,-8.1093,-8.1093,-8.1093,-8.1093,-8.1093,-8.1093,-8.1093,-8.1093,0.0,-8.1093,-8.1093,-8.0362,-7.8592,-7.8477,-7.7746,-7.6053,-7.6015,-7.6015,-7.6015,0.0,0.0,-7.3976,-7.1398,-6.9167,-6.7321,-6.6974,-6.7128,-6.759,-6.759,-6.809,-6.8859,-6.8552,-6.859,-6.8859,-6.8552,-6.809,-6.759,-6.759,-6.7051,-6.6359,-6.6359,-6.6167,-6.5897,-6.5897,-6.5897,-6.5897,-6.5897,-6.5897,-6.5897,-6.5897,-6.5282,-6.4474,-6.3935,-6.2974,-6.1985,-6.1396,-6.105,-6.0781,-6.0781,-6.0781,-6.0781,-6.0781,-6.0781,-6.0299,-5.8732,-5.8414,-5.7812,-5.5862,0.0,-5.3053,-5.1858,0.0,0.0,0.0,0.0,0.0,0.0,-4.4624,0.0,0.0,0.0,0.0,0.0,0.0,0.0,-4.8945,-5.1719,0.0,-5.4961,-5.6055,-5.7187,-5.8398,-5.957,-6.0703,-6.1719,-6.1719,-6.1719,-6.1719,-6.1719,-6.1719,-6.1719,-6.1719,-6.1719,-6.1719,-6.1719,-6.1719,-6.1719,-6.1719,-6.1719,-6.1719,-8.1093,-8.1093,0.0,0.0,-8.1093,0.0,-8.1093,-8.1093,-8.1093,-8.1093,-8.1093,-8.1093,-8.1093,-8.1093,-8.1093,-8.1093,0.0,0.0,0.0,-7.8477,-7.7746,-7.6053,-7.6015,0.0,-7.6015,-7.6015,-7.5553,-7.4707,-7.2283,-7.0667,-6.986,-6.8975,-6.8577,-6.8577,-6.8577,-6.9013,-6.9744,-6.8936,-6.9052,-6.9706,-6.8898,-6.8552,-6.8513,-6.8513,-6.7936,-6.7167,-6.7167,-6.6667,-6.5974,-6.5974,-6.5936,-6.5897,-6.5897,-6.5897,-6.5897,-6.5897,-6.532,-6.4666,-6.4628,-6.3435,-6.2178,-6.2101,-6.1435,-6.0781,-6.0781,-6.0781,-6.0781,-6.0781,-6.0781,-6.0281,-5.8627,-5.8319,-5.7473,-5.4895,-5.3703,-5.251,-5.0866,0.0,0.0,0.0,0.0,0.0,0.0,-4.7037,-4.7591,0.0,0.0,0.0,0.0,0.0,0.0,-5.1406,-5.3164,-5.4883,-5.6562,-5.664,-5.7578,-5.9297,-6.0937,-6.1719,-6.1719,-6.1719,-6.1719,-6.1719,-6.1719,-6.1719,-6.1719,-6.1719,-6.1719,-6.1719,-6.1719,-6.1719,-6.1719,-6.1719,-6.1719,-6.1719,0.0,0.0,-8.1093,-8.1093,-8.1093,-8.1093,-8.1093,-8.1093,-8.1093,-8.1093,-8.1093,-8.1093,-8.1093,-8.1093,-8.1093,-8.1093,-8.1093,-8.0362,-7.8592,-7.8477,-7.7746,-7.6053,-7.6015,-7.6015,-7.6015,-7.6015,-7.5553,-7.4707,-7.3476,-7.2437,-7.1591,-7.0706,-7.0321,-7.0321,-7.0321,-7.0437,-7.0591,-7.0398,-7.0437,-7.0591,-7.0398,-6.9937,-6.9398,-6.9398,-6.8859,-6.809,-6.809,-6.7552,-6.6821,-6.6821,-6.6397,-6.5897,-6.5897,-6.5897,-6.5897,-6.5897,-6.5743,-6.5436,-6.4782,-6.382,-6.2858,-6.2255,-6.1435,-6.0781,-6.0781,-6.0781,-6.0781,-6.0781,-6.0781,-6.0281,-5.8627,-5.8319,-5.7473,-5.4895,-5.3203,-5.1625,-4.9933,0.0,0.0,0.0,-4.7902,-4.8338,-4.7779,-4.9155,-4.9571,0.0,0.0,0.0,0.0,0.0,-5.2132,-5.2383,-5.4062,-5.5508,-5.6601,-5.7265,-5.8437,-6.0117,-6.1172,-6.1719,-6.1719,-6.1719,-6.1719,-6.1719,-6.1719,-6.1719,-6.1719,-6.1719,-6.1719,-6.1719,-6.1719,-6.1719,-6.1719,-6.1719,-6.1719,-6.1719,-8.1093,-8.1093,-8.1093,-8.1093,-8.1093,-8.1093,-8.1093,-8.1093,-8.1093,-8.1093,-8.1093,-8.1093,-8.1093,-8.1093,-8.1093,-8.1093,-8.1093,-8.0516,-7.9169,-7.8707,-7.7938,-7.663,-7.6207,-7.6015,-7.6015,-7.6015,-7.5553,-7.4707,-7.4284,-7.363,-7.2783,-7.1898,-7.1475,-7.1475,-7.1091,-7.0898,-7.0898,-7.0898,-7.0898,-7.0898,-7.0898,-7.0629,-7.0244,-7.0244,-6.9744,-6.9013,-6.9013,-6.8436,-6.7705,-6.7705,-6.7128,-6.6436,-6.6436,-6.6205,-6.5897,-6.5897,-6.5897,-6.5782,-6.532,-6.4551,-6.3628,-6.2397,-6.1435,-6.0781,-6.0781,-6.0781,-6.0781,-6.0781,-6.0781,-6.0281,-5.8627,-5.8319,-5.7203,-5.3857,-5.2856,-5.1625,-4.9163,-4.874,0.0,-4.8086,-4.9202,-4.998,-4.9942,-5.1215,-5.1693,-5.0798,0.0,0.0,-5.0965,-5.3081,-5.3811,-5.2734,-5.4765,-5.6328,-5.7187,-5.8437,-5.9492,-6.039,-6.1289,-6.1719,-6.1719,-6.1719,-6.1719,-6.1719,-6.1719,-6.1719,-6.1719,-6.1719,-6.1719,-6.1719,-6.1719,-6.1719,-6.1719,-6.1719,-6.1719,-6.1719,-8.1093,-8.1093,-8.1093,-8.1093,-8.1093,-8.1093,-8.1093,-8.1093,-8.1093,-8.1093,-8.1093,-8.1093,-8.1093,-8.1093,-8.1093,-8.1093,-8.1093,-8.0746,-7.9862,-7.8977,-7.813,-7.7323,-7.6476,-7.6015,-7.6015,-7.6015,-7.563,-7.4899,-7.4784,-7.4361,-7.3654,-7.2783,-7.2322,-7.2168,-7.1437,-7.1014,-7.0898,-7.0898,-7.0898,-7.0898,-7.0898,-7.0898,-7.0898,-7.0898,-7.0475,-6.9898,-6.9898,-6.9321,-6.859,-6.859,-6.8013,-6.7282,-6.7282,-6.6744,-6.609,-6.609,-6.6013,-6.5897,-6.5897,-6.5243,-6.4205,-6.2524,-6.1562,-6.0973,-6.0819,-6.0781,-6.0781,-6.0781,-6.0781,-6.0319,-5.8781,-5.8396,-5.6934,-5.2769,-5.2615,-5.1856,-4.8548,0.0,-4.9586,-4.9586,-5.0587,-5.1471,-5.2038,-5.3008,-5.3583,-5.3583,-5.3656,0.0,0.0,-5.4708,-5.4624,-5.3274,-5.5506,-5.7265,-5.8281,-5.9687,-6.0469,-6.0625,-6.1367,-6.1719,-6.1719,-6.1719,-6.1719,-6.1719,-6.1719,-6.1719,-6.1719,-6.1719,-6.1719,-6.1719,-6.1719,-6.1719,-6.1719,-6.1719,-6.1719,-6.1719,-8.1093,-8.1093,-8.1093,-8.1093,-8.1093,-8.1093,-8.1093,-8.1093,-8.1093,-8.1093,-8.1093,-8.1093,-8.1093,-8.1093,-8.1093,-8.1093,-8.1093,-8.0746,-7.9862,-7.8977,-7.813,-7.7323,-7.6476,-7.6015,-7.6015,-7.6015,-7.5938,-7.5784,-7.5053,-7.463,-7.4514,-7.3668,-7.2899,-7.2168,-7.2052,-7.1591,-7.0898,-7.0898,-7.0898,-7.0898,-7.0898,-7.0898,-7.0898,-7.0898,-7.0821,-7.0706,-7.0706,-7.0206,-6.9513,-6.9513,-6.8936,-6.8205,-6.8205,-6.7628,-6.6898,-6.6898,-6.6436,-6.5897,-6.5897,-6.5243,-6.4205,-6.2524,-6.1985,-6.1716,-6.0973,-6.0781,-6.0781,-6.0781,-6.0781,-6.0512,-5.9511,-5.8781,-5.7126,-5.3587,-5.25,-5.1154,0.0,0.0,-5.0519,-5.0519,-5.251,-5.3664,-5.3049,-5.382,-5.4341,-5.4341,-5.4342,-5.4407,-5.4506,-5.5994,-5.6446,-5.5609,-5.6842,-5.8341,-6.0,-6.0273,-6.0781,-6.1484,-6.164,-6.1719,-6.1719,-6.1719,-6.1719,-6.1719,-6.1719,-6.1719,-6.1719,-6.1719,-6.1719,-6.1719,-6.1719,-6.1719,-6.1719,-6.1719,-6.1719,-6.1719,-8.1093,-8.1093,-8.1093,-8.1093,-8.1093,-8.1093,-8.1093,-8.1093,-8.1093,-8.1093,-8.1093,-8.1093,-8.1093,-8.1093,-8.1093,-8.1093,-8.1093,-8.0939,-8.0516,-7.9669,-7.8823,-7.7977,-7.713,-7.6476,-7.6015,-7.6015,-7.6015,-7.6015,-7.5592,-7.5399,-7.5399,-7.4553,-7.3937,-7.3514,-7.3091,-7.2437,-7.1591,-7.1591,-7.1321,-7.0898,-7.0898,-7.0898,-7.0898,-7.0898,-7.0898,-7.0898,-7.0898,-7.0667,-7.036,-7.036,-6.9783,-6.909,-6.909,-6.8513,-6.7705,-6.7244,-6.6513,-6.5897,-6.5897,-6.5243,-6.432,-6.3051,-6.2397,-6.187,-6.1012,-6.0781,-6.0781,-6.0781,-6.0781,-6.0512,-5.9665,-5.8858,-5.7473,-5.4972,-5.3472,0.0,0.0,-5.1125,-5.1702,-5.2626,-5.378,-5.4511,-5.4549,-5.4895,-5.5164,-5.5164,-5.5588,-5.5871,-5.5943,-5.711,-5.7889,-5.8101,-5.8621,-5.9365,-6.0295,-6.0764,-6.1243,-6.1719,-6.1719,-6.1719,-6.1719,-6.1719,-6.1719,-6.1719,-6.1719,-6.1719,-6.1719,-6.1719,-6.1719,-6.1719,-6.1719,-6.1719,-6.1719,-6.1719,-6.1719,-6.1719,-8.1093,-8.1093,-8.1093,-8.1093,-8.1093,-8.1093,-8.1093,-8.1093,-8.1093,-8.1093,-8.1093,-8.1093,-8.1093,-8.1093,-8.1093,-8.1093,-8.1093,-8.1093,-8.1093,-8.0477,-7.9708,-7.8823,-7.7823,-7.6899,-7.6015,-7.6015,-7.6015,-7.6015,-7.6015,-7.6015,-7.5976,-7.5322,-7.4899,-7.4668,-7.4053,-7.3283,-7.2514,-7.2514,-7.2014,-7.1206,-7.1206,-7.1091,-7.0898,-7.0898,-7.0898,-7.0898,-7.0898,-7.0898,-7.0898,-7.0898,-7.0475,-6.9975,-6.9975,-6.9398,-6.859,-6.7898,-6.6974,-6.6128,-6.5936,-6.5397,-6.4705,-6.382,-6.2974,-6.2127,-6.1281,-6.0935,-6.0781,-6.0781,-6.0781,-6.0589,-5.9935,-5.9127,-5.8011,-5.628,0.0,0.0,0.0,-5.328,-5.3587,-5.4934,-5.5241,-5.5626,-5.6242,-5.628,-5.628,-5.628,-5.6934,-5.7291,-5.7291,-5.8127,-5.9044,-5.9987,-6.0201,-6.036,-6.0453,-6.112,-6.1507,-6.1627,-6.1627,-6.1632,-6.1638,-6.1638,-6.1678,-6.1719,-6.1719,-6.1719,-6.1719,-6.1719,-6.1719,-6.1719,-6.1719,-6.1719,-6.1719,-6.1719,-6.1719,-6.1719,-8.1093,-8.1093,-8.1093,-8.1093,-8.1093,-8.1093,-8.1093,-8.1093,-8.1093,-8.1093,-8.1093,-8.1093,-8.1093,-8.1093,-8.1093,-8.1093,-8.1093,-8.1093,-8.1093,-8.1054,-8.0631,-7.9746,-7.8169,-7.6899,-7.6015,-7.6015,-7.6015,-7.6015,-7.6015,-7.6015,-7.6015,-7.5938,-7.5476,-7.4707,-7.463,-7.4168,-7.3399,-7.3399,-7.2899,-7.2091,-7.2091,-7.1629,-7.0898,-7.0898,-7.0898,-7.0898,-7.0898,-7.0898,-7.0898,-7.0898,-7.086,-7.0821,-7.0821,-7.0244,-6.959,-6.9513,-6.8321,-6.6859,-6.609,-6.5859,-6.559,-6.4705,-6.3858,-6.3012,-6.2178,-6.1358,-6.0781,-6.0781,-6.0781,-6.0781,-6.0704,-6.0012,-5.8858,-5.7192,0.0,0.0,-5.4626,-5.5703,-5.6676,-5.6791,-5.7511,-5.805,-5.8088,-5.8127,-5.8127,-5.8127,-5.8165,-5.8204,-5.8204,-5.8973,-5.9831,-6.07,-6.1027,-6.1211,-6.1223,-6.1262,-6.1306,-6.1318,-6.1318,-6.1387,-6.1512,-6.1512,-6.158,-6.1719,-6.1719,-6.1719,-6.1719,-6.1719,-6.1719,-6.1719,-6.1719,-6.1719,-6.1719,-6.1719,-6.1719,-6.1719,-8.1093,-8.1093,-8.1093,-8.1093,-8.1093,-8.1093,-8.1093,-8.1093,-8.1093,-8.1093,-8.1093,-8.1093,-8.1093,-8.1093,-8.1093,-8.1093,-8.1093,-8.1093,-8.1093,-8.1093,-8.0477,-7.9054,-7.79,-7.6899,-7.6015,-7.6015,-7.6015,-7.6015,-7.6015,-7.6015,-7.6015,-7.6015,-7.5822,-7.5515,-7.5515,-7.5053,-7.4245,-7.4245,-7.3783,-7.3014,-7.3014,-7.2476,-7.1706,-7.1706,-7.136,-7.0898,-7.0898,-7.0898,-7.0898,-7.0898,-7.0898,-7.0898,-7.0898,-7.0706,-7.036,-6.986,-6.8475,-6.7013,-6.6744,-6.6282,-6.5705,-6.482,-6.4359,-6.3743,-6.2409,-6.1831,-6.1447,-6.0896,-6.0781,-6.0781,-6.0781,-6.0089,-5.9473,-5.9358,0.0,-5.7137,-5.755,-5.7242,-5.7214,-5.7742,-5.8088,-5.8319,-5.8319,-5.8319,-5.8319,-5.8319,-5.8781,-5.905,-5.905,-5.9858,-6.0473,-6.0781,-6.0923,-6.1018,-6.112,-6.112,-6.1179,-6.1283,-6.1283,-6.1318,-6.1369,-6.1369,-6.1392,-6.1432,-6.1432,-6.1504,-6.1577,-6.1495,-6.1504,-6.1575,-6.1495,-6.1432,-6.1432,-6.1432,-6.1432,-6.1432,-8.1093,-8.1093,-8.1093,-8.1093,-8.1093,-8.1093,-8.1093,-8.1093,-8.1093,-8.1093,-8.1093,-8.1093,-8.1093,-8.1093,-8.1093,-8.1093,-8.1093,-8.1093,-8.1093,-8.1093,-8.0439,-7.8977,-7.813,-7.7284,-7.6438,-7.613,-7.6015,-7.6015,-7.6015,-7.6015,-7.6015,-7.6015,-7.6015,-7.6015,-7.6015,-7.5668,-7.513,-7.513,-7.463,-7.3899,-7.3899,-7.336,-7.2591,-7.2591,-7.2052,-7.1321,-7.1321,-7.1129,-7.0898,-7.0898,-7.0898,-7.0898,-7.0898,-7.0898,-7.0744,-6.9937,-6.8859,-6.7859,-6.759,-6.6898,-6.6051,-6.5205,-6.4782,-6.4282,-6.3128,-6.2666,-6.2243,-6.1358,-6.1204,-6.1127,-6.0858,-6.0319,-6.0089,-6.0704,-5.9319,-5.8588,-5.9742,-5.8896,-5.8396,-5.9011,-5.9088,-5.9088,-5.9088,-5.9088,-5.9088,-5.9088,-5.9588,-5.9896,-5.9896,-6.0473,-6.0781,-6.0781,-6.0781,-6.0845,-6.0925,-6.0925,-6.1009,-6.1159,-6.1159,-6.1189,-6.1207,-6.1207,-6.124,-6.1283,-6.1283,-6.1344,-6.1417,-6.1328,-6.1344,-6.1413,-6.1328,-6.1283,-6.1283,-6.1283,-6.1283,-6.1283,-8.1093,-8.1093,-8.1093,-8.1093,-8.1093,-8.1093,-8.1093,-8.1093,-8.1093,-8.1093,-8.1093,-8.1093,-8.1093,-8.1093,-8.1093,-8.1093,-8.1093,-8.1093,-8.1093,-8.1093,-8.0708,-7.9862,-7.8977,-7.813,-7.7323,-7.6438,-7.6015,-7.6015,-7.6015,-7.6015,-7.6015,-7.6015,-7.6015,-7.6015,-7.6015,-7.6015,-7.6015,-7.6015,-7.5515,-7.4707,-7.4707,-7.4245,-7.3514,-7.3514,-7.2976,-7.2206,-7.2206,-7.1629,-7.0937,-7.0898,-7.0898,-7.0898,-7.0898,-7.0898,-7.0744,-6.9937,-6.9706,-6.9513,-6.8667,-6.7782,-6.6898,-6.609,-6.5243,-6.4628,-6.4589,-6.3935,-6.3089,-6.2293,-6.2101,-6.1831,-6.0973,-6.0781,-6.0781,-6.0781,-6.0781,-6.0781,-6.0781,-6.0781,-6.0781,-6.0781,-6.0781,-6.0781,-6.0781,-6.0781,-6.0781,-6.0781,-6.0781,-6.0781,-6.0781,-6.0781,-6.0781,-6.0781,-6.0781,-6.0781,-6.0781,-6.0781,-6.0781,-6.0781,-6.0781,-6.086,-6.0997,-6.0997,-6.1112,-6.1283,-6.1283,-6.1283,-6.1283,-6.1283,-6.1283,-6.1283,-6.1283,-6.1283,-6.1283,-6.1283,-6.1283,-6.1283,-8.1093,-8.1093,-8.1093,-8.1093,-8.1093,-8.1093,-8.1093,-8.1093,-8.1093,-8.1093,-8.1093,-8.1093,-8.1093,-8.1093,-8.1093,-8.1093,-8.1093,-8.1093,-8.1093,-8.1093,-8.0977,-8.0708,-7.9285,-7.813,-7.7323,-7.6438,-7.6015,-7.6015,-7.6015,-7.6015,-7.6015,-7.6015,-7.6015,-7.6015,-7.6015,-7.6015,-7.6015,-7.6015,-7.5861,-7.563,-7.563,-7.5091,-7.4361,-7.4361,-7.3822,-7.3129,-7.3129,-7.2937,-7.2629,-7.2014,-7.1822,-7.1706,-7.1091,-7.0898,-7.086,-7.0591,-7.0129,-6.9629,-6.9398,-6.8667,-6.7821,-6.6936,-6.6128,-6.5359,-6.4743,-6.4397,-6.3974,-6.3128,-6.2474,-6.2024,-6.1755,-6.1204,-6.0781,-6.0781,-6.0781,-6.0781,-6.0781,-6.0781,-6.0781,-6.0781,-6.0781,-6.0781,-6.0781,-6.0781,-6.0781,-6.0781,-6.0781,-6.0781,-6.0781,-6.0781,-6.0781,-6.0781,-6.0781,-6.0781,-6.0781,-6.0781,-6.0781,-6.0781,-6.0781,-6.0827,-6.0839,-6.0839,-6.0882,-6.0963,-6.0963,-6.0991,-6.1089,-6.1002,-6.0991,-6.1081,-6.0993,-6.0963,-6.0963,-6.0963,-6.0963,-6.0963,-8.1093,-8.1093,-8.1093,-8.1093,-8.1093,-8.1093,-8.1093,-8.1093,-8.1093,-8.1093,-8.1093,-8.1093,-8.1093,-8.1093,-8.1093,-8.1093,-8.1093,-8.1093,-8.1093,-8.1093,-8.1093,-8.1093,-7.9746,-7.8631,-7.7784,-7.6938,-7.6361,-7.6015,-7.6015,-7.6015,-7.6015,-7.6015,-7.6015,-7.6015,-7.6015,-7.6015,-7.6015,-7.6015,-7.6015,-7.6015,-7.6015,-7.5668,-7.5207,-7.5207,-7.4707,-7.3976,-7.3976,-7.3769,-7.3437,-7.2899,-7.2476,-7.2091,-7.1591,-7.1168,-7.0898,-7.0898,-7.0552,-7.0167,-7.0167,-6.9552,-6.8706,-6.7821,-6.6974,-6.6128,-6.532,-6.5128,-6.4859,-6.4012,-6.3435,-6.2897,-6.2216,-6.1678,-6.1204,-6.0858,-6.0781,-6.0781,-6.0781,-6.0781,-6.0781,-6.0781,-6.0781,-6.0781,-6.0781,-6.0781,-6.0781,-6.0781,-6.0781,-6.0781,-6.0781,-6.0781,-6.0781,-6.0781,-6.0781,-6.0781,-6.0781,-6.0781,-6.0781,-6.0781,-6.0781,-6.0781,-6.0781,-6.0781,-6.0781,-6.0781,-6.0781,-6.0856,-6.0915,-6.0823,-6.0856,-6.0915,-6.0823,-6.0781,-6.0781,-6.0781,-6.0781,-6.0781,-8.1093,-8.1093,-8.1093,-8.1093,-8.1093,-8.1093,-8.1093,-8.1093,-8.1093,-8.1093,-8.1093,-8.1093,-8.1093,-8.1093,-8.1093,-8.1093,-8.1093,-8.1093,-8.1093,-8.1093,-8.1093,-8.1093,-8.0323,-7.9515,-7.8631,-7.7746,-7.6899,-7.613,-7.6053,-7.6015,-7.6015,-7.6015,-7.6015,-7.6015,-7.6015,-7.6015,-7.6015,-7.6015,-7.6015,-7.6015,-7.6015,-7.6015,-7.6015,-7.6015,-7.5515,-7.4822,-7.4822,-7.4361,-7.3707,-7.363,-7.3014,-7.2283,-7.2206,-7.1668,-7.1014,-7.0937,-7.0898,-7.0898,-7.0898,-7.036,-6.959,-6.8744,-6.7859,-6.6974,-6.609,-6.5897,-6.5667,-6.4897,-6.4666,-6.4128,-6.2601,-6.2216,-6.1831,-6.105,-6.0858,-6.0781,-6.0781,-6.0781,-6.0781,-6.0781,-6.0781,-6.0781,-6.0781,-6.0781,-6.0781,-6.0781,-6.0781,-6.0781,-6.0781,-6.0781,-6.0781,-6.0781,-6.0781,-6.0781,-6.0781,-6.0781,-6.0781,-6.0781,-6.0781,-6.0781,-6.0781,-6.0781,-6.0781,-6.0781,-6.0781,-6.0781,-6.0781,-6.0781,-6.0781,-6.0781,-6.0781,-6.0781,-6.0781,-6.0781,-6.0781,-6.0781,-8.1093,-8.1093,-8.1093,-8.1093,-8.1093,-8.1093,-8.1093,-8.1093,-8.1093,-8.1093,-8.1093,-8.1093,-8.1093,-8.1093,-8.1093,-8.1093,-8.1093,-8.1093,-8.1093,-8.1093,-8.1093,-8.1093,-8.0939,-8.04,-7.9554,-7.8054,-7.7207,-7.7015,-7.6322,-7.6015,-7.6015,-7.6015,-7.6015,-7.6015,-7.6015,-7.6015,-7.6015,-7.6015,-7.6015,-7.6015,-7.6015,-7.6015,-7.6015,-7.6015,-7.5861,-7.5707,-7.5707,-7.563,-7.5361,-7.4668,-7.3899,-7.3091,-7.2399,-7.2052,-7.1783,-7.1091,-7.0898,-7.0898,-7.0898,-7.0783,-7.0437,-6.9629,-6.8744,-6.7744,-6.6244,-6.5897,-6.5859,-6.5667,-6.5089,-6.4474,-6.4128,-6.2974,-6.2062,-6.187,-6.1243,-6.0781,-6.0781,-6.0781,-6.0781,-6.0781,-6.0781,-6.0781,-6.0781,-6.0781,-6.0781,-6.0781,-6.0781,-6.0781,-6.0781,-6.0781,-6.0781,-6.0781,-6.0781,-6.0781,-6.0781,-6.0781,-6.0781,-6.0781,-6.0781,-6.0781,-6.0781,-6.0781,-6.0781,-6.0781,-6.0781,-6.0781,-6.0781,-6.0781,-6.0781,-6.0781,-6.0781,-6.0781,-6.0781,-6.0781,-6.0781,-6.0781,-8.1093,-8.1093,-8.1093,-8.1093,-8.1093,-8.1093,-8.1093,-8.1093,-8.1093,-8.1093,-8.1093,-8.1093,-8.1093,-8.1093,-8.1093,-8.1093,-8.1093,-8.1093,-8.1093,-8.1093,-8.1093,-8.1093,-8.1093,-8.09,-8.0439,-7.9169,-7.8092,-7.7284,-7.6823,-7.6399,-7.6015,-7.6015,-7.6015,-7.6015,-7.6015,-7.6015,-7.6015,-7.6015,-7.6015,-7.6015,-7.6015,-7.6015,-7.6015,-7.6015,-7.6015,-7.6015,-7.6015,-7.6015,-7.5938,-7.5476,-7.4784,-7.4014,-7.3553,-7.3129,-7.2668,-7.1783,-7.1514,-7.1437,-7.1014,-7.0898,-7.0706,-6.9898,-6.936,-6.859,-6.6859,-6.6167,-6.5897,-6.5897,-6.5551,-6.5089,-6.4666,-6.3897,-6.3012,-6.2216,-6.1716,-6.1281,-6.0858,-6.0781,-6.0781,-6.0781,-6.0781,-6.0781,-6.0781,-6.0781,-6.0781,-6.0781,-6.0781,-6.0781,-6.0781,-6.0781,-6.0781,-6.0781,-6.0781,-6.0781,-6.0781,-6.0781,-6.0781,-6.0781,-6.0781,-6.0781,-6.0781,-6.0781,-6.0781,-6.0781,-6.0781,-6.0781,-6.0781,-6.0781,-6.0781,-6.0781,-6.0781,-6.0781,-6.0781,-6.0781,-6.0781,-6.0781,-8.1093,-8.1093,-8.1093,-8.1093,-8.1093,-8.1093,-8.1093,-8.1093,-8.1093,-8.1093,-8.1093,-8.1093,-8.1093,-8.1093,-8.1093,-8.1093,-8.1093,-8.1093,-8.1093,-8.1093,-8.1093,-8.1093,-8.1093,-8.1093,-8.1093,-8.04,-7.9208,-7.7515,-7.7361,-7.6861,-7.6015,-7.6015,-7.6015,-7.6015,-7.6015,-7.6015,-7.6015,-7.6015,-7.6015,-7.6015,-7.6015,-7.6015,-7.6015,-7.6015,-7.6015,-7.6015,-7.6015,-7.6015,-7.6015,-7.6015,-7.5515,-7.4899,-7.4745,-7.4245,-7.3514,-7.2514,-7.2206,-7.2014,-7.1129,-7.0898,-7.0744,-7.0052,-6.9821,-6.9321,-6.7859,-6.6782,-6.6051,-6.5936,-6.5897,-6.5667,-6.4974,-6.4705,-6.4166,-6.2743,-6.2293,-6.187,-6.1127,-6.0896,-6.0781,-6.0781,-6.0781,-6.0781,-6.0781,-6.0781,-6.0781,-6.0781,-6.0781,-6.0781,-6.0781,-6.0781,-6.0781,-6.0781,-6.0781,-6.0781,-6.0781,-6.0781,-6.0781,-6.0781,-6.0781,-6.0781,-6.0781,-6.0781,-6.0781,-6.0781,-6.0781,-6.0781,-6.0781,-6.0781,-6.0781,-6.0781,-6.0781,-6.0781,-6.0781,-6.0781,-6.0781,-6.0781,-8.1093,-8.1093,-8.1093,-8.1093,-8.1093,-8.1093,-8.1093,-8.1093,-8.1093,-8.1093,-8.1093,-8.1093,-8.1093,-8.1093,-8.1093,-8.1093,-8.1093,-8.1093,-8.1093,-8.1093,-8.1093,-8.1093,-8.1093,-8.1093,-8.1093,-8.0977,-8.0054,-7.8323,-7.763,-7.6861,-7.6015,-7.6015,-7.6015,-7.6015,-7.6015,-7.6015,-7.6015,-7.6015,-7.6015,-7.6015,-7.6015,-7.6015,-7.6015,-7.6015,-7.6015,-7.6015,-7.6015,-7.6015,-7.6015,-7.6015,-7.5938,-7.5707,-7.4938,-7.463,-7.4245,-7.2668,-7.2206,-7.2014,-7.1129,-7.0898,-7.086,-7.0744,-7.0206,-6.9629,-6.9398,-6.809,-6.6744,-6.6051,-6.5897,-6.5859,-6.5743,-6.5128,-6.4551,-6.4282,-6.3051,-6.2062,-6.1947,-6.1293,-6.0781,-6.0781,-6.0781,-6.0781,-6.0781,-6.0781,-6.0781,-6.0781,-6.0781,-6.0781,-6.0781,-6.0781,-6.0781,-6.0781,-6.0781,-6.0781,-6.0781,-6.0781,-6.0781,-6.0781,-6.0781,-6.0781,-6.0781,-6.0781,-6.0781,-6.0781,-6.0781,-6.0781,-6.0781,-6.0781,-6.0781,-6.0781,-6.0781,-6.0781,-6.0781,-6.0781,-6.0781,-6.0781,-8.1093,-8.1093,-8.1093,-8.1093,-8.1093,-8.1093,-8.1093,-8.1093,-8.1093,-8.1093,-8.1093,-8.1093,-8.1093,-8.1093,-8.1093,-8.1093,-8.1093,-8.1093,-8.1093,-8.1093,-8.1093,-8.1093,-8.1093,-8.1093,-8.1093,-8.1093,-8.0477,-7.9246,-7.8361,-7.7553,-7.6707,-7.6245,-7.6015,-7.6015,-7.6015,-7.6015,-7.6015,-7.6015,-7.6015,-7.6015,-7.6015,-7.6015,-7.6015,-7.6015,-7.6015,-7.6015,-7.6015,-7.6015,-7.6015,-7.6015,-7.6015,-7.5938,-7.5553,-7.5438,-7.5207,-7.3976,-7.3283,-7.2745,-7.186,-7.1283,-7.0898,-7.0898,-7.0629,-7.0244,-6.9821,-6.909,-6.8167,-6.6821,-6.6205,-6.5897,-6.5897,-6.559,-6.5166,-6.4666,-6.3974,-6.3166,-6.2216,-6.1793,-6.137,-6.0858,-6.0781,-6.0781,-6.0781,-6.0781,-6.0781,-6.0781,-6.0781,-6.0781,-6.0781,-6.0781,-6.0781,-6.0781,-6.0781,-6.0781,-6.0781,-6.0781,-6.0781,-6.0781,-6.0781,-6.0781,-6.0781,-6.0781,-6.0781,-6.0781,-6.0781,-6.0781,-6.0781,-6.0781,-6.0781,-6.0781,-6.0781,-6.0781,-6.0781,-6.0781,-6.0781,-6.0781]},{"header":{"parameterUnit":"m.s-1","parameterCategory":1,"la1":30.6,"la2":28.766,"lo1":-90.7593,"lo2":-88.6598,"dy":0.0162,"dx":0.0183,"nx":116,"ny":114,"refTime":"2024-05-24T12:00:00:Z","depth":0,"parameterNumber":3,"parameterNumberName":"V-component_of_WINDS"},"data":[0.0,0.0,0.0,0.0,0.0,0.0,0.0,0.0,0.0,0.0,0.0,0.0,0.0,0.0,0.0,0.0,0.0,0.0,0.0,0.0,0.0,0.0,0.0,0.0,0.0,0.0,0.0,0.0,0.0,0.0,0.0,0.0,0.0,0.0,0.0,0.0,0.0,0.0,0.0,0.0,0.0,0.0,0.0,0.0,0.0,0.0,0.0,0.0,0.0,0.0,0.0,0.0,0.0,0.0,0.0,0.0,0.0,0.0,0.0,0.0,0.0,0.0,0.0,0.0,0.0,0.0,0.0,0.0,0.0,0.0,0.0,0.0,0.0,0.0,0.0,0.0,0.0,0.0,0.0,0.0,0.0,0.0,0.0,0.0,0.0,0.0,0.0,0.0,0.0,0.0,0.0,0.0,0.0,0.0,0.0,0.0,0.0,0.0,0.0,0.0,0.0,0.0,0.0,0.0,0.0,0.0,0.0,0.0,0.0,0.0,0.0,0.0,0.0,0.0,0.0,0.0,0.0,0.0,0.0,0.0,0.0,0.0,0.0,0.0,0.0,0.0,0.0,0.0,0.0,0.0,0.0,0.0,0.0,0.0,0.0,0.0,0.0,0.0,0.0,0.0,0.0,0.0,0.0,0.0,0.0,0.0,0.0,0.0,0.0,0.0,0.0,0.0,0.0,0.0,0.0,0.0,0.0,0.0,0.0,0.0,0.0,0.0,0.0,0.0,0.0,0.0,0.0,0.0,0.0,0.0,0.0,0.0,0.0,0.0,0.0,0.0,0.0,0.0,0.0,0.0,0.0,0.0,0.0,0.0,0.0,0.0,0.0,0.0,0.0,0.0,0.0,0.0,0.0,0.0,0.0,0.0,0.0,0.0,0.0,0.0,0.0,0.0,0.0,0.0,0.0,0.0,0.0,0.0,0.0,0.0,0.0,0.0,0.0,0.0,0.0,0.0,0.0,0.0,0.0,0.0,0.0,0.0,0.0,0.0,0.0,0.0,0.0,0.0,0.0,0.0,0.0,0.0,0.0,0.0,0.0,0.0,0.0,0.0,0.0,0.0,0.0,0.0,0.0,0.0,0.0,0.0,0.0,0.0,0.0,0.0,0.0,0.0,0.0,0.0,0.0,0.0,0.0,0.0,0.0,0.0,0.0,0.0,0.0,0.0,0.0,0.0,0.0,0.0,0.0,0.0,0.0,0.0,0.0,0.0,0.0,0.0,0.0,0.0,0.0,0.0,0.0,0.0,0.0,0.0,0.0,0.0,0.0,0.0,0.0,0.0,0.0,0.0,0.0,0.0,0.0,0.0,0.0,0.0,0.0,0.0,0.0,0.0,0.0,0.0,0.0,0.0,0.0,0.0,0.0,0.0,0.0,0.0,0.0,0.0,0.0,0.0,0.0,0.0,0.0,0.0,0.0,0.0,0.0,0.0,0.0,0.0,0.0,0.0,0.0,0.0,0.0,0.0,0.0,0.0,0.0,0.0,0.0,0.0,0.0,0.0,0.0,0.0,0.0,0.0,0.0,0.0,0.0,0.0,0.0,0.0,0.0,0.0,0.0,0.0,0.0,0.0,0.0,0.0,0.0,0.0,0.0,0.0,0.0,0.0,0.0,0.0,0.0,0.0,0.0,0.0,0.0,0.0,0.0,0.0,0.0,0.0,0.0,0.0,0.0,0.0,0.0,0.0,0.0,0.0,0.0,0.0,0.0,0.0,0.0,0.0,0.0,0.0,0.0,0.0,0.0,0.0,0.0,0.0,0.0,0.0,0.0,0.0,0.0,0.0,0.0,0.0,0.0,0.0,0.0,0.0,0.0,0.0,0.0,0.0,0.0,0.0,0.0,0.0,0.0,0.0,0.0,0.0,0.0,0.0,0.0,0.0,0.0,0.0,0.0,0.0,0.0,0.0,0.0,0.0,0.0,0.0,0.0,0.0,0.0,0.0,0.0,0.0,0.0,0.0,0.0,0.0,0.0,0.0,0.0,0.0,0.0,0.0,0.0,0.0,0.0,0.0,0.0,0.0,0.0,0.0,0.0,0.0,0.0,0.0,0.0,0.0,0.0,0.0,0.0,0.0,0.0,0.0,0.0,0.0,0.0,0.0,0.0,0.0,0.0,0.0,0.0,0.0,0.0,0.0,0.0,0.0,0.0,0.0,0.0,0.0,0.0,0.0,0.0,0.0,0.0,0.0,0.0,0.0,0.0,0.0,0.0,0.0,0.0,0.0,0.0,0.0,0.0,0.0,0.0,0.0,0.0,0.0,0.0,0.0,0.0,0.0,0.0,0.0,0.0,0.0,0.0,0.0,0.0,0.0,0.0,0.0,0.0,0.0,0.0,0.0,0.0,0.0,0.0,0.0,0.0,0.0,0.0,0.0,0.0,0.0,0.0,0.0,0.0,0.0,0.0,0.0,0.0,0.0,0.0,0.0,0.0,0.0,0.0,0.0,0.0,0.0,0.0,0.0,0.0,0.0,0.0,0.0,0.0,0.0,0.0,0.0,0.0,0.0,0.0,0.0,0.0,0.0,0.0,0.0,0.0,0.0,0.0,0.0,0.0,0.0,0.0,0.0,0.0,0.0,0.0,0.0,0.0,0.0,0.0,0.0,0.0,0.0,0.0,0.0,0.0,0.0,0.0,0.0,0.0,0.0,0.0,0.0,0.0,0.0,0.0,0.0,0.0,0.0,0.0,0.0,0.0,0.0,0.0,0.0,0.0,0.0,0.0,0.0,0.0,0.0,0.0,0.0,0.0,0.0,0.0,0.0,0.0,0.0,0.0,0.0,0.0,0.0,0.0,0.0,0.0,0.0,0.0,0.0,0.0,0.0,0.0,0.0,0.0,0.0,0.0,0.0,0.0,0.0,0.0,0.0,0.0,0.0,0.0,0.0,0.0,0.0,0.0,0.0,0.0,0.0,0.0,0.0,0.0,0.0,0.0,0.0,0.0,0.0,0.0,0.0,0.0,0.0,0.0,0.0,0.0,0.0,0.0,0.0,0.0,0.0,0.0,0.0,0.0,0.0,0.0,0.0,0.0,0.0,0.0,0.0,0.0,0.0,0.0,0.0,0.0,0.0,0.0,0.0,0.0,0.0,0.0,0.0,0.0,0.0,0.0,0.0,0.0,0.0,0.0,0.0,0.0,0.0,0.0,0.0,0.0,0.0,0.0,0.0,0.0,0.0,0.0,0.0,0.0,0.0,0.0,0.0,0.0,0.0,0.0,0.0,0.0,0.0,0.0,0.0,0.0,0.0,0.0,0.0,0.0,0.0,0.0,0.0,0.0,0.0,0.0,0.0,0.0,0.0,0.0,0.0,0.0,0.0,0.0,0.0,0.0,0.0,0.0,0.0,0.0,0.0,0.0,0.0,0.0,0.0,0.0,0.0,0.0,0.0,0.0,0.0,0.0,0.0,0.0,0.0,0.0,0.0,0.0,0.0,0.0,0.0,0.0,0.0,0.0,0.0,0.0,0.0,0.0,0.0,0.0,0.0,0.0,0.0,0.0,0.0,0.0,0.0,0.0,0.0,0.0,0.0,0.0,0.0,0.0,0.0,0.0,0.0,0.0,0.0,0.0,0.0,0.0,0.0,0.0,0.0,0.0,0.0,0.0,0.0,0.0,0.0,0.0,0.0,0.0,0.0,0.0,0.0,0.0,0.0,0.0,0.0,0.0,0.0,0.0,0.0,0.0,0.0,0.0,0.0,0.0,0.0,0.0,0.0,0.0,0.0,0.0,0.0,0.0,0.0,0.0,0.0,0.0,0.0,0.0,0.0,0.0,0.0,0.0,0.0,0.0,0.0,0.0,0.0,0.0,0.0,0.0,0.0,0.0,0.0,0.0,0.0,0.0,0.0,0.0,0.0,0.0,0.0,0.0,0.0,0.0,0.0,0.0,0.0,0.0,0.0,0.0,0.0,0.0,0.0,0.0,0.0,0.0,0.0,0.0,0.0,0.0,0.0,0.0,0.0,0.0,0.0,0.0,0.0,0.0,0.0,0.0,0.0,0.0,0.0,0.0,0.0,0.0,0.0,0.0,0.0,0.0,0.0,0.0,0.0,0.0,0.0,0.0,0.0,0.0,0.0,0.0,0.0,0.0,0.0,0.0,0.0,0.0,0.0,0.0,0.0,0.0,0.0,0.0,0.0,0.0,0.0,0.0,0.0,0.0,0.0,0.0,0.0,0.0,0.0,0.0,0.0,0.0,0.0,0.0,0.0,0.0,0.0,0.0,0.0,0.0,0.0,0.0,0.0,0.0,0.0,0.0,0.0,0.0,0.0,0.0,0.0,0.0,0.0,0.0,0.0,0.0,0.0,0.0,0.0,0.0,0.0,0.0,0.0,0.0,0.0,0.0,0.0,0.0,0.0,0.0,0.0,0.0,0.0,0.0,0.0,0.0,0.0,0.0,0.0,0.0,0.0,0.0,0.0,0.0,0.0,0.0,0.0,0.0,0.0,0.0,0.0,0.0,0.0,0.0,0.0,0.0,0.0,0.0,0.0,0.0,0.0,0.0,0.0,0.0,0.0,0.0,0.0,0.0,0.0,0.0,0.0,0.0,0.0,0.0,0.0,0.0,0.0,0.0,0.0,0.0,0.0,0.0,0.0,0.0,0.0,0.0,0.0,0.0,0.0,0.0,0.0,0.0,0.0,0.0,0.0,0.0,0.0,0.0,0.0,0.0,0.0,0.0,0.0,0.0,0.0,0.0,0.0,0.0,0.0,0.0,0.0,0.0,0.0,0.0,0.0,0.0,0.0,0.0,0.0,0.0,0.0,0.0,0.0,0.0,0.0,0.0,0.0,0.0,0.0,0.0,0.0,0.0,0.0,0.0,0.0,0.0,0.0,0.0,0.0,0.0,0.0,0.0,0.0,0.0,0.0,0.0,0.0,0.0,0.0,0.0,0.0,0.0,0.0,0.0,0.0,0.0,0.0,0.0,0.0,0.0,0.0,0.0,0.0,0.0,0.0,0.0,0.0,0.0,0.0,0.0,0.0,0.0,0.0,0.0,0.0,0.0,0.0,0.0,0.0,0.0,0.0,0.0,0.0,0.0,0.0,0.0,0.0,0.0,0.0,0.0,0.0,0.0,0.0,0.0,0.0,0.0,0.0,0.0,0.0,0.0,0.0,0.0,0.0,0.0,0.0,0.0,0.0,0.0,0.0,0.0,0.0,0.0,0.0,0.0,0.0,0.0,0.0,0.0,0.0,0.0,0.0,0.0,0.0,0.0,0.0,0.0,0.0,0.0,0.0,0.0,0.0,0.0,0.0,0.0,0.0,0.0,0.0,0.0,0.0,0.0,0.0,0.0,0.0,0.0,0.0,0.0,0.0,0.0,0.0,0.0,0.0,0.0,0.0,0.0,0.0,0.0,0.0,0.0,0.0,0.0,0.0,0.0,0.0,0.0,0.0,0.0,0.0,0.0,0.0,0.0,0.0,0.0,0.0,0.0,0.0,0.0,0.0,0.0,0.0,0.0,0.0,0.0,0.0,0.0,0.0,0.0,0.0,0.0,0.0,0.0,0.0,0.0,0.0,0.0,0.0,0.0,0.0,0.0,0.0,0.0,0.0,0.0,0.0,0.0,0.0,0.0,0.0,0.0,0.0,0.0,0.0,0.0,0.0,0.0,0.0,0.0,0.0,0.0,0.0,0.0,0.0,0.0,0.0,0.0,0.0,0.0,0.0,0.0,0.0,0.0,0.0,0.0,0.0,0.0,0.0,0.0,0.0,0.0,0.0,0.0,0.0,0.0,0.0,0.0,0.0,0.0,0.0,0.0,0.0,0.0,0.0,0.0,0.0,0.0,0.0,0.0,0.0,0.0,0.0,0.0,0.0,0.0,0.0,0.0,0.0,0.0,0.0,0.0,0.0,0.0,0.0,0.0,0.0,0.0,0.0,0.0,0.0,0.0,0.0,0.0,0.0,0.0,0.0,0.0,0.0,0.0,0.0,0.0,0.0,0.0,0.0,0.0,0.0,0.0,0.0,0.0,0.0,0.0,0.0,0.0,0.0,0.0,0.0,0.0,0.0,0.0,0.0,0.0,0.0,0.0,0.0,0.0,0.0,0.0,0.0,0.0,0.0,0.0,0.0,0.0,0.0,-0.9578,0.0,0.0,0.0,0.0,0.0,0.0,0.0,0.0,0.0,0.0,0.0,0.0,0.0,0.0,0.0,0.0,0.0,0.0,0.0,0.0,0.0,0.0,0.0,0.0,0.0,0.0,0.0,0.0,0.0,0.0,0.0,0.0,0.0,0.0,0.0,0.0,0.0,-0.0403,-0.1199,-0.1907,-0.3015,-0.4453,-0.4952,-0.4737,-0.3908,0.0,0.0,0.0,0.0,0.0,0.0,0.0,0.0,0.0,0.0,0.0,0.0,0.0,0.0,0.0,0.0,0.0,0.0,0.0,0.0,0.0,0.0,0.0,0.0,0.0,0.0,0.0,0.0,0.0,0.0,0.0,0.0,0.0,0.0,0.0,0.0,0.0,0.0,0.0,0.0,0.0,0.0,0.0,0.0,0.0,0.0,0.0,0.0,0.0,0.0,0.0,0.0,0.0,0.0,0.0,0.0,0.0,0.0,0.0,0.0,0.0,0.0,0.0,0.0,0.0,0.0,0.0,0.0,0.0,0.0,0.0,-0.9992,0.0,0.0,0.0,0.0,0.0,0.0,0.0,0.0,0.0,0.0,0.0,0.0,0.0,0.0,0.0,0.0,0.0,0.0,0.0,0.0,0.0,0.0,0.0,0.0,0.0,0.0,0.0,0.0,0.0,0.0,0.0,0.0,0.0,0.0,0.0,-0.0231,-0.1095,-0.252,-0.3061,-0.4725,-0.7404,-0.8525,-0.7654,-0.5209,-0.5979,0.0,0.0,0.0,0.0,0.0,0.0,0.0,0.0,0.0,0.0,0.0,0.0,0.0,0.0,0.0,0.0,0.0,0.0,0.0,0.0,0.0,0.0,0.0,0.0,0.0,0.0,0.0,0.0,0.0,0.0,0.0,0.0,0.0,0.0,0.0,0.0,0.0,0.0,0.0,0.0,0.0,0.0,0.0,0.0,0.0,0.0,0.0,0.0,0.0,0.0,0.0,0.0,0.0,0.0,0.0,0.0,0.0,0.0,0.0,0.0,0.0,0.0,0.0,0.0,-1.2054,-1.2481,-1.2379,-1.2406,-1.2467,-1.1443,-1.1124,-1.1323,0.0,0.0,0.0,0.0,0.0,0.0,0.0,0.0,0.0,0.0,0.0,0.0,0.0,0.0,0.0,0.0,0.0,0.0,0.0,0.0,0.0,0.0,0.0,0.0,0.0,0.0,0.0,0.0,0.0,0.0,0.0,0.0,0.0,0.0,-0.124,-0.2128,-0.2517,-0.538,-0.7666,-0.9433,-0.9573,-0.9453,-0.9052,-0.8545,-0.7709,-0.6631,0.0,0.0,0.0,0.0,0.0,0.0,0.0,0.0,0.0,0.0,0.0,0.0,0.0,0.0,0.0,0.0,0.0,0.0,0.0,0.0,0.0,0.0,0.0,0.0,0.0,0.0,0.0,0.0,0.0,0.0,0.0,0.0,0.0,0.0,0.0,0.0,0.0,0.0,0.0,0.0,0.0,-0.8479,-0.9002,0.0,0.0,0.0,0.0,0.0,0.0,0.0,0.0,0.0,0.0,0.0,0.0,0.0,0.0,-1.2047,-1.2603,-1.2854,-1.282,-1.3288,-1.3424,-1.3261,-1.337,-1.3431,-1.3437,-1.3146,0.0,-1.1898,-1.1253,0.0,0.0,0.0,0.0,0.0,0.0,0.0,0.0,0.0,0.0,0.0,0.0,0.0,0.0,0.0,0.0,0.0,0.0,0.0,0.0,0.0,0.0,0.0,0.0,0.0,0.0,0.0,0.0,0.0,0.0,-0.074,-0.1108,-0.1108,-0.2693,-0.4159,-0.5484,-0.8027,-0.9665,-1.0395,-1.0534,-1.0575,-1.0555,-1.0148,-0.9248,-0.8083,-0.7547,0.0,0.0,0.0,0.0,0.0,0.0,0.0,0.0,0.0,0.0,0.0,0.0,0.0,0.0,0.0,0.0,0.0,0.0,0.0,0.0,0.0,0.0,0.0,0.0,0.0,0.0,0.0,0.0,0.0,0.0,0.0,0.0,0.0,0.0,0.0,0.0,0.0,0.0,0.0,-0.8438,-0.9089,-0.9374,-0.9503,-0.9411,0.0,0.0,0.0,0.0,0.0,0.0,0.0,0.0,0.0,-1.1898,-1.221,-1.2549,-1.2908,-1.3254,-1.3485,-1.3587,-1.3844,-1.3946,-1.3905,-1.3973,-1.4007,-1.4,-1.3933,-1.3634,-1.3125,-1.2271,-1.1701,-1.1314,0.0,0.0,0.0,0.0,0.0,-1.0412,0.0,0.0,0.0,0.0,0.0,0.0,0.0,0.0,0.0,0.0,0.0,0.0,0.0,0.0,0.0,0.0,0.0,0.0,0.0,0.0,0.0,0.0,-0.1264,-0.1819,-0.1501,-0.36,-0.5946,-0.8493,-0.9993,-1.0873,-1.1063,-1.1131,-1.1255,-1.1212,-1.107,-1.0361,-0.9357,-0.8893,-0.7975,-0.6696,0.0,0.0,0.0,0.0,0.0,0.0,0.0,0.0,0.0,0.0,0.0,0.0,0.0,0.0,0.0,0.0,0.0,0.0,0.0,0.0,0.0,0.0,0.0,0.0,0.0,0.0,0.0,0.0,0.0,0.0,0.0,0.0,0.0,0.0,0.0,0.0,0.0,-0.9117,-0.9666,-0.9815,-1.0161,-1.0243,0.0,0.0,0.0,0.0,0.0,0.0,-1.1664,-1.1938,-1.2345,-1.2827,-1.3064,-1.3329,-1.3627,-1.3743,-1.3912,-1.4129,-1.4129,-1.419,-1.4299,-1.4299,-1.4299,-1.4299,-1.4299,-1.4238,-1.4061,-1.3159,-1.2596,-1.2312,-1.1708,-1.1396,0.0,-1.1355,-1.1348,-1.1355,0.0,0.0,0.0,0.0,0.0,0.0,0.0,0.0,0.0,0.0,0.0,0.0,0.0,0.0,0.0,0.0,0.0,0.0,0.0,0.0,0.0,0.0,-0.1261,-0.1391,-0.0147,-0.3575,-0.7006,-1.0395,-1.0712,-1.1084,-1.1369,-1.1226,-1.124,-1.1375,-1.1219,-1.1036,-1.0732,-1.0059,-0.9476,-0.887,-0.7083,0.0,0.0,0.0,0.0,0.0,0.0,0.0,0.0,0.0,0.0,0.0,0.0,0.0,0.0,0.0,0.0,0.0,0.0,0.0,0.0,0.0,0.0,0.0,0.0,0.0,0.0,0.0,0.0,0.0,0.0,0.0,0.0,0.0,0.0,0.0,0.0,0.0,0.0,-1.0432,-1.0968,0.0,0.0,0.0,0.0,-1.1301,-1.1721,-1.2237,-1.292,-1.2895,-1.3173,-1.3756,-1.379,-1.3946,-1.4251,-1.4265,-1.4272,-1.4285,-1.4285,-1.4292,-1.4299,-1.4299,-1.4299,-1.4299,-1.4299,-1.4299,-1.4251,-1.377,-1.3315,-1.2881,-1.2562,-1.2257,-1.2006,-1.2013,-1.2101,-1.223,0.0,0.0,0.0,0.0,0.0,0.0,0.0,0.0,0.0,0.0,0.0,0.0,0.0,0.0,0.0,0.0,0.0,0.0,0.0,0.0,0.0,0.0,-0.1291,-0.2826,-0.4548,-0.7165,-0.9252,-1.0785,-1.1084,-1.1335,-1.1538,-1.1484,-1.1484,-1.1538,-1.1484,-1.1375,-1.1185,-1.0432,-0.991,-0.9444,-0.7529,-0.6273,0.0,0.0,0.0,0.0,0.0,0.0,0.0,0.0,0.0,0.0,0.0,0.0,0.0,0.0,0.0,0.0,0.0,0.0,0.0,0.0,0.0,0.0,0.0,0.0,0.0,0.0,0.0,0.0,0.0,0.0,0.0,0.0,0.0,0.0,0.0,0.0,0.0,-1.145,-1.1945,0.0,-1.1816,-1.1932,-1.2128,-1.2379,-1.2637,-1.2996,-1.3498,-1.362,-1.3817,-1.4129,-1.4136,-1.4231,-1.4434,-1.4346,-1.4346,-1.4434,-1.4346,-1.4299,-1.4299,-1.4299,-1.4299,-1.4299,-1.4299,-1.4299,-1.4285,-1.4129,-1.3912,-1.3634,-1.3234,-1.3017,-1.2901,-1.2712,-1.2678,-1.2725,0.0,0.0,0.0,0.0,0.0,0.0,0.0,0.0,0.0,0.0,0.0,0.0,0.0,0.0,0.0,0.0,0.0,0.0,0.0,0.0,0.0,0.0,-0.1463,-0.4086,-0.8088,-0.9182,-1.0116,-1.1097,-1.1348,-1.1518,-1.1619,-1.1619,-1.1619,-1.1619,-1.1619,-1.1565,-1.143,-1.0887,-1.0419,-0.9923,-0.8538,-0.7508,-0.6613,0.0,0.0,0.0,0.0,0.0,0.0,0.0,0.0,0.0,0.0,0.0,0.0,0.0,0.0,0.0,0.0,0.0,0.0,0.0,0.0,0.0,0.0,0.0,0.0,0.0,0.0,0.0,0.0,0.0,0.0,0.0,0.0,0.0,0.0,0.0,-1.1572,-1.2081,-1.2623,-1.2874,-1.2678,-1.2793,-1.2983,-1.3241,-1.339,-1.3627,-1.3973,-1.4095,-1.4197,-1.4299,-1.4346,-1.4414,-1.4509,-1.4468,-1.4496,-1.4584,-1.4441,-1.4373,-1.4373,-1.4319,-1.4299,-1.4299,-1.4299,-1.4299,-1.4299,-1.4299,-1.4238,-1.4116,-1.3763,-1.3566,-1.3451,-1.3261,-1.3152,-1.3105,0.0,0.0,0.0,0.0,0.0,0.0,0.0,0.0,0.0,0.0,0.0,0.0,0.0,0.0,0.0,0.0,0.0,0.0,0.0,0.0,0.0,0.0,-0.18,-0.5112,-1.0022,-0.9127,-0.9511,-1.1389,-1.1552,-1.1626,-1.1626,-1.1626,-1.1626,-1.1626,-1.1619,-1.1619,-1.1606,-1.1457,-1.105,-1.0487,-1.0188,-0.9045,-0.7352,0.0,0.0,0.0,0.0,0.0,0.0,0.0,0.0,0.0,0.0,0.0,0.0,0.0,0.0,0.0,0.0,0.0,0.0,0.0,0.0,0.0,0.0,0.0,0.0,0.0,0.0,0.0,0.0,0.0,0.0,0.0,0.0,0.0,-1.0724,-1.1389,-1.1979,-1.2291,-1.2976,-1.3308,-1.303,-1.3397,-1.3709,-1.3844,-1.3994,-1.4143,-1.4292,-1.4306,-1.4306,-1.4306,-1.4441,-1.4523,-1.4523,-1.4665,-1.474,-1.4746,-1.4584,-1.4509,-1.4509,-1.4367,-1.4299,-1.4299,-1.4299,-1.4299,-1.4299,-1.4299,-1.4299,-1.4285,-1.4129,-1.3892,-1.3634,-1.3634,-1.3532,-1.3376,0.0,0.0,0.0,0.0,0.0,0.0,0.0,0.0,0.0,0.0,0.0,0.0,0.0,0.0,0.0,0.0,0.0,0.0,0.0,0.0,0.0,0.0,-0.3062,-0.545,-0.6853,-0.932,-1.0842,-1.1389,-1.1647,-1.1775,-1.1775,-1.1775,-1.1775,-1.1769,-1.1667,-1.1619,-1.1606,-1.1457,-1.1233,-1.0873,-0.9151,-0.8048,-0.7125,0.0,0.0,0.0,0.0,0.0,0.0,0.0,0.0,0.0,0.0,0.0,0.0,0.0,0.0,0.0,0.0,0.0,0.0,0.0,0.0,0.0,0.0,0.0,0.0,0.0,0.0,0.0,0.0,0.0,0.0,0.0,0.0,-1.1199,-1.1348,-1.2013,-1.2678,-1.32,-1.3634,-1.3899,-1.3926,-1.4041,-1.4129,-1.417,-1.4211,-1.4258,-1.4299,-1.4394,-1.4455,-1.4455,-1.4597,-1.4733,-1.4841,-1.4774,-1.4794,-1.4903,-1.4638,-1.4509,-1.4509,-1.4367,-1.4299,-1.4299,-1.4299,-1.4299,-1.4299,-1.4299,-1.4299,-1.4285,-1.4129,-1.3953,-1.377,-1.3668,-1.3532,-1.3376,0.0,0.0,0.0,0.0,0.0,0.0,0.0,0.0,0.0,0.0,0.0,0.0,0.0,0.0,0.0,0.0,0.0,0.0,0.0,0.0,-0.0348,-0.1109,-0.3197,-0.5163,-0.6806,-0.903,-1.0657,-1.1579,-1.1748,-1.1864,-1.1925,-1.1864,-1.183,-1.1823,-1.1681,-1.1619,-1.1613,-1.1525,-1.1396,-1.1018,-0.811,-0.7215,-0.738,-0.461,-0.303,-0.208,-0.0556,0.0,-0.0162,-0.113,0.0,0.0,0.0,0.0,0.0,0.0,0.0,0.0,0.0,0.0,0.0,0.0,0.0,0.0,0.0,0.0,0.0,0.0,0.0,0.0,0.0,0.0,0.0,0.0,-1.128,-1.1884,-1.2223,-1.2644,-1.3112,-1.3654,-1.3926,-1.4129,-1.4285,-1.4299,-1.4299,-1.4299,-1.4299,-1.4299,-1.4299,-1.4434,-1.4509,-1.4509,-1.4726,-1.4882,-1.497,-1.4943,-1.497,-1.5059,-1.4753,-1.4604,-1.4597,-1.4394,-1.4299,0.0,-1.4299,-1.4299,-1.4299,-1.4299,-1.4299,0.0,0.0,0.0,0.0,0.0,-1.3532,-1.339,0.0,0.0,0.0,0.0,0.0,0.0,0.0,0.0,0.0,0.0,0.0,0.0,0.0,0.0,0.0,0.0,0.0,0.0,0.0,0.0,-0.0737,-0.2295,-0.2578,-0.4341,-0.7813,-0.8328,-0.9523,-1.1457,-1.1703,-1.1938,-1.2088,-1.1945,-1.187,-1.185,-1.1708,-1.1633,-1.1619,-1.1619,-1.1375,-1.0786,-0.7431,-0.6731,-0.7484,-0.5525,-0.3794,-0.2201,-0.0604,0.0,0.0,-0.0225,0.0,0.0,0.0,0.0,0.0,0.0,0.0,0.0,0.0,0.0,0.0,0.0,0.0,0.0,0.0,0.0,0.0,0.0,0.0,0.0,0.0,0.0,0.0,0.0,-1.187,-1.2542,-1.3119,-1.3227,-1.3403,-1.3817,-1.4,-1.415,-1.4285,-1.4299,-1.4299,-1.4299,-1.4299,-1.4306,-1.4326,0.0,0.0,0.0,0.0,-1.4997,-1.4997,-1.512,-1.5181,-1.5181,-1.4882,-1.474,-1.4726,-1.4434,-1.4299,-1.4299,-1.4299,-1.4299,-1.4299,-1.4299,-1.4299,-1.4299,-1.4278,-1.4183,-1.4014,-1.3729,-1.3532,0.0,0.0,0.0,0.0,0.0,0.0,0.0,0.0,0.0,0.0,0.0,0.0,0.0,0.0,0.0,0.0,0.0,0.0,0.0,0.0,0.0,-0.0128,-0.0526,-0.2059,-0.3245,-0.3987,-0.7044,-0.8956,-0.9465,-1.1205,-1.2094,-1.2244,-1.2216,-1.2135,-1.2013,-1.1857,-1.1728,-1.1619,-1.1619,-1.0599,-0.8965,-0.8243,-0.7186,-0.5708,-0.2338,-0.0857,-0.0456,-0.0128,0.0,-0.0192,-0.1551,-0.1758,-0.1779,-0.3717,-0.4568,0.0,0.0,0.0,0.0,0.0,0.0,0.0,0.0,0.0,0.0,0.0,0.0,0.0,0.0,0.0,0.0,0.0,0.0,0.0,-1.1769,-1.2311,-1.2813,-1.3288,-1.3559,-1.379,-1.4,-1.4163,-1.4265,-1.4299,-1.4299,-1.4299,-1.4299,-1.4299,-1.4346,-1.4462,-1.4611,0.0,-1.4875,-1.5052,-1.514,-1.514,-1.5167,-1.5181,-1.5181,0.0,0.0,-1.4726,-1.4434,-1.4299,-1.4299,-1.4299,-1.4299,-1.4299,-1.4299,-1.4299,-1.4285,-1.4163,-1.4021,-1.3865,-1.3695,-1.3532,-1.3403,0.0,0.0,0.0,0.0,0.0,0.0,0.0,0.0,0.0,0.0,0.0,0.0,0.0,0.0,0.0,0.0,0.0,0.0,0.0,0.0,0.0,0.0,-0.0912,-0.1933,-0.288,-0.4805,-0.6856,-0.9027,-1.0122,-1.1251,-1.2393,-1.2244,-1.2135,-1.2128,-1.1823,-1.1687,-1.1548,-1.0593,-0.9538,-0.8448,-0.6508,-0.5128,-0.4032,-0.2093,-0.0803,0.0,0.0,0.0,-0.0133,-0.0973,-0.1085,-0.1379,-0.4004,-0.445,-0.4096,0.0,0.0,0.0,0.0,0.0,0.0,0.0,0.0,0.0,0.0,0.0,0.0,0.0,0.0,-1.0148,0.0,0.0,-1.1728,-1.24,-1.2759,-1.3105,-1.3559,-1.3749,-1.3899,-1.4055,-1.4204,-1.4299,-1.4299,-1.4299,-1.4299,-1.4299,-1.4299,-1.436,-1.4502,-1.4658,-1.4808,-1.4964,-1.5106,-1.5181,-1.5181,-1.5181,-1.5147,-1.5072,-1.4848,-1.4699,-1.4618,-1.4401,-1.4299,-1.4299,-1.4299,-1.4299,-1.4299,-1.4299,-1.4299,-1.4292,-1.4217,-1.4041,-1.3831,-1.3763,-1.3593,-1.3403,0.0,0.0,0.0,0.0,0.0,0.0,0.0,0.0,0.0,0.0,0.0,0.0,0.0,0.0,0.0,0.0,0.0,0.0,0.0,0.0,0.0,0.0,0.0,-0.0721,-0.2327,-0.2719,-0.4601,-0.8029,-0.8356,-0.9687,-1.1908,-1.1674,-1.1707,-1.2054,-1.1411,-1.1063,-1.0887,-0.8997,-0.7907,-0.7292,-0.414,-0.2703,-0.2319,-0.2225,-0.1277,0.0,0.0,0.0,0.0,0.0,0.0,-0.0512,-0.3362,-0.3635,-0.3104,-0.4027,-0.4557,0.0,0.0,0.0,0.0,0.0,0.0,0.0,0.0,-0.951,-0.9774,-1.032,-1.0588,-1.0995,-1.1633,-1.1993,-1.2379,-1.2956,-1.3146,-1.3363,-1.3783,-1.3838,-1.3885,-1.4014,-1.419,-1.4299,-1.4299,-1.4299,-1.4299,-1.4299,-1.4326,-1.4407,-1.455,-1.4699,-1.4855,-1.5011,-1.512,-1.5181,-1.5181,-1.5181,-1.5113,-1.497,-1.4814,-1.4658,-1.4509,-1.4367,-1.4299,-1.4299,-1.4299,-1.4299,-1.4299,-1.4299,-1.4299,-1.4299,-1.4299,-1.4109,-1.3838,-1.3838,-1.3654,-1.3403,0.0,0.0,0.0,0.0,0.0,0.0,0.0,0.0,0.0,0.0,0.0,0.0,0.0,0.0,0.0,0.0,0.0,0.0,0.0,0.0,0.0,0.0,0.0,-0.0073,-0.0292,-0.2041,-0.3225,-0.3786,-0.5481,-0.7519,-0.9764,-0.9579,-1.0428,-1.2054,-1.0098,-0.9165,-0.892,-0.6966,-0.5155,-0.3503,-0.3079,-0.1861,-0.0337,-0.0337,-0.0202,0.0,0.0,0.0,0.0,0.0,0.0,-0.0316,-0.2139,-0.3536,-0.4252,-0.311,-0.3661,-0.4086,-0.1047,-0.2464,-0.5423,-0.8399,-0.9305,-0.9774,0.0,0.0,-1.0738,-1.1321,-1.1681,-1.1952,-1.2176,-1.2454,-1.2807,-1.3275,-1.3363,-1.3485,-1.3797,-1.3838,-1.3844,-1.3865,-1.4122,-1.4299,-1.4299,-1.4299,-1.4299,-1.4299,-1.4414,-1.4557,-1.4706,-1.4862,-1.5011,-1.5153,-1.5174,-1.5181,-1.5181,-1.5181,-1.5113,-1.497,-1.4814,-1.4658,-1.4509,-1.4367,-1.4299,-1.4299,-1.4299,-1.4299,-1.4299,-1.4299,-1.4299,-1.4299,-1.4299,-1.4109,-1.3838,-1.3838,-1.3654,-1.3403,0.0,0.0,0.0,0.0,0.0,0.0,0.0,0.0,0.0,0.0,0.0,0.0,0.0,0.0,0.0,0.0,0.0,0.0,0.0,0.0,0.0,0.0,0.0,0.0,0.0,-0.0808,-0.1845,-0.3113,-0.39,-0.5443,-0.7591,-0.7381,-0.7787,-0.8489,-0.7504,-0.7075,-0.6894,-0.4939,-0.3651,-0.2799,-0.1681,-0.0758,0.0,0.0,0.0,0.0,0.0,0.0,0.0,0.0,0.0,-0.0308,-0.2047,-0.2995,-0.3339,-0.2799,-0.364,-0.4777,-0.4562,-0.5525,-0.7101,-0.9633,-1.0473,-1.0758,-1.1192,-1.1335,-1.1463,-1.1809,-1.2047,-1.2291,-1.2623,-1.2779,-1.301,0.0,-1.3532,-1.3607,-1.381,-1.3838,-1.381,-1.3729,-1.3905,-1.4068,-1.4156,-1.4245,-1.4299,-1.4299,-1.4353,-1.4455,-1.4597,-1.4753,-1.4903,-1.5052,-1.514,-1.5181,-1.5181,-1.5181,-1.5065,-1.4835,-1.4767,-1.4618,-1.4387,-1.4326,-1.4299,-1.4299,-1.4299,-1.4299,-1.4299,-1.4299,-1.4299,-1.4292,-1.4204,-1.4034,-1.3838,-1.3838,-1.3654,-1.3403,0.0,0.0,0.0,0.0,0.0,0.0,0.0,0.0,0.0,0.0,0.0,0.0,0.0,0.0,0.0,0.0,0.0,0.0,0.0,0.0,0.0,0.0,0.0,0.0,0.0,0.0,-0.0739,-0.2214,-0.2243,-0.3306,-0.54,-0.52,-0.5471,-0.5987,-0.5329,-0.5002,-0.484,-0.2893,-0.2068,-0.1949,-0.0558,0.0,0.0,0.0,0.0,0.0,0.0,0.0,0.0,0.0,0.0,-0.0236,-0.1546,-0.2178,-0.2435,-0.2034,-0.3039,-0.4626,-0.651,-0.7463,-0.8426,-1.0389,-1.1233,-1.1525,-1.1565,-1.1775,-1.1999,-1.2149,-1.2305,-1.2508,-1.2834,-1.2963,-1.3152,-1.3559,-1.3661,-1.3722,-1.3824,-1.3804,-1.3729,-1.3587,-1.3654,-1.3777,-1.3933,-1.4122,-1.4251,-1.4299,-1.434,-1.4407,-1.4509,-1.4699,-1.4855,-1.497,-1.5106,-1.5181,-1.5181,-1.5181,-1.5031,-1.474,-1.474,-1.4584,-1.4299,-1.4299,-1.4299,-1.4299,-1.4299,-1.4299,-1.4299,-1.4299,-1.4299,-1.4285,-1.4129,-1.398,-1.3838,-1.3797,-1.362,-1.3403,0.0,0.0,0.0,0.0,0.0,0.0,0.0,0.0,0.0,0.0,0.0,0.0,0.0,0.0,0.0,0.0,0.0,0.0,0.0,0.0,0.0,0.0,0.0,0.0,0.0,0.0,0.0,-0.0073,-0.0074,-0.1189,-0.3189,-0.3039,-0.4073,-0.591,-0.3871,-0.2958,-0.2854,-0.0929,-0.0071,-0.0069,0.0,0.0,0.0,0.0,0.0,0.0,0.0,0.0,0.0,0.0,0.0,0.0,-0.0055,-0.1219,-0.2205,-0.0535,-0.1242,-0.2933,-0.471,-0.6675,-0.8736,-1.0461,-1.1318,-1.1857,-1.2006,-1.2162,-1.2318,-1.2461,-1.261,-1.2718,-1.2732,-1.2969,-1.3268,-1.358,-1.3743,-1.3838,-1.3838,-1.3722,-1.358,-1.3424,-1.341,-1.3478,0.0,-1.3905,-1.4143,-1.4292,-1.4428,-1.4509,-1.4509,-1.4801,-1.4964,-1.497,-1.5106,-1.5181,-1.5181,-1.5181,-1.5031,-1.474,-1.474,-1.4584,-1.4299,-1.4299,-1.4299,-1.4299,-1.4299,-1.4299,-1.4299,-1.4299,-1.4299,-1.4285,-1.4129,-1.398,-1.3738,-1.3688,-1.3539,-1.3403,0.0,0.0,0.0,0.0,0.0,0.0,0.0,0.0,0.0,0.0,0.0,0.0,0.0,0.0,0.0,0.0,0.0,0.0,0.0,0.0,0.0,0.0,0.0,0.0,0.0,0.0,0.0,0.0,0.0,-0.0358,-0.1072,-0.1,-0.1358,-0.1998,-0.128,-0.0991,-0.0917,-0.0282,0.0,0.0,0.0,0.0,0.0,0.0,0.0,0.0,0.0,0.0,0.0,0.0,0.0,0.0,0.0,-0.0375,-0.0972,-0.1626,-0.2248,-0.3406,-0.6543,-0.802,-0.9187,-1.1175,-1.1911,-1.2176,-1.2318,-1.2318,-1.2305,-1.2352,-1.2244,-1.2162,-1.2271,-1.2454,-1.2745,-1.3247,-1.3539,-1.377,-1.3966,-1.3953,-1.379,-1.3444,-1.3492,0.0,0.0,0.0,0.0,-1.4143,-1.4285,-1.4373,-1.4373,-1.4557,-1.4713,-1.4814,-1.4964,-1.5086,-1.5181,-1.5181,-1.5031,-1.474,-1.4543,-1.4394,-1.4299,-1.4299,-1.4299,-1.4299,-1.4299,-1.4299,-1.4299,-1.4299,-1.4299,-1.4278,-1.4021,-1.3885,-1.381,-1.3566,-1.3444,-1.3403,0.0,0.0,0.0,0.0,0.0,0.0,0.0,0.0,0.0,0.0,0.0,0.0,0.0,0.0,0.0,0.0,0.0,0.0,0.0,0.0,0.0,0.0,0.0,0.0,0.0,0.0,0.0,0.0,0.0,0.0,0.0,0.0,0.0,0.0,0.0,0.0,0.0,0.0,0.0,0.0,0.0,0.0,0.0,0.0,0.0,0.0,0.0,0.0,0.0,0.0,0.0,0.0,0.0,0.0,-0.0224,-0.1414,-0.2718,-0.4409,-0.691,-0.8753,-1.0329,-1.1817,-1.2257,-1.2379,-1.242,-1.2311,-1.2196,-1.2135,-1.1884,-1.1721,-1.1877,-1.1986,-1.2264,-1.2908,-1.3268,-1.3587,-1.3939,-1.3987,-1.3885,-1.3593,-1.36,-1.3607,0.0,0.0,0.0,-1.4075,-1.4211,-1.4299,-1.4299,-1.4434,-1.4557,-1.4658,-1.4862,-1.4991,-1.5025,-1.5079,-1.4957,-1.4658,-1.4414,-1.4299,-1.4299,-1.4299,-1.4299,-1.4299,-1.4299,-1.4299,-1.4299,-1.4299,-1.4299,-1.4272,-1.396,-1.3838,-1.3804,-1.3512,-1.3403,-1.3403,0.0,0.0,0.0,0.0,0.0,0.0,0.0,0.0,0.0,0.0,0.0,0.0,0.0,0.0,0.0,0.0,0.0,0.0,0.0,0.0,0.0,0.0,0.0,0.0,0.0,0.0,0.0,0.0,0.0,0.0,0.0,0.0,0.0,0.0,0.0,0.0,0.0,0.0,0.0,0.0,0.0,0.0,0.0,0.0,0.0,0.0,0.0,0.0,0.0,0.0,0.0,0.0,0.0,-0.0057,-0.0123,-0.0124,-0.2795,-0.5852,-0.6096,-0.8941,-1.1925,-1.223,-1.2393,-1.2454,-1.2311,-1.2155,-1.1993,-1.1823,-1.1552,-1.1382,0.0,0.0,-1.1823,-1.2556,-1.2956,-1.3336,-1.379,-1.3858,-1.3865,0.0,0.0,0.0,0.0,0.0,0.0,-1.4075,0.0,-1.4299,-1.4299,-1.4428,-1.4502,-1.4509,-1.4794,-1.4882,-1.474,-1.4875,-1.4801,-1.4509,-1.4367,-1.4299,-1.4299,-1.4299,-1.4299,-1.4299,-1.4299,-1.4299,-1.4299,-1.4299,-1.4299,-1.4272,-1.396,-1.3838,-1.3804,-1.3512,-1.3403,-1.3403,0.0,0.0,0.0,0.0,0.0,0.0,0.0,0.0,0.0,0.0,0.0,0.0,0.0,0.0,0.0,0.0,0.0,0.0,0.0,0.0,0.0,0.0,0.0,0.0,0.0,0.0,0.0,0.0,0.0,0.0,0.0,0.0,0.0,0.0,0.0,0.0,0.0,0.0,0.0,0.0,0.0,0.0,0.0,0.0,0.0,0.0,0.0,0.0,0.0,0.0,0.0,0.0,0.0,-0.1005,-0.211,-0.2013,-0.4855,-0.8059,-0.8148,-1.0145,-1.2216,-1.24,-1.2393,-1.2305,-1.2155,-1.1918,-1.1626,-1.1184,-1.0934,-1.0629,-1.0331,0.0,0.0,-1.1816,-1.2617,0.0,-1.3933,-1.4109,0.0,-1.4027,-1.398,-1.3926,-1.3844,-1.398,0.0,0.0,-1.4211,-1.4299,-1.4299,-1.4333,-1.4401,-1.4509,-1.459,-1.4665,-1.474,-1.4665,-1.459,-1.4509,-1.4367,-1.4299,-1.4299,-1.4299,-1.4299,-1.4299,-1.4299,-1.4299,-1.4299,-1.4299,-1.4299,-1.4272,-1.396,-1.3838,-1.3804,-1.3512,-1.3403,-1.3403,0.0,0.0,0.0,0.0,0.0,0.0,0.0,0.0,0.0,0.0,0.0,0.0,0.0,0.0,0.0,0.0,0.0,0.0,0.0,0.0,0.0,0.0,0.0,0.0,0.0,0.0,0.0,0.0,0.0,0.0,0.0,0.0,0.0,0.0,0.0,0.0,0.0,0.0,0.0,0.0,0.0,0.0,0.0,0.0,0.0,0.0,0.0,0.0,0.0,0.0,0.0,0.0,0.0,-0.1388,-0.2762,-0.1789,-0.448,-0.7774,-0.7818,-0.9428,-1.125,-1.2342,-1.2393,-1.2115,-1.183,-1.098,-1.0247,-1.0365,-0.964,-0.9118,-0.9553,-1.008,-1.0663,0.0,0.0,0.0,-1.3777,-1.4061,-1.419,0.0,-1.417,0.0,-1.4048,-1.4122,-1.417,0.0,-1.4251,-1.4299,-1.4299,-1.4299,-1.434,-1.4414,-1.4482,-1.455,-1.4638,-1.4489,-1.4421,-1.4421,-1.434,-1.4299,-1.4299,-1.4299,-1.4299,-1.4299,0.0,-1.4299,-1.4299,-1.4299,-1.4299,-1.4272,-1.396,-1.3838,-1.3804,-1.3512,-1.3403,-1.3403,0.0,0.0,0.0,0.0,0.0,0.0,0.0,0.0,0.0,0.0,0.0,0.0,0.0,0.0,0.0,0.0,0.0,0.0,0.0,0.0,0.0,0.0,0.0,0.0,0.0,0.0,0.0,0.0,0.0,0.0,0.0,0.0,0.0,0.0,0.0,0.0,0.0,0.0,0.0,0.0,0.0,0.0,0.0,0.0,0.0,0.0,0.0,0.0,0.0,0.0,0.0,0.0,0.0,-0.1421,-0.2685,-0.0583,-0.3004,-0.6253,-0.6095,-0.7657,-0.9856,-1.1748,-1.2129,-1.1911,-1.1224,-0.9677,-0.8578,-0.9056,-0.8024,-0.7442,-0.88,-0.9432,-1.008,-1.0962,0.0,-1.2583,-1.3498,-1.3865,-1.4102,-1.4278,-1.4299,-1.4299,-1.4299,-1.4299,-1.4299,-1.4299,-1.4299,-1.4299,-1.4299,-1.4299,-1.4299,-1.4299,-1.4421,-1.4482,-1.4482,-1.436,-1.4299,-1.4299,-1.4299,-1.4299,-1.4299,-1.4299,-1.4299,-1.4299,0.0,0.0,-1.4299,-1.4299,-1.4299,-1.4272,-1.396,-1.3838,-1.3804,-1.3512,-1.3403,-1.3403,0.0,0.0,0.0,0.0,0.0,0.0,0.0,0.0,0.0,0.0,0.0,0.0,0.0,0.0,0.0,0.0,0.0,0.0,0.0,0.0,0.0,0.0,0.0,0.0,0.0,0.0,0.0,0.0,0.0,0.0,0.0,0.0,0.0,0.0,0.0,0.0,0.0,0.0,0.0,0.0,0.0,0.0,0.0,0.0,0.0,0.0,0.0,0.0,0.0,0.0,0.0,0.0,0.0,-0.1353,-0.2547,-0.0605,-0.2853,-0.5705,-0.4115,-0.6511,-0.944,-0.974,-1.0824,-1.1352,-0.955,-0.8734,-0.7854,-0.612,-0.6389,-0.6972,-0.7002,-0.8445,-0.9897,-1.067,-1.1531,-1.2461,-1.3485,-1.3777,-1.3987,0.0,-1.4299,-1.4299,-1.4299,-1.4299,0.0,0.0,0.0,0.0,-1.4299,-1.4299,-1.4299,-1.4299,-1.4326,-1.434,-1.434,-1.4312,-1.4299,-1.4299,-1.4299,-1.4299,-1.4299,-1.4299,-1.4299,-1.4299,0.0,0.0,-1.4299,-1.4299,-1.4299,-1.4272,-1.396,-1.3838,-1.3804,-1.3512,-1.3403,-1.3403,0.0,0.0,0.0,0.0,0.0,0.0,0.0,0.0,0.0,0.0,0.0,0.0,0.0,0.0,0.0,0.0,0.0,0.0,0.0,0.0,0.0,0.0,0.0,0.0,0.0,0.0,0.0,0.0,0.0,0.0,0.0,0.0,0.0,0.0,0.0,0.0,0.0,0.0,0.0,0.0,0.0,0.0,0.0,0.0,0.0,0.0,0.0,0.0,0.0,0.0,0.0,0.0,0.0,-0.1362,-0.2635,-0.0605,-0.2095,-0.4275,-0.3447,-0.466,-0.6404,-0.7512,-0.8965,-0.9567,-0.7469,-0.691,-0.6353,-0.4871,-0.4425,-0.4733,-0.6009,-0.7313,-0.8617,-0.9921,-1.0833,-1.1755,-1.2881,-1.3241,-1.358,-1.4116,-1.4251,-1.4299,-1.4299,-1.4299,0.0,0.0,0.0,0.0,-1.4299,-1.4299,-1.4299,-1.4299,-1.4299,-1.4299,-1.4299,-1.4299,-1.4299,-1.4299,-1.4299,-1.4299,-1.4299,-1.4299,-1.4299,-1.4299,0.0,0.0,-1.4299,-1.4299,-1.4299,-1.4272,-1.396,-1.3838,-1.3804,-1.3512,-1.3403,-1.3403,0.0,0.0,0.0,0.0,0.0,0.0,0.0,0.0,0.0,0.0,0.0,0.0,0.0,0.0,0.0,0.0,0.0,0.0,0.0,0.0,0.0,0.0,0.0,0.0,0.0,0.0,0.0,0.0,0.0,0.0,0.0,0.0,0.0,0.0,0.0,0.0,0.0,0.0,0.0,0.0,0.0,0.0,0.0,0.0,0.0,0.0,0.0,0.0,0.0,0.0,0.0,0.0,0.0,-0.1116,-0.2104,-0.0448,-0.1156,-0.2459,-0.257,-0.2822,-0.3542,-0.5311,-0.7113,-0.7879,-0.5414,-0.5121,-0.5002,-0.359,-0.2628,-0.2664,-0.4813,-0.6104,-0.7321,-0.8966,-1.0006,-1.1063,-1.2325,-1.2766,-1.3241,-1.3987,-1.4204,0.0,-1.4299,-1.4299,0.0,0.0,0.0,0.0,0.0,-1.4299,-1.4299,-1.4299,-1.4299,-1.4299,-1.4299,-1.4299,-1.4299,-1.4299,-1.4299,-1.4299,-1.4299,-1.4299,-1.4299,-1.4299,0.0,0.0,0.0,-1.4299,-1.4278,-1.4224,-1.3946,-1.3824,-1.3763,-1.3498,-1.3403,-1.3403,0.0,0.0,0.0,0.0,0.0,0.0,0.0,0.0,0.0,0.0,0.0,0.0,0.0,0.0,0.0,0.0,0.0,0.0,0.0,0.0,0.0,0.0,0.0,0.0,0.0,0.0,0.0,0.0,0.0,0.0,0.0,0.0,0.0,0.0,0.0,0.0,0.0,0.0,0.0,0.0,0.0,0.0,0.0,0.0,0.0,0.0,0.0,0.0,0.0,0.0,0.0,0.0,0.0,-0.0129,-0.0212,-0.0073,-0.015,0.0,-0.0314,-0.1665,-0.3097,-0.3182,-0.5907,-0.7579,-0.393,-0.4313,-0.4418,-0.1056,-0.1227,-0.2129,-0.247,-0.4721,-0.6876,-0.7791,-0.9274,-1.0833,-1.2298,-1.2766,-1.3241,-1.3987,0.0,0.0,-1.4299,0.0,0.0,0.0,0.0,0.0,0.0,-1.4299,-1.4299,-1.4299,-1.4299,-1.4299,-1.4299,-1.4299,-1.4299,-1.4299,-1.4299,-1.4299,-1.4299,-1.4299,-1.4299,-1.4299,0.0,0.0,0.0,-1.4299,-1.4217,-1.4075,-1.3905,-1.3763,-1.3627,-1.3464,-1.3403,-1.3403,0.0,0.0,0.0,0.0,0.0,0.0,0.0,0.0,0.0,0.0,0.0,0.0,0.0,0.0,0.0,0.0,0.0,0.0,0.0,0.0,0.0,0.0,0.0,0.0,0.0,0.0,0.0,0.0,0.0,0.0,0.0,0.0,0.0,0.0,0.0,0.0,0.0,0.0,0.0,0.0,0.0,0.0,0.0,0.0,0.0,0.0,0.0,0.0,0.0,0.0,0.0,0.0,0.0,0.0,0.0,0.0,0.0,0.0,0.0,-0.063,-0.1191,-0.1163,-0.3124,-0.4345,-0.1719,-0.2515,-0.3052,-0.052,-0.0406,-0.1061,-0.1931,-0.3096,-0.4638,-0.6797,-0.7816,-0.9057,-1.0993,-1.1633,-1.2257,-1.3281,-1.3614,0.0,0.0,0.0,0.0,0.0,0.0,0.0,0.0,-1.4299,-1.4299,-1.4299,-1.4299,-1.4299,-1.4299,-1.4299,-1.4299,-1.4299,-1.4299,-1.4299,-1.4299,-1.4299,-1.4299,-1.4299,0.0,0.0,0.0,-1.4299,-1.4211,-1.4055,-1.3899,-1.3756,-1.3607,-1.3458,-1.3403,-1.3403,0.0,0.0,0.0,0.0,0.0,0.0,0.0,0.0,0.0,0.0,0.0,0.0,0.0,0.0,0.0,0.0,0.0,0.0,0.0,0.0,0.0,0.0,0.0,0.0,0.0,0.0,0.0,0.0,0.0,0.0,0.0,0.0,0.0,0.0,0.0,0.0,0.0,0.0,0.0,0.0,0.0,0.0,0.0,0.0,0.0,0.0,0.0,0.0,0.0,0.0,0.0,0.0,0.0,0.0,0.0,0.0,0.0,0.0,0.0,0.0,0.0,0.0,-0.1395,-0.2217,-0.044,-0.1421,-0.2185,-0.036,0.0,-0.0303,-0.121,-0.1833,-0.286,-0.5082,-0.6381,-0.776,-0.9638,-1.067,-1.1626,0.0,0.0,0.0,0.0,0.0,0.0,0.0,0.0,0.0,0.0,-1.4299,-1.4299,-1.4299,-1.4299,-1.4299,-1.4299,-1.4299,-1.4299,-1.4299,-1.4299,-1.4299,-1.4299,-1.4299,-1.4299,0.0,0.0,0.0,0.0,-1.4299,-1.4183,-1.3994,-1.3885,-1.3729,-1.3546,-1.3444,-1.3403,-1.3403,0.0,0.0,0.0,0.0,0.0,0.0,0.0,0.0,0.0,0.0,0.0,0.0,0.0,0.0,0.0,0.0,0.0,0.0,0.0,0.0,0.0,0.0,0.0,0.0,0.0,0.0,0.0,0.0,0.0,0.0,0.0,0.0,0.0,0.0,0.0,0.0,0.0,0.0,0.0,0.0,0.0,0.0,0.0,0.0,0.0,0.0,0.0,0.0,0.0,0.0,0.0,0.0,0.0,0.0,0.0,0.0,0.0,0.0,0.0,0.0,0.0,0.0,-0.1358,-0.2254,-0.0433,-0.141,-0.2185,-0.036,0.0,0.0,0.0,-0.1109,-0.2101,-0.2484,-0.5094,-0.7434,-0.8388,-1.0197,-1.1667,0.0,0.0,0.0,0.0,0.0,0.0,0.0,0.0,0.0,0.0,0.0,-1.4299,-1.4299,-1.4299,-1.4299,-1.4299,-1.4299,-1.4299,-1.4299,-1.4299,-1.4299,-1.4299,-1.4299,0.0,0.0,0.0,0.0,0.0,-1.4299,-1.4122,-1.3844,-1.3838,-1.3661,-1.3403,-1.3403,-1.3403,-1.3403,0.0,0.0,0.0,0.0,0.0,0.0,0.0,0.0,0.0,0.0,0.0,0.0,0.0,0.0,0.0,0.0,0.0,0.0,0.0,0.0,0.0,0.0,0.0,0.0,0.0,0.0,0.0,0.0,0.0,0.0,0.0,0.0,0.0,0.0,0.0,0.0,0.0,0.0,0.0,0.0,0.0,0.0,0.0,0.0,0.0,0.0,0.0,0.0,0.0,0.0,0.0,0.0,0.0,0.0,0.0,0.0,0.0,0.0,0.0,0.0,0.0,0.0,-0.0457,-0.0694,-0.0117,-0.0452,-0.071,-0.0102,0.0,0.0,0.0,-0.0353,-0.0983,-0.2119,-0.3215,-0.4843,-0.7404,0.0,0.0,-1.2126,0.0,0.0,0.0,0.0,0.0,0.0,0.0,0.0,0.0,0.0,-1.4299,-1.4299,-1.4299,-1.4299,-1.4299,-1.4299,-1.4299,-1.4299,-1.4299,-1.4299,-1.4299,-1.4299,0.0,0.0,0.0,0.0,0.0,-1.419,-1.4027,-1.3831,-1.3736,-1.3573,-1.3403,-1.3403,-1.3403,-1.3383,0.0,0.0,0.0,0.0,0.0,0.0,0.0,0.0,0.0,0.0,0.0,0.0,0.0,0.0,0.0,0.0,0.0,0.0,0.0,0.0,0.0,0.0,0.0,0.0,0.0,0.0,0.0,0.0,0.0,0.0,0.0,0.0,0.0,0.0,0.0,0.0,0.0,0.0,0.0,0.0,0.0,0.0,0.0,0.0,0.0,0.0,0.0,0.0,0.0,0.0,0.0,0.0,0.0,0.0,0.0,0.0,0.0,0.0,0.0,0.0,0.0,0.0,0.0,0.0,0.0,0.0,0.0,0.0,0.0,0.0,0.0,0.0,-0.031,-0.1215,-0.1989,-0.3485,0.0,0.0,0.0,0.0,0.0,0.0,0.0,0.0,0.0,0.0,0.0,0.0,0.0,0.0,-1.4299,-1.4299,-1.4299,-1.4299,-1.4299,-1.4299,-1.4299,-1.4299,-1.4299,-1.4299,-1.4299,0.0,0.0,0.0,0.0,0.0,0.0,-1.4048,-1.3899,-1.3749,-1.3661,-1.3539,-1.3403,-1.3403,-1.3403,-1.3376,0.0,0.0,0.0,0.0,0.0,0.0,0.0,0.0274,0.0235,0.0146,0.0147,0.01,0.0,0.0,0.0,0.0,0.0,0.0,0.0,0.0,0.0,0.0,0.0,0.0,0.0,0.0,0.0,0.0,0.0,0.0,0.0,0.0,0.0,0.0,0.0,0.0,0.0,0.0,0.0,0.0,0.0,0.0,0.0,0.0,0.0,0.0,0.0,0.0,0.0,0.0,0.0,0.0,0.0,0.0,0.0,0.0,0.0,0.0,0.0,0.0,0.0,0.0,0.0,0.0,0.0,0.0,0.0,0.0,0.0,0.0,0.0,0.0,0.0,0.0,-0.1327,-0.307,0.0,-0.7464,0.0,0.0,0.0,0.0,0.0,0.0,0.0,0.0,0.0,0.0,0.0,0.0,0.0,-1.4299,-1.4299,-1.4299,-1.4299,-1.4299,-1.4299,-1.4299,-1.4299,-1.4299,-1.4299,0.0,0.0,0.0,0.0,0.0,0.0,-1.3892,-1.3749,-1.3627,-1.3614,-1.3526,-1.3403,-1.3403,-1.3397,-1.3363,0.0,0.0,0.0,0.0,0.0,0.0,0.0,0.0,0.0,0.0,0.136,0.1041,0.0102,0.0,0.0,0.0,0.0,0.0,0.0,0.0,0.0,0.0,0.0,0.0,0.0,0.0,0.0,0.0,0.0,0.0,0.0,0.0,0.0,0.0,0.0,0.0,0.0,0.0,0.0,0.0,0.0,0.0,0.0,0.0,0.0,0.0,0.0,0.0,0.0,0.0,0.0,0.0,0.0,0.0,0.0,0.0,0.0,0.0,0.0,0.0,0.0,0.0,0.0,0.0,0.0,0.0,0.0,0.0,0.0,0.0,0.0,0.0,0.0,0.0,-0.0303,-0.1733,-0.5112,0.0,0.0,0.0,0.0,0.0,0.0,0.0,0.0,0.0,0.0,0.0,0.0,0.0,0.0,-1.4299,-1.4299,-1.4299,-1.4299,-1.4299,-1.4299,-1.4299,-1.4299,-1.4299,-1.4299,0.0,0.0,0.0,0.0,0.0,0.0,-1.3736,-1.3661,-1.3614,-1.3498,-1.3431,-1.3403,-1.3403,-1.3329,-1.3207,0.0,0.0,0.0,0.0,0.0,0.0,0.0,0.0,0.0,0.0,0.0,0.1564,0.1006,0.0353,0.0,0.0,0.0,0.0,0.0,0.0,0.0,0.0,0.0,0.0,0.0,0.0,0.0,0.0,0.0,0.0,0.0,0.0,0.0,0.0,0.0,0.0,0.0,0.0,0.0,0.0,0.0,0.0,0.0,0.0,0.0,0.0,0.0,0.0,0.0,0.0,0.0,0.0,0.0,0.0,0.0,0.0,0.0,0.0,0.0,0.0,0.0,0.0,0.0,0.0,0.0,0.0,0.0,0.0,0.0,0.0,0.0,0.0,0.0,0.0,-0.0738,0.0,0.0,0.0,0.0,0.0,0.0,0.0,0.0,0.0,0.0,0.0,0.0,0.0,0.0,0.0,0.0,0.0,-1.4299,-1.4299,-1.4299,-1.4299,-1.4299,-1.4299,-1.4231,-1.4197,-1.419,0.0,0.0,0.0,0.0,0.0,-1.3729,-1.3587,-1.3526,-1.3519,-1.3431,-1.3403,-1.339,-1.3322,-1.3241,-1.3146,0.0,0.0,0.0,0.0,0.0,0.0,0.0,0.0,0.0,0.0,0.0,0.0,0.0,0.0,0.0,0.0,0.0,0.0,0.0,0.0,0.0,0.0,0.0,0.0,0.0,0.0,0.0,0.0,0.0,0.0,0.0,0.0,0.0,0.0,0.0,0.0,0.0,0.0,0.0,0.0,0.0,0.0,0.0,0.0,0.0,0.0,0.0,0.0,0.0,0.0,0.0,0.0,0.0,0.0,0.0,0.0,0.0,0.0,0.0,0.0,0.0,0.0,0.0,0.0,0.0,0.0,0.0,0.0,0.0,0.0,0.0,0.0,0.0,0.0,0.0,0.0,0.0,0.0,0.0,0.0,0.0,0.0,0.0,0.0,0.0,0.0,0.0,0.0,0.0,0.0,0.0,0.0,-1.4055,-1.4231,-1.4231,-1.4251,-1.4265,-1.4265,-1.4109,-1.4034,-1.4034,-1.3878,0.0,0.0,0.0,0.0,-1.3587,-1.3451,-1.3403,-1.3403,-1.3403,-1.339,-1.3349,-1.322,-1.3146,-1.3064,0.0,0.0,0.0,0.0,0.0,0.0,0.0,0.0,0.0,0.0,0.0,0.0,0.0,0.0,0.0,0.0,0.0,0.0,0.0,0.0,0.0,0.0,0.0,0.0,0.0,0.0,0.0,0.0,0.0,0.0,0.0,0.0,0.0,0.0,0.0,0.0,0.0,0.0,0.0,0.0,0.0,0.0,0.0,0.0,0.0,0.0,0.0,0.0,0.0,0.0,0.0,0.0,0.0,0.0,0.0,0.0,0.0,0.0,0.0,0.0,0.0,0.0,0.0,0.0,0.0,0.0,0.0,0.0,0.0,0.0,0.0,0.0,0.0,0.0,0.0,0.0,0.0,0.0,0.0,0.0,0.0,0.0,0.0,0.0,0.0,0.0,0.0,0.0,0.0,0.0,0.0,0.0,0.0,-1.3912,-1.3912,-1.4041,-1.4109,-1.4102,-1.3953,-1.3878,-1.3871,-1.3729,-1.3661,0.0,0.0,0.0,-1.3437,-1.341,-1.3403,-1.3403,-1.3403,-1.3322,-1.3207,-1.318,-1.301,-1.2773,0.0,0.0,0.0,0.0,0.0,0.0,0.0,0.0,0.0,0.0,0.0,0.0,0.0,0.0,0.0,0.0,0.0,0.0,0.0,0.0,0.0,0.0,0.0,0.0,0.0,0.0,0.0,0.0,0.0,0.0,0.0,0.0,0.0,0.0,0.0,0.0,0.0,0.0,0.0,0.0,0.0,0.0,0.0,0.0,0.0,0.0,0.0,0.0,0.0,0.0,0.0,0.0,0.0,0.0,0.0,0.0,0.0,0.0,0.0,0.0,0.0,0.0,0.0,0.0,0.0,0.0,0.0,0.0,0.0,0.0,0.0,0.0,-0.0317,-0.1398,0.0,0.0,0.0,0.0,0.0,0.0,0.0,0.0,0.0,0.0,0.0,0.0,0.0,0.0,0.0,0.0,0.0,0.0,0.0,0.0,-1.3838,-1.3838,-1.3871,-1.3946,-1.3797,-1.3729,-1.3722,-1.3573,-1.3505,0.0,0.0,-1.3403,-1.3403,-1.3403,-1.3349,-1.3275,-1.3275,-1.3186,-1.3051,-1.2963,-1.2793,-1.2596,0.0,0.0,0.0,0.0,0.0,0.0,0.0,0.0,0.0,0.0,0.0,0.0,0.0,0.0,0.0,0.0,0.0,0.0,0.0,0.0,0.0,0.0,0.0,0.0,0.0,0.0,0.0,0.0,0.0,0.0,0.0,0.0,0.0,0.0,0.0,0.0,0.0,0.0,0.0,0.0,0.0,0.0,0.0,0.0,0.0,0.0,0.0,0.0,0.0,0.0,0.0,0.0,0.0,0.0,0.0,0.0,0.0,0.0,0.0,0.0,0.0,0.0,0.0,0.0,0.0,0.0,0.0,0.0,0.0,0.0,0.0,0.0,0.0,-0.1976,0.0,0.0,0.0,0.0,0.0,0.0,0.0,0.0,0.0,0.0,0.0,0.0,0.0,0.0,0.0,0.0,0.0,0.0,0.0,0.0,-1.2964,-1.2861,-1.3134,-1.379,-1.3648,-1.3573,-1.3573,-1.3451,-1.3403,-1.3403,-1.3403,-1.3376,-1.3349,-1.3349,-1.3261,-1.3125,-1.3125,-1.3037,-1.2888,-1.2732,-1.2603,-1.2501,0.0,0.0,0.0,0.0,0.0,0.0,0.0,0.0,0.0,0.0,0.0,0.0,0.0,0.0,0.0,0.0,0.0,0.0,0.0,0.0,0.0,0.0,0.0,0.0,0.0,0.0,0.0,0.0,0.0,0.0,0.0,0.0,0.0,0.0,0.0,0.0,0.0,0.0,0.0,0.0,0.0,0.0,0.0,0.0,0.0,0.0,0.0,0.0,0.0,0.0,0.0,0.0,0.0,0.0,0.0,0.0,0.0,0.0,0.0,0.0,0.0,0.0,0.0,0.0,0.0,0.0,0.0,0.0,0.0,0.0,0.0,0.0,-0.0072,0.0,0.0,0.0,0.0,0.0,0.0,0.0,0.0,0.0,0.0,0.0,0.0,0.0,0.0,0.0,0.0,0.0,0.0,0.0,0.0,0.0,-1.032,-1.0398,-1.1467,-1.3641,-1.3492,-1.3417,-1.3417,-1.3403,-1.3403,-1.3403,-1.3403,-1.3322,-1.3186,-1.3186,-1.3105,-1.2976,-1.2976,-1.2881,-1.2725,-1.2576,-1.2508,-1.2501,0.0,0.0,0.0,0.0,0.0,0.0,0.0,0.0,0.0,0.0,0.0,0.0,0.0,0.0,0.0,0.0,0.0,0.0,0.0,0.0,0.0,0.0,0.0,0.0,0.0,0.0,0.0,0.0,0.0,0.0,0.0,0.0,0.0,0.0,0.0,0.0,0.0,0.0,0.0,0.0,0.0,0.0,0.0,0.0,0.0,0.0,0.0,0.0,0.0,0.0,0.0,0.0,0.0,0.0,0.0,0.0,0.0,0.0,0.0,0.0,0.0,0.0,0.0,0.0,0.0,0.0,0.0,0.0,0.0,0.0,0.0,0.0,0.0,0.0,0.0,0.0,0.0,0.0,0.0,0.0,0.0,0.0,0.0,0.0,0.0,0.0,0.0,0.0,0.0,0.0,0.0,0.0,0.0,0.0,0.0,-0.9373,-1.0487,-1.1455,-1.2752,-1.3403,-1.3403,-1.3403,-1.3349,-1.3261,-1.3261,-1.3173,-1.3044,-1.3044,-1.2956,-1.2807,-1.2712,-1.2637,-1.2583,-1.2522,-1.2501,-1.2501,0.0,0.0,0.0,0.0,0.0,0.0,0.0,0.0,0.0,0.0,0.0,0.0,0.0,0.0,0.0,0.0,0.0,0.0,0.0,0.0,0.0,0.0,0.0,0.0,0.0,0.0,0.0,0.0,0.0,0.0,0.0,0.0,0.0,0.0,0.0,0.0,0.0,0.0,0.0,0.0,0.0,0.0,0.0,0.0,0.0,0.0,0.0,0.0,0.0,0.0,0.0,0.0,0.0,0.0,0.0,0.0,0.0,0.0,0.0,0.0,0.0,0.0,0.0,0.0,0.0,0.0,0.0,0.0,0.0,0.0,0.0,0.0,0.0,0.0,0.0,0.0,0.0,0.0,0.0,0.0,0.0,0.0,0.0,0.0,0.0,0.0,0.0,0.0,0.0,0.0,0.0,0.0,0.0,0.0,0.0,-0.7128,-0.8284,-0.9026,-1.0601,-1.2035,-1.3329,-1.3281,-1.3207,-1.3105,-1.3105,-1.3024,-1.2888,-1.2888,-1.28,-1.2651,-1.2542,-1.2501,-1.2501,-1.2501,-1.2501,-1.2494,0.0,0.0,0.0,0.0,0.0,0.0,0.0,0.0,0.0,0.0,0.0,0.0,0.0,0.0,0.0,0.0,0.0,0.0,0.0,0.0,0.0,0.0,0.0,0.0,0.0,0.0,0.0,0.0,0.0,0.0,0.0,0.0,0.0,0.0,0.0,0.0,0.0,0.0,0.0,0.0,0.0,0.0,0.0,0.0,0.0,0.0,0.0,0.0,0.0,0.0,0.0,0.0,0.0,0.0,0.0,0.0,0.0,0.0,0.0,0.0,0.0,0.0,0.0,0.0,0.0,0.0,0.0,0.0,0.0,0.0,0.0,0.0,0.0,0.0,0.0,0.0,0.0,0.0,0.0,0.0,0.0,0.0,0.0,0.0,0.0,0.0,0.0,0.0,0.0,0.0,0.0,0.0,0.0,0.0,0.0,-0.3406,-0.4538,-0.6637,-0.6718,-0.895,-1.3166,-1.3024,-1.2963,-1.3043,-1.3043,-1.2868,-1.2725,-1.2646,-1.2559,-1.2501,-1.2424,-1.2424,-1.2424,-1.2424,-1.2501,-1.2481,0.0,0.0,0.0,0.0,0.0,0.0,0.0,0.0,0.0,0.0,0.0,0.0,0.0,0.0,0.0,0.0,0.0,0.0,0.0,0.0,0.0,0.0,0.0,0.0,0.0,0.0,0.0,0.0,0.0,0.0,0.0,0.0,0.0,0.0,0.0,0.0,0.0,0.0,0.0,0.0,0.0,0.0,0.0,0.0,0.0,0.0,0.0,0.0,0.0,0.0,0.0,0.0,0.0,0.0,0.0,0.0,0.0,0.0,0.0,0.0,0.0,0.0,0.0,0.0,0.0,0.0,0.0,0.0,0.0,0.0,0.0,0.0,0.0,0.0,0.0,0.0,0.0,0.0,0.0,0.0,0.0,0.0,0.0,0.0,0.0,0.0,0.0,0.0,0.0,0.0,0.0,0.0,0.0,0.0,0.0,0.0,-0.3649,-0.4376,-0.586,-0.8042,-1.0809,-1.0775,-1.1518,-1.28,-1.28,-1.2712,-1.2414,-1.0993,-1.0342,-1.0153,-0.8672,-0.8128,-0.8283,-0.9765,-1.0252,-1.0403,0.0,0.0,0.0,0.0,0.0,0.0,0.0,0.0,0.0,0.0,0.2515,0.1511,0.0,0.0,0.0,0.0,0.0,0.0,0.0,0.0,0.0,0.0,0.0,0.0,0.0,0.0,0.0,0.0,0.0,0.0,0.0,0.0,0.0,0.0,0.0,0.0,0.0,0.0,0.0,0.0,0.0,0.0,0.0,0.0,0.0,0.0,0.0,0.0,0.0,0.0,0.0,0.0,0.0,0.0,0.0,0.0,0.0,0.0,0.0,0.0,0.0,0.0,0.0,0.0,0.0,0.0,0.0,0.0,0.0,0.0,0.0,0.0,0.0,0.0,0.0,0.0,0.0,0.0,0.0,0.0,0.0,0.0,0.0,0.0,0.0,0.0,0.0,0.0,0.0,0.0,0.0,0.0,0.0,0.0,0.0,0.0,0.0,-0.2081,-0.3335,-0.5076,-0.7179,-0.8057,-0.906,-1.0185,-1.0185,-1.0146,-0.992,-0.8672,-0.8205,-0.8045,-0.6766,-0.6752,-0.7598,-0.8871,-0.9731,-1.0504,0.0,0.0,0.0,0.0,0.0,0.0,0.0,0.0,0.0,0.0,0.2063,0.1511,0.0,0.0,0.0,0.0,0.0,0.0,0.0,0.0,0.0,0.0,0.0,0.0,0.0,0.0,0.0,0.0,0.0,0.0,0.0,0.0,0.0,0.0,0.0,0.0,0.0,0.0,0.0,0.0,0.0,0.0,0.0,0.0,0.0,0.0,0.0,0.0,0.0,0.0,0.0,0.0,0.0,0.0,0.0,0.0,0.0,0.0,0.0,0.0,0.0,0.0,0.0,0.0,0.0,0.0,0.0,0.0,0.0,0.0,0.0,0.0,0.0,0.0,0.0,0.0,0.0,0.0,0.0,0.0,0.0,0.0,0.0,0.0,0.0,0.0,0.0,0.0,0.0,0.0,0.0,0.0,0.0,0.0,0.0,0.0,0.0,0.0,0.0,-0.102,-0.2897,-0.5006,-0.6098,-0.6332,-0.6332,-0.6329,-0.6322,-0.6088,-0.6007,-0.5994,-0.6005,-0.7048,-0.864,-0.8845,-1.0007,-1.1492,0.0,0.0,0.0,0.0,0.0,0.0,0.0,0.0,0.0,0.0,0.0,0.0,0.0,0.0,0.0,0.0,0.0,0.0,0.0,0.0,0.0,0.0,0.0,0.0,0.0,0.0,0.0,0.0,0.0,0.0,0.0,0.0,0.0,0.0,0.0,0.0,0.0,0.0,0.0,0.0,0.0,0.0,0.0,0.0,0.0,0.0,0.0,0.0,0.0,0.0,0.0,0.0,0.0,0.0,0.0,0.0,0.0,0.0,0.0,0.0,0.0,0.0,0.0,0.0,0.0,0.0,0.0,0.0,0.0,0.0,0.0,0.0,0.0,0.0,0.0,0.0,0.0,0.0,0.0,0.0,0.0,0.0,0.0,0.0,0.0,0.0,0.0,0.0,0.0,0.0,0.0,0.0,0.0,0.0,0.0,0.0,0.0,0.0,0.0,-0.0236,-0.0706,-0.2819,-0.4693,-0.6332,-0.6332,-0.6301,-0.6166,-0.4475,-0.3763,-0.3803,-0.3641,-0.3864,-0.4467,-0.6108,-0.6888,-0.7129,0.0,0.0,0.0,0.0,0.0,0.0,0.0,0.0,0.0,0.0,0.0,0.0,0.0,0.0,0.0,0.0,0.0,0.0,0.0,0.0,0.0,0.0,0.0,0.0,0.0,0.0,0.0,0.0,0.0,0.0,0.0,0.0,0.0,0.0,0.0,0.0,0.0,0.0,0.0,0.0,0.0,0.0,0.0,0.0,0.0,0.0,0.0,0.0,0.0,0.0,0.0,0.0,0.0,0.0,0.0,0.0,0.0,0.0,0.0,0.0,0.0,0.0,0.0,0.0,0.0,0.0,0.0,0.0,0.0,0.0,0.0,0.0,0.0,0.0,0.0,0.0,0.0,0.0,0.0,0.0,0.0,0.0,0.0,0.0,0.0,0.0,0.0,0.0,0.0,0.0,0.0,0.0,0.0,0.0,0.0,0.0,0.0,0.0,0.0,0.0,0.0,-0.1086,-0.2246,-0.3311,-0.3311,-0.3299,-0.3202,-0.206,-0.1597,-0.1588,-0.1503,-0.2098,-0.3067,-0.4085,-0.509,-0.5793,0.0,0.0,0.0,0.0,0.0,0.0,0.0,0.0,0.0,0.0,0.0,0.0,0.0,0.0,0.0,0.0,0.0,0.0,0.0,0.0,0.0,0.0,0.0,0.0,0.0,0.0,0.0,0.0,0.0,0.0,0.0,0.0,0.0,0.0,0.0,0.0,0.0,0.0,0.0,0.0,0.0,0.0,0.0,0.0,0.0,0.0,0.0,0.0,0.0,0.0,0.0,0.0,0.0,0.0,0.0,0.0,0.0,0.0,0.0,0.0,0.0,0.0,0.0,0.0,0.0,0.0,0.0,0.0,0.0,0.0,0.0,0.0,0.0,0.0,0.0,0.0,0.0,0.0,0.0,0.0,0.0,0.0,0.0,0.0,0.0,0.0,0.0,0.0,0.0,0.0,0.0,0.0,0.0,0.0,0.0,0.0,0.0,0.0,0.0,0.0,0.0,0.0,0.0,0.0,0.0,0.0,0.0,0.0,0.0,0.0,-0.0372,-0.148,-0.2877,-0.2919,-0.3923,-0.5229,0.0,0.0,0.0,0.0,0.0,0.0,0.0,0.0,0.0,0.0,0.4718,0.3416,0.1912,0.0696,0.0,0.0,0.0,0.0,0.0,0.0,0.0,0.0,0.0,0.0,0.0,0.0,0.0,0.0,0.0,0.0,0.0,0.0,0.0,0.0,0.0,0.0,0.0,0.0,0.0,0.0,0.0,0.0,0.0,0.0,0.0,0.0,0.0,0.0,0.0,0.0,0.0,0.0,0.0,0.0,0.0,0.0,0.0,0.0,0.0,0.0,0.0,0.0,0.0,0.0,0.0,0.0,0.0,0.0,0.0,0.0,0.0,0.0,0.0,0.0,0.0,0.0,0.0,0.0,0.0,0.0,0.0,0.0,0.0,0.0,0.0,0.0,0.0,0.0,0.0,0.0,0.0,0.0,0.0,0.0,0.0,0.0,0.0,0.0,0.0,0.0,0.0,0.0,0.0,0.0,0.0,0.0,0.0,0.0,0.0,-0.0147,-0.1826,-0.2697,-0.2915,-0.291,-0.3054,-0.3054,0.0,0.0,0.0,0.0,0.0,0.0,0.0,0.0,0.0,0.0,0.0,0.4318,0.2213,0.1485,0.0,0.0,0.0,0.0,0.0,0.0,0.0,0.0,0.0,0.0,0.0,0.0,0.0,0.0,0.0,0.0,0.0,0.0,0.0,0.0,0.0,0.0,0.0,0.0,0.0,0.0,0.0,0.0,0.0,0.0,0.0,0.0,0.0,0.0,0.0,0.0,0.0,0.0,0.0,0.0,0.0,0.0,0.0,0.0,0.0,0.0,0.0,0.0,0.0,0.0,0.0,0.0,0.0,0.0,0.0,0.0,0.0,0.0,0.0,0.0,0.0,0.0,0.0,0.0,0.0,0.0,0.0,0.0,0.0,0.0,0.0,0.0,0.0,0.0,0.0,0.0,0.0,0.0,0.0,0.0,0.0,0.0,0.0,0.0,0.0,0.0,0.0,0.0,0.0,0.0,0.0,0.0,0.0,0.0,0.0,-0.0073,-0.0947,-0.1311,-0.1311,-0.1311,-0.1311,-0.1166,0.0,0.0,0.0,0.0,0.0,0.0,0.0,0.0,0.0,0.0,0.0,0.5122,0.2764,0.0,0.0,0.0,0.0,0.0,0.0,0.0,0.0,0.0,0.0,0.0,0.0,0.0,0.0,0.0,0.0,0.0,0.0,0.0,0.0,0.0,0.0,0.0,0.0,0.0,0.0,0.0,0.0,0.0,0.0,0.0,0.0,0.0,0.0,0.0,0.0,0.0,0.0,0.0,0.0,0.0,0.0,0.0,0.0,0.0,0.0,0.0,0.0,0.0,0.0,0.0,0.0,0.0,0.0,0.0,0.0,0.0,0.0,0.0,0.0,0.0,0.0,0.0,0.0,0.0,0.0,0.0,0.0,0.0,0.0,0.0,0.0,0.0,0.0,0.0,0.0,0.0,0.0,0.0,0.0,0.0,0.0,0.0,0.0,0.0,0.0,0.0,0.0,0.0,0.0,0.0,0.0,0.0,0.0,0.0,0.0,0.0,0.0,0.0,0.0,0.0,0.0,0.0,0.0,0.0,0.0,0.0,0.0,0.0,0.0,0.0,0.0,0.0,0.0,0.5477,0.4067,0.2774,0.1478,0.0095,0.0,0.0,0.0,0.0,0.0,0.0,0.0,0.0,0.0,0.0,0.0,0.0,0.0,0.0,0.0,0.0,0.0,0.0,0.0,0.0,0.0,0.0,0.0,0.0,0.0,0.0,0.0,0.0,0.0,0.0,0.0,0.0,0.0,0.0,0.0,0.0,0.0,0.0,0.0,0.0,0.0,0.0,0.0,0.0,0.0,0.0,0.0,0.0,0.0,0.0,0.0,0.0,0.0,0.0,0.0,0.0,0.0,0.0,0.0,0.0,0.0,0.0,0.0,0.0,0.0,0.0,0.0,0.0,0.0,0.0,0.0,0.0,0.0,0.0,0.0,0.0,0.0,0.0,0.0,0.0,0.0,0.0,0.0,0.0,0.0,0.0,0.0,0.0,0.0,0.0,0.0,0.0,0.0,0.0,0.0,0.0,0.0,0.0,0.0,0.0,0.0,0.0,0.0,0.0,0.0,0.0,0.0,0.0,0.0,0.0,0.0,0.0,0.0,0.4863,0.3995,0.2569,0.1661,0.0,0.0,0.0,0.0,0.0,0.0,0.0,0.0,0.0,0.0,0.0,0.0,0.0,0.0,0.0,0.0,0.0,0.0,0.0,0.0,0.0,0.0,0.0,0.0,0.0,0.0,0.0,0.0,0.0,0.0,0.0,0.0,0.0,0.0,0.0,0.0,0.0,0.0,0.0,0.0,0.0,0.0,0.0,0.0,0.0,0.0,0.0,0.0,0.0,0.0,0.0,0.0,0.0,0.0,0.0,0.0,0.0,0.0,0.0,0.0,0.0,0.0,0.0,0.0,0.0,0.0,0.0,0.0,0.0,0.0,0.0,0.0,0.0,0.0,0.0,0.0,0.0,0.0,0.0,0.0,0.0,0.0,0.0,0.0,0.0,0.0,0.0,0.0,0.0,0.0,0.0,0.0,0.0,0.0,0.0,0.0,0.0,0.0,0.0,0.0,0.0,0.0,0.0,0.0,0.0,0.0,0.0,0.7988,0.7988,0.0,0.0,0.0,0.0,0.4558,0.2711,0.1716,0.0872,0.0046,0.0,0.0,0.0,0.0,0.0,0.0,0.0,0.0,0.0,0.0,0.0,0.0,0.0,0.0,0.0,0.0,0.0,0.0,0.0,0.0,0.0,0.0,0.0,0.0,0.0,0.0,0.0,0.0,0.0,0.0,0.0,0.0,0.0,0.0,0.0,0.0,0.0,0.0,0.0,0.0,0.0,0.0,0.0,0.0,0.0,0.0,0.0,0.0,0.0,0.0,0.0,0.0,0.0,0.0,0.0,0.0,0.0,0.0,0.0,0.0,0.0,0.0,0.0,0.0,0.0,0.0,0.0,0.0,0.0,0.0,0.0,0.0,0.0,0.0,0.0,0.0,0.0,0.0,0.0,0.0,0.0,0.0,0.0,0.0,0.0,0.0,0.0,0.0,0.0,0.0,0.0,0.0,0.0,0.0,0.0,0.0,0.0,0.0,0.0,0.0,0.0,0.0,0.0,0.0,0.0,0.7988,0.7988,0.0,0.0,0.0,0.0,0.0,0.0287,0.0048,0.0047,0.0,0.0,0.0,0.0,0.0,0.0,0.0,0.0,0.0,0.0,0.0,0.0,0.0,0.0,0.0,0.0,0.0,0.0,0.0,0.0,0.0,0.0,0.0,0.0,0.0,0.0,0.0,0.0,0.0,0.0,0.0,0.0,0.0,0.0,0.0,0.0,0.0,0.0,0.0,0.0,0.0,0.0,0.0,0.0,0.0,0.0,0.0,0.0,0.0,0.0,0.0,0.0,0.0,0.0,0.0,0.0,0.0,0.0,0.0,0.0,0.0,0.0,0.0,0.0,0.0,0.0,0.0,0.0,0.0,0.0,0.0,0.0,0.0,0.0,0.0,0.0,0.0,0.0,0.0,0.0,0.0,0.0,0.0,0.0,0.0,0.0,0.0,0.0,0.0,0.0,0.0,0.0,0.0,0.0,0.0,0.0,0.0,0.0,0.0,0.0,0.0,0.0,0.0,0.7988,0.7988,0.7988,0.7988,0.0,0.0,0.0,0.5632,0.4503,0.3188,0.1587,0.1372,0.0911,0.0046,0.0,0.0,0.0,0.0,0.0,0.0,0.0,0.0,0.0,0.0,0.0,0.0,0.0,0.0,0.0,0.0,0.0,0.0,0.0,0.0,0.0,0.0,0.0,0.0,0.0,0.0,0.0,0.0,0.0,0.0,0.0,0.0,0.0,0.0,0.0,0.0,0.0,0.0,0.0,0.0,0.0,0.0,0.0,0.0,0.0,0.0,0.0,0.0,0.0,0.0,0.0,0.0,0.0,0.0,0.0,0.0,0.0,0.0,0.0,0.0,0.0,0.0,0.0,0.0,0.0,0.0,0.0,0.0,0.0,0.0,0.0,0.0,0.0,0.0,0.0,0.0,0.0,0.0,0.0,0.0,0.0,0.0,0.0,0.0,0.0,0.0,0.0,0.0,0.0,0.0,0.0,0.0,0.0,0.0,0.0,0.0,0.0,0.0,0.0,0.8008,0.8126,0.8187,0.8221,0.8221,0.8221,0.8221,0.0,0.0,0.0,0.6374,0.4482,0.3025,0.2143,0.1464,0.0739,0.0047,0.0,0.0,0.0,0.0,0.0,0.0,0.0,0.0,0.0,0.0,0.0,0.0,0.0,0.0,0.0,0.0,0.0,0.0,0.0,0.0,0.0,0.0,0.0,0.0,0.0,0.0,0.0,0.0,0.0,0.0,0.0,0.0,0.0,0.0,0.0,0.0,0.0,0.0,0.0,0.0,0.0,0.0,0.0,0.0,0.0,0.0,0.0,0.0,0.0,0.0,0.0,0.0,0.0,0.0,0.0,0.0,0.0,0.0,0.0,0.0,0.0,0.0,0.0,0.0,0.0,0.0,0.0,0.0,0.0,0.0,0.0,0.0,0.0,0.0,0.0,0.0,0.0,0.0,0.0,0.0,0.0,0.0,0.0,0.0,0.0,0.0,0.0,0.0,0.0,0.0,0.0,0.0,0.0,0.0,0.0,0.0,0.0,0.0,0.0,0.8085,0.8241,0.8391,0.8492,0.8526,0.852,0.8526,0.0,0.8367,0.7817,0.6728,0.4412,0.2753,0.2313,0.1043,0.0153,0.0,0.0,0.0,0.0,0.0,0.0,0.0,0.0,0.0,0.0,0.0,0.0,0.0,0.0,0.0,0.0,0.0,0.0,0.0,0.0,0.0,0.0,0.0,0.0,0.0,0.0,0.0,0.0,0.0,0.0,0.0,0.0,0.0,0.0,0.0,0.0,0.0,0.0,0.0,0.0,0.0,0.0,0.0,0.0,0.0,0.0,0.0,0.0,0.0,0.0,0.0,0.0,0.0,0.0,0.0,0.0,0.0,0.0,0.0,0.0,0.0,0.0,0.0,0.0,0.0,0.0,0.0,0.0,0.0,0.0,0.0,0.0,0.0,0.0,0.0,0.0,0.0,0.0,0.0,0.0,0.0,0.0,0.0,0.0,0.0,0.0,0.0,0.0,0.0,0.0,0.0,0.0,0.0,0.0,0.0,0.0,0.0,0.0,0.7988,0.7988,0.8085,0.8241,0.8391,0.8567,0.8811,0.8743,0.8798,0.9157,0.8262,0.7525,0.7385,0.5631,0.3972,0.2701,0.2113,0.125,0.01,0.0,0.0,0.0,0.0,0.0,0.0,0.0,0.0,0.0,0.0,0.0,0.0,0.0,0.0,0.0,0.0,0.0,0.0,0.0,0.0,0.0,0.0,0.0,0.0,0.0,0.0,0.0,0.0,0.0,0.0,0.0,0.0,0.0,0.0,0.0,0.0,0.0,0.0,0.0,0.0,0.0,0.0,0.0,0.0,0.0,0.0,0.0,0.0,0.0,0.0,0.0,0.0,0.0,0.0,0.0,0.0,0.0,0.0,0.0,0.0,0.0,0.0,0.0,0.0,0.0,0.0,0.0,0.0,0.0,0.0,0.0,0.0,0.0,0.0,0.0,0.0,0.0,0.0,0.0,0.0,0.0,0.0,0.0,0.0,0.0,0.0,0.0,0.0,0.0,0.0,0.0,0.0,0.0,0.0,0.0,0.0,0.0,0.7988,0.7988,0.8062,0.8336,0.8499,0.8723,0.9103,0.9096,0.9205,0.9652,0.9287,0.8916,0.872,0.7215,0.5873,0.499,0.3228,0.2146,0.2118,0.0785,0.029,0.0966,0.0339,0.0,0.0,0.0,0.0,0.0,0.0,0.0,0.0,0.0,0.0,0.0,0.0,0.0,0.0,0.0,0.0,0.0,0.0,0.0,0.0,0.0,0.0,0.0,0.0,0.0,0.0,0.0,0.0,0.0,0.0,0.0,0.0,0.0,0.0,0.0,0.0,0.0,0.0,0.0,0.0,0.0,0.0,0.0,0.0,0.0,0.0,0.0,0.0,0.0,0.0,0.0,0.0,0.0,0.0,0.0,0.0,0.0,0.0,0.0,0.0,0.0,0.0,0.0,0.0,0.0,0.0,0.0,0.0,0.0,0.0,0.0,0.0,0.0,0.0,0.0,0.0,0.0,0.0,0.0,0.0,0.0,0.0,0.0,0.0,0.0,0.0,0.0,0.0,0.0,0.0,0.0,0.0,0.0,0.7988,0.7988,0.8076,0.8391,0.8615,0.8893,0.932,0.9408,0.9578,0.993,1.0031,0.9851,0.9505,0.8048,0.6879,0.6309,0.3765,0.2516,0.3327,0.1261,0.0493,0.155,0.0586,0.0,0.0,0.0,0.0,0.0,0.0,0.0,0.0,0.0,0.0,0.0,0.0,0.0,0.0,0.0,0.0,0.0,0.0,0.0,0.0,0.0,0.0,0.0,0.0,0.0,0.0,0.0,0.0,0.0,0.0,0.0,0.0,0.0,0.0,0.0,0.0,0.0,0.0,0.0,0.0,0.0,0.0,0.0,0.0,0.0,0.0,0.0,0.0,0.0,0.0,0.0,0.0,0.0,0.0,0.0,0.0,0.0,0.0,0.0,0.0,0.0,0.0,0.0,0.0,0.0,0.0,0.0,0.0,0.0,0.0,0.0,0.0,0.0,0.0,0.0,0.0,0.0,0.0,0.0,0.0,0.0,0.0,0.0,0.0,0.0,0.0,0.0,0.0,0.0,0.0,0.0,0.0,0.0,0.7988,0.7988,0.8092,0.8262,0.8635,0.9022,0.9334,0.9496,0.9693,0.995,0.9021,0.8283,0.8241,0.6407,0.4663,0.3289,0.2589,0.1683,0.0579,0.0162,0.0052,0.0206,0.01,0.0,0.0,0.0,0.0,0.0,0.0,0.0,0.0,0.0,0.0,0.0,0.0,0.0,0.0,0.0,0.0,0.0,0.0,0.0,0.0,0.0,0.0,0.0,0.0,0.0,0.0,0.0,0.0,0.0,0.0,0.0,0.0,0.0,0.0,0.0,0.0,0.0,0.0,0.0,0.0,0.0,0.0,0.0,0.0,0.0,0.0,0.0,0.0,0.0,0.0,0.0,0.0,0.0,0.0,0.0,0.0,0.0,0.0,0.0,0.0,0.0,0.0,0.0,0.0,0.0,0.0,0.0,0.0,0.0,0.0,0.0,0.0,0.0,0.0,0.0,0.0,0.0,0.0,0.0,0.0,0.0,0.0,0.0,0.0,0.0,0.0,0.0,0.0,0.0,0.0,0.0,0.0,0.0,0.7988,0.7988,0.8085,0.8241,0.8425,0.8737,0.93,1.0025,1.0527,1.0503,1.0183,0.9544,0.8278,0.7156,0.5778,0.4146,0.2894,0.2246,0.2443,0.09,0.0324,0.1123,0.0413,0.0,0.0,0.0,0.0,0.0,0.0,0.0,0.0,0.0,0.0,0.0,0.0,0.0,0.0,0.0,0.0,0.0,0.0,0.0,0.0,0.0,0.0,0.0,0.0,0.0,0.0,0.0,0.0,0.0,0.0,0.0,0.0,0.0,0.0,0.0,0.0,0.0,0.0,0.0,0.0,0.0,0.0,0.0,0.0,0.0,0.0,0.0,0.0,0.0,0.0,0.0,0.0,0.0,0.0,0.0,0.0,0.0,0.0,0.0,0.0,0.0,0.0,0.0,0.0,0.0,0.0,0.0,0.0,0.0,0.0,0.0,0.0,0.0,0.0,0.0,0.0,0.0,0.0,0.0,0.0,0.0,0.0,0.0,0.0,0.0,0.0,0.0,0.0,0.0,0.0,0.0,0.0,0.0,0.7988,0.7988,0.8022,0.8187,0.8275,0.8581,0.9327,1.0249,1.0867,1.0887,1.0655,0.9989,0.8589,0.7196,0.5799,0.463,0.2733,0.2014,0.2973,0.1138,0.0461,0.1414,0.0543,0.0,0.0,0.0,0.0,0.0,0.0,0.0,0.0,0.0,0.0,0.0,0.0,0.0,0.0,0.0,0.0,0.0,0.0,0.0,0.0,0.0,0.0,0.0,0.0,0.0,0.0,0.0,0.0,0.0,0.0,0.0,0.0,0.0,0.0,0.0,0.0,0.0,0.0,0.0,0.0,0.0,0.0,0.0,0.0,0.0,0.0,0.0,0.0,0.0,0.0,0.0,0.0,0.0,0.0,0.0,0.0,0.0,0.0,0.0,0.0,0.0,0.0,0.0,0.0,0.0,0.0,0.0,0.0,0.0,0.0,0.0,0.0,0.0,0.0,0.0,0.0,0.0,0.0,0.0,0.0,0.0,0.0,0.0,0.0,0.0,0.0,0.0,0.0,0.0,0.0,0.0,0.0,0.0,0.7988,0.7988,0.7988,0.7995,0.8282,0.873,0.949,0.9876,1.0179,1.067,0.9336,0.8505,0.8831,0.5391,0.3165,0.3399,0.1354,0.0072,0.0142,0.0066,0.0,0.0062,0.0,0.0,0.0,0.0,0.0,0.0,0.0,0.0,0.0,0.0,0.0,0.0,0.0,0.0,0.0,0.0,0.0,0.0,0.0,0.0,0.0,0.0,0.0,0.0,0.0,0.0,0.0,0.0,0.0,0.0,0.0,0.0,0.0,0.0,0.0,0.0,0.0,0.0,0.0,0.0,0.0,0.0,0.0,0.0,0.0,0.0,0.0,0.0,0.0,0.0,0.0,0.0,0.0,0.0,0.0,0.0,0.0,0.0,0.0,0.0,0.0,0.0,0.0,0.0,0.0,0.0,0.0,0.0,0.0,0.0,0.0,0.0,0.0,0.0,0.0,0.0,0.0,0.0,0.0,0.0,0.0,0.0,0.0,0.0,0.0,0.0,0.0,0.0,0.0,0.0,0.0,0.0,0.0,0.0,0.8194,0.8194,0.816,0.8008,0.8208,0.8628,0.9476,1.0195,1.0739,1.1253,1.0992,1.05,0.9562,0.8228,0.6923,0.5848,0.3527,0.2793,0.4175,0.159,0.06,0.1986,0.0738,0.0,0.0,0.0,0.0,0.0,0.0,0.0,0.0,0.0,0.0,0.0,0.0,0.0,0.0,0.0,0.0,0.0,0.0,0.0,0.0,0.0,0.0,0.0,0.0,0.0,0.0,0.0,0.0,0.0,0.0,0.0,0.0,0.0,0.0,0.0,0.0,0.0,0.0,0.0,0.0,0.0,0.0,0.0,0.0,0.0,0.0,0.0,0.0,0.0,0.0,0.0,0.0,0.0,0.0,0.0,0.0,0.0,0.0,0.0,0.0,0.0,0.0,0.0,0.0,0.0,0.0,0.0,0.0,0.0,0.0,0.0,0.0,0.0,0.0,0.0,0.0,0.0,0.0,0.0,0.0,0.0,0.0,0.0,0.0,0.0,0.0,0.0,0.0,0.0,0.0,0.0,0.0,0.0,0.8333,0.832,0.8241,0.814,0.8336,0.8757,0.9496,1.0307,1.1062,1.1626,1.1999,1.1934,1.1195,1.0297,0.9307,0.8239,0.5944,0.4802,0.534,0.2768,0.1773,0.3059,0.1119,0.0318,0.1073,0.0358,0.0,0.0,0.0,0.0,0.0,0.0,0.0,0.0,0.0,0.0,0.0,0.0,0.0,0.0,0.0,0.0,0.0,0.0,0.0,0.0,0.0,0.0,0.0,0.0,0.0,0.0,0.0,0.0,0.0,0.0,0.0,0.0,0.0,0.0,0.0,0.0,0.0,0.0,0.0,0.0,0.0,0.0,0.0,0.0,0.0,0.0,0.0,0.0,0.0,0.0,0.0,0.0,0.0,0.0,0.0,0.0,0.0,0.0,0.0,0.0,0.0,0.0,0.0,0.0,0.0,0.0,0.0,0.0,0.0,0.0,0.0,0.0,0.0,0.0,0.0,0.0,0.0,0.0,0.0,0.0,0.0,0.0,0.0,0.0,0.0,0.0,0.0,0.0,0.0,0.0,0.8361,0.8347,0.8368,0.8374,0.8676,0.906,0.0,0.0,1.1103,1.1775,1.2257,1.2773,1.337,1.1498,1.0283,1.0482,0.8353,0.6145,0.3951,0.3621,0.3543,0.3449,0.1416,0.1242,0.3241,0.1219,0.0182,0.0275,0.011,0.0053,0.0101,0.0051,0.0,0.0,0.0,0.0,0.0,0.0,0.0,0.0,0.0,0.0,0.0,0.0,0.0,0.0,0.0,0.0,0.0,0.0,0.0,0.0,0.0,0.0,0.0,0.0,0.0,0.0,0.0,0.0,0.0,0.0,0.0,0.0,0.0,0.0,0.0,0.0,0.0,0.0,0.0,0.0,0.0,0.0,0.0,0.0,0.0,0.0,0.0,0.0,0.0,0.0,0.0,0.0,0.0,0.0,0.0,0.0,0.0,0.0,0.0,0.0,0.0,0.0,0.0,0.0,0.0,0.0,0.0,0.0,0.0,0.0,0.0,0.0,0.0,0.0,0.0,0.0,0.0,0.0,0.0,0.0,0.0,0.0,0.0,0.0,0.8479,0.875,0.9016,0.9076,0.9191,0.9456,0.0,0.0,0.0,0.0,1.2752,1.3356,1.3844,1.3376,1.3044,1.3083,1.0886,0.0,0.0,0.0,0.0,0.8044,0.5961,0.506,0.5453,0.3382,0.2878,0.3996,0.1335,0.0639,0.1835,0.0562,0.0,0.0,0.0,0.0,0.0,0.0,0.0,0.0,0.0,0.0,0.0,0.0,0.0,0.0,0.0,0.0,0.0,0.0,0.0,0.0,0.0,0.0,0.0,0.0,0.0,0.0,0.0,0.0,0.0,0.0,0.0,0.0,0.0,0.0,0.0,0.0,0.0,0.0,0.0,0.0,0.0,0.0,0.0,0.0,0.0,0.0,0.0,0.0,0.0,0.0,0.0,0.0,0.0,0.0,0.0,0.0,0.0,0.0,0.0,0.0,0.0,0.0,0.0,0.0,0.0,0.0,0.0,0.0,0.0,0.0,0.0,0.0,0.0,0.0,0.0,0.0,0.0,0.0,0.0,0.0,0.0,0.0,0.0,0.0,0.8866,0.9303,0.9733,0.9761,0.0,0.0,1.0527,1.0962,0.0,1.2203,1.2881,0.0,1.3743,1.4014,1.4143,1.4075,1.2786,0.0,1.2068,0.0,0.0,0.9792,0.765,0.6875,0.7672,0.5421,0.0,0.5276,0.3105,0.2455,0.32,0.2194,0.146,0.0859,0.09,0.0556,0.0,0.0,0.0,0.0,0.0,0.0,0.0,0.0,0.0,0.0,0.0,0.0,0.0,0.0,0.0,0.0,0.0,0.0,0.0,0.0,0.0,0.0,0.0,0.0,0.0,0.0,0.0,0.0,0.0,0.0,0.0,0.0,0.0,0.0,0.0,0.0,0.0,0.0,0.0,0.0,0.0,0.0,0.0,0.0,0.0,0.0,0.0,0.0,0.0,0.0,0.0,0.0,0.0,0.0,0.0,0.0,0.0,0.0,0.0,0.0,0.0,0.0,0.0,0.0,0.0,0.0,0.0,0.0,0.0,0.0,0.0,0.0,0.0,0.0,0.0,0.0,0.0,0.0,0.0,0.0,0.933,0.9849,1.0331,0.0,0.0,0.0,0.0,1.1375,0.0,1.2359,0.0,1.337,1.3505,1.3987,1.4245,1.4116,0.0,1.318,1.0894,1.0732,1.0578,1.028,0.8427,0.8172,0.979,0.7498,0.613,0.5818,0.5053,0.4651,0.4505,0.4156,0.3366,0.2267,0.2087,0.0,0.0,0.0,0.0,0.0,0.0,0.0,0.0,0.0,0.0,0.0,0.0,0.0,0.0,0.0,0.0,0.0,0.0,0.0,0.0,0.0,0.0,0.0,0.0,0.0,0.0,0.0,0.0,0.0,0.0,0.0,0.0,0.0,0.0,0.0,0.0,0.0,0.0,0.0,0.0,0.0,0.0,0.0,0.0,0.0,0.0,0.0,0.0,0.0,0.0,0.0,0.0,0.0,0.0,0.0,0.0,0.0,0.0,0.0,0.0,0.0,0.0,0.0,0.0,0.0,0.0,0.0,0.0,0.0,0.0,0.0,0.0,0.0,0.0,0.0,0.0,0.0,0.0,0.0,0.0,0.0,0.9829,1.0297,1.0602,0.0,0.0,1.1653,1.1999,1.2305,1.2664,1.3146,1.3729,1.4116,1.4143,1.4238,1.4292,1.4265,1.4143,0.0,0.0,0.0,0.0,1.2755,1.2325,1.2048,1.2141,0.9815,0.8908,0.953,0.6319,0.5178,0.606,0.4642,0.3864,0.362,0.247,0.0,0.0,0.0,0.0,0.0,0.0,0.0,0.0,0.0,0.0,0.0,0.0,0.0,0.0,0.0,0.0,0.0,0.0,0.0,0.0,0.0,0.0,0.0,0.0,0.0,0.0,0.0,0.0,0.0,0.0,0.0,0.0,0.0,0.0,0.0,0.0,0.0,0.0,0.0,0.0,0.0,0.0,0.0,0.0,0.0,0.0,0.0,0.0,0.0,0.0,0.0,0.0,0.0,0.0,0.0,0.0,0.0,0.0,0.0,0.0,0.0,0.0,0.0,0.0,0.0,0.0,0.0,0.0,0.0,0.0,0.0,0.0,0.0,0.0,0.0,0.0,0.0,0.0,0.0,0.0,0.0,1.0731,1.0982,1.1212,1.1294,0.0,0.0,0.0,1.3186,0.0,1.3295,1.3607,1.3831,1.3831,1.4116,1.4299,1.4299,1.4231,1.4089,1.3858,1.3777,1.3641,1.341,1.3254,1.3037,1.2739,1.1395,1.0652,1.0609,0.8317,0.7404,0.7624,0.6567,0.5722,0.4985,0.3887,0.2563,0.0,0.0,0.0,0.1475,0.1514,0.1529,0.1384,0.0365,0.0656,0.1384,0.0365,0.1311,0.2692,0.0656,0.0,0.0,0.0,0.0,0.0,0.0,0.0,0.0,0.0,0.0,0.0,0.0,0.0,0.0,0.0,0.0,0.0,0.0,0.0,0.0,0.0,0.0,0.0,0.0,0.0,0.0,0.0,0.0,0.0,0.0,0.0,0.0,0.0,0.0,0.0,0.0,0.0,0.0,0.0,0.0,0.0,0.0,0.0,0.0,0.0,0.0,0.0,0.0,0.0,0.0,0.0,0.0,0.0,0.0,0.0,0.0,0.0,0.0,0.0,0.0,0.0,0.0,0.0,0.0,0.0,0.0,1.1463,1.166,0.0,0.0,1.2535,0.0,1.3349,1.381,1.3953,1.3471,1.3519,1.3593,1.3593,1.4014,1.4299,1.4299,1.4299,1.417,1.3858,1.3838,1.3709,1.341,1.3288,1.3098,1.2827,1.2386,1.1714,0.0,1.01,0.9415,0.875,0.8312,0.7426,0.0,0.0,0.0,0.0,0.0,0.4821,0.3518,0.3529,0.3488,0.3342,0.182,0.2183,0.3344,0.1748,0.3199,0.5301,0.2257,0.1239,0.1239,0.1239,0.1228,0.1211,0.1195,0.1179,0.1163,0.1147,0.1142,0.1142,0.1142,0.0874,0.0606,0.0606,0.0269,0.0,0.0,0.0,0.0,0.0,0.0,0.0,0.0,0.0,0.0,0.0,0.0,0.0,0.0,0.0,0.0,0.0,0.0,0.0,0.0,0.0,0.0,0.0,0.0,0.0,0.0,0.0,0.0,0.0,0.0,0.0,0.0,0.0,0.0,0.0,0.0,0.0,0.0,0.0,0.0,0.0,0.0,0.0,0.0,0.0,0.0,0.0,0.0,0.0,0.0,0.0,0.0,0.0,0.0,0.0,0.0,0.0,1.3899,1.4258,1.4204,1.4204,1.4217,1.4217,1.4265,1.4299,1.4299,1.4299,1.417,1.3858,1.3838,1.3709,1.341,1.339,1.3302,1.3132,1.2691,1.202,0.0,0.0,0.9774,0.8858,0.873,0.0,0.0,0.0,0.0,0.0,0.5492,0.556,0.555,0.5561,0.5518,0.5518,0.5301,0.5373,0.5518,0.5301,0.5518,0.5736,0.5373,0.5229,0.5229,0.5229,0.5254,0.5257,0.5115,0.5046,0.5046,0.4913,0.4894,0.4894,0.4894,0.3689,0.2417,0.2417,0.121,0.0,0.0,0.0,0.0,0.0,0.0,0.0,0.0,0.0,0.0,0.0,0.0,0.0,0.0,0.0,0.0,0.0,0.0,0.0,0.0,0.0,0.0,0.0,0.0,0.0,0.0,0.0,0.0,0.0,0.0,0.0,0.0,0.0,0.0,0.0,0.0,0.0,0.0,0.0,0.0,0.0,0.0,0.0,0.0,0.0,0.0,0.0,0.0,0.0,0.0,0.0,0.0,0.0,0.0,0.0,0.0,0.0,1.4143,1.4299,1.4299,1.4299,1.4299,1.4299,1.4299,1.4299,1.4299,1.4299,1.417,1.3858,1.3838,1.3709,1.341,1.3403,1.3329,1.3173,1.282,1.2284,0.0,0.0,0.0,0.0,0.0,0.0,0.0,0.0,0.8306,0.7126,0.8486,0.8483,0.7549,0.7504,0.7544,0.7399,0.6242,0.6532,0.7399,0.6242,0.7331,0.9069,0.791,0.6749,0.5808,0.5808,0.5788,0.5822,0.5743,0.5667,0.5591,0.5515,0.5463,0.5429,0.5429,0.4827,0.4292,0.4292,0.3756,0.3222,0.3222,0.3222,0.2918,0.1848,0.1637,0.1241,0.0,0.0,0.0,0.0,0.0,0.0,0.0,0.0,0.0,0.0,0.0,0.0,0.0,0.0,0.0,0.0,0.0,0.0,0.0,0.0,0.0,0.0,0.0,0.0,0.0,0.0,0.0,0.0,0.0,0.0,0.0,0.0,0.0,0.0,0.0,0.0,0.0,0.0,0.0,0.0,0.0,0.0,0.0,1.3295,0.0,1.3363,0.0,1.3777,1.381,1.4238,1.4299,1.4299,1.4299,1.4299,1.4299,1.4299,1.4299,1.4299,1.4299,1.4299,1.417,1.3858,1.3838,1.3709,1.341,1.3403,0.0,1.3241,1.299,1.2589,1.2026,1.1416,0.0,0.0,0.0,0.0,0.0,1.0358,0.993,0.9137,1.0709,1.0722,0.9644,0.9551,0.9574,0.943,0.8054,0.8343,0.9357,0.7982,0.9291,1.1397,1.0011,0.8636,0.7476,0.7476,0.7476,0.7531,0.7429,0.7332,0.723,0.7201,0.704,0.6969,0.6969,0.6564,0.6164,0.6164,0.5763,0.5429,0.5429,0.5429,0.4986,0.3682,0.3413,0.2977,0.0,0.0,0.0,0.0,0.0,0.0,0.0,0.0247,0.0,0.0,0.0,0.0,0.0,0.0,0.0,0.0,0.0,0.0,0.0,0.0,0.0,0.0,0.0,0.0,0.0,0.0,0.0,0.0,0.0,0.0,0.0,0.0,0.0,0.0,0.0,0.0,0.0,0.0,0.0,0.0,0.0,0.0,0.0,1.3593,1.3736,1.3878,1.4041,1.419,1.4292,1.4299,1.4299,1.4299,1.4299,1.4299,1.4299,1.4299,1.4299,1.4299,1.4299,1.4299,1.417,1.3858,1.3838,1.3709,0.0,0.0,1.3403,1.3397,1.3247,1.2949,1.2494,0.0,0.0,1.086,0.0,0.0,1.0717,1.0806,1.1116,1.1527,1.145,1.1558,1.1736,1.1602,1.1548,1.1548,1.1548,1.1548,1.1548,1.1548,1.1548,1.1619,1.1548,1.1548,1.1548,1.1548,1.1548,1.1514,1.1366,1.1211,1.1062,1.0921,1.0766,1.0651,1.0651,0.9305,0.7964,0.7964,0.6631,0.5429,0.5429,0.5429,0.5318,0.51,0.507,0.5035,0.4861,0.0,0.0,0.0,0.0,0.0,0.0,0.0884,0.0,0.0,0.0,0.0,0.0,0.0,0.0,0.0,0.0,0.0,0.0,0.0,0.0,0.0,0.0,0.0,0.0,0.0,0.0,0.0,0.0,0.0,0.0,0.0,0.0,0.0,0.0,0.0,0.0,0.0,0.0,0.0,0.0,0.0,0.0,1.3919,1.4055,1.417,1.4217,1.4272,1.4299,1.4299,1.4299,1.4299,1.4299,1.4299,1.4299,1.4299,1.4299,1.4299,0.0,1.4299,1.417,0.0,1.3838,1.3709,1.341,1.3403,1.3403,1.3403,1.3254,1.3057,1.2813,0.0,0.0,0.0,1.1307,1.1335,1.1477,1.1453,1.1687,1.1918,1.187,1.1904,1.1986,1.1938,1.1857,1.1762,1.1762,1.1701,1.1619,1.1619,1.1619,1.1619,1.1619,1.1619,1.1619,1.1619,1.1619,1.1613,1.1558,1.1436,1.1287,1.1138,1.0989,1.0786,1.0744,1.0246,0.9842,0.9842,0.9443,0.9045,0.9045,0.9045,0.8569,0.7226,0.6933,0.6467,0.5118,0.0,0.0,0.0,0.0,0.0,0.0,0.3031,0.2358,0.0,0.1343,0.0,0.0,0.0,0.0,0.0,0.0,0.0,0.0,0.0,0.0,0.0,0.0,0.0,0.0,0.0,0.0,0.0,0.0,0.0,0.0,0.0,0.0,0.0,0.0,0.0,0.0,0.0,0.0,0.0,0.0,0.0,0.0,1.4156,1.4238,1.4299,1.4299,1.4299,1.4299,1.4299,1.4299,1.4299,1.4299,1.4299,1.4299,1.4299,1.4299,0.0,1.4299,1.4299,1.417,1.3858,1.3838,1.3709,1.341,1.3403,1.3403,1.3403,0.0,0.0,1.3044,1.2589,1.2196,1.187,1.1809,1.1837,1.1918,1.1918,1.2006,1.2142,1.2088,1.2094,1.2142,1.2088,1.2006,1.1918,1.1918,1.1823,1.1701,1.1701,1.1667,1.1619,1.1619,1.1619,1.1619,1.1619,1.1619,1.1619,1.1619,1.1511,1.1369,1.1274,1.1104,1.086,1.0826,1.0765,1.0717,1.0717,1.0717,1.0717,1.0717,1.0717,1.0294,0.8974,0.873,0.8254,0.6921,0.0,0.6397,0.6195,0.0,0.0,0.0,0.0,0.0,0.0,0.2387,0.0,0.0,0.0,0.0,0.0,0.0,0.0,0.0,0.0,0.0,0.0,0.0,0.0,0.0,0.0,0.0,0.0,0.0,0.0,0.0,0.0,0.0,0.0,0.0,0.0,0.0,0.0,0.0,0.0,0.0,0.0,0.0,1.4299,1.4299,0.0,0.0,1.4299,0.0,1.4299,1.4299,1.4299,1.4299,1.4299,1.4299,1.4299,1.4299,1.4299,1.4299,0.0,0.0,0.0,1.3838,1.3709,1.341,1.3403,0.0,1.3403,1.3403,1.3322,1.3173,1.2745,1.2461,1.2318,1.2162,1.2169,1.2169,1.2169,1.2169,1.2298,1.2155,1.2176,1.2291,1.2149,1.2088,1.2081,1.2081,1.1979,1.1843,1.1843,1.1755,1.1633,1.1633,1.1626,1.1619,1.1619,1.1619,1.1619,1.1619,1.1518,1.1402,1.1396,1.1185,1.0894,1.088,1.0833,1.0717,1.0717,1.0717,1.0717,1.0717,1.0717,1.0629,1.0337,1.0283,1.0134,0.968,0.9469,0.9259,0.8912,0.0,0.0,0.0,0.0,0.0,0.0,0.3238,0.2494,0.0,0.0,0.0,0.0,0.0,0.0,0.0,0.0,0.0,0.0,0.0,0.0,0.0,0.0,0.0,0.0,0.0,0.0,0.0,0.0,0.0,0.0,0.0,0.0,0.0,0.0,0.0,0.0,0.0,0.0,0.0,0.0,0.0,1.4299,1.4299,1.4299,1.4299,1.4299,1.4299,1.4299,1.4299,1.4299,1.4299,1.4299,1.4299,1.4299,1.4299,1.4299,1.417,1.3858,1.3838,1.3709,1.341,1.3403,1.3403,1.3403,1.3403,1.3322,1.3173,1.2956,1.2773,1.2623,1.2467,1.24,1.24,1.24,1.242,1.2447,1.2413,1.242,1.2447,1.2413,1.2332,1.2237,1.2237,1.2142,1.2006,1.2006,1.1911,1.1782,1.1782,1.1708,1.1619,1.1619,1.1619,1.1619,1.1619,1.1592,1.1538,1.1423,1.1253,1.1084,1.0907,1.0833,1.0717,1.0717,1.0717,1.0717,1.0717,1.0717,1.0629,1.0337,1.0283,1.0134,0.968,0.9381,0.9103,0.8804,0.0,0.0,0.0,0.7694,0.717,0.6078,0.5764,0.521,0.0,0.0,0.0,0.0,0.0,0.1308,0.0057,0.0,0.0,0.0,0.0,0.0,0.0,0.0,0.0,0.0,0.0,0.0,0.0,0.0,0.0,0.0,0.0,0.0,0.0,0.0,0.0,0.0,0.0,0.0,0.0,1.4299,1.4299,1.4299,1.4299,1.4299,1.4299,1.4299,1.4299,1.4299,1.4299,1.4299,1.4299,1.4299,1.4299,1.4299,1.4299,1.4299,1.4197,1.396,1.3878,1.3743,1.3512,1.3437,1.3403,1.3403,1.3403,1.3322,1.3173,1.3098,1.2983,1.2834,1.2678,1.2603,1.2603,1.2535,1.2501,1.2501,1.2501,1.2501,1.2501,1.2501,1.2454,1.2386,1.2386,1.2298,1.2169,1.2169,1.2067,1.1938,1.1938,1.1837,1.1714,1.1714,1.1674,1.1619,1.1619,1.1619,1.1599,1.1518,1.1382,1.1219,1.1002,1.0833,1.0717,1.0717,1.0717,1.0717,1.0717,1.0717,1.0629,1.0337,1.0283,1.0086,0.9496,0.932,0.9103,0.8669,0.8594,0.0,0.8479,0.8676,0.8532,0.7798,0.7198,0.6576,0.5844,0.0,0.0,0.362,0.3595,0.2467,0.0058,0.0,0.0,0.0,0.0,0.0,0.0,0.0,0.0,0.0,0.0,0.0,0.0,0.0,0.0,0.0,0.0,0.0,0.0,0.0,0.0,0.0,0.0,0.0,0.0,1.4299,1.4299,1.4299,1.4299,1.4299,1.4299,1.4299,1.4299,1.4299,1.4299,1.4299,1.4299,1.4299,1.4299,1.4299,1.4299,1.4299,1.4238,1.4082,1.3926,1.3777,1.3634,1.3485,1.3403,1.3403,1.3403,1.3336,1.3207,1.3186,1.3112,1.307,1.2834,1.2752,1.2725,1.2596,1.2522,1.2501,1.2501,1.2501,1.2501,1.2501,1.2501,1.2501,1.2501,1.2427,1.2325,1.2325,1.2223,1.2094,1.2094,1.1993,1.1864,1.1864,1.1769,1.1653,1.1653,1.164,1.1619,1.1619,1.1504,1.1321,1.0954,1.0786,1.0751,1.0724,1.0717,1.0717,1.0717,1.0717,1.0636,1.0365,1.0297,1.0039,0.9364,0.9337,0.9144,0.856,0.0,0.8743,0.8743,0.892,0.9076,0.9234,0.8159,0.7471,0.7471,0.6291,0.0,0.0,0.5268,0.3939,0.0872,0.0484,0.025,0.0,0.0,0.0,0.0,0.0,0.0,0.0,0.0,0.0,0.0,0.0,0.0,0.0,0.0,0.0,0.0,0.0,0.0,0.0,0.0,0.0,0.0,1.4299,1.4299,1.4299,1.4299,1.4299,1.4299,1.4299,1.4299,1.4299,1.4299,1.4299,1.4299,1.4299,1.4299,1.4299,1.4299,1.4299,1.4238,1.4082,1.3926,1.3777,1.3634,1.3485,1.3403,1.3403,1.3403,1.339,1.3363,1.3234,1.3159,1.3139,1.299,1.2854,1.2725,1.2705,1.2623,1.2501,1.2501,1.2501,1.2501,1.2501,1.2501,1.2501,1.2501,1.2488,1.2467,1.2467,1.2379,1.2257,1.2257,1.2155,1.2026,1.2026,1.1925,1.1796,1.1796,1.1714,1.1619,1.1619,1.1504,1.1321,1.0954,1.086,1.0813,1.0751,1.0717,1.0717,1.0717,1.0717,1.067,1.0493,1.0365,1.0073,0.9449,0.9316,0.9077,0.0,0.0,0.8851,0.8851,0.9259,0.9462,0.9354,0.9248,0.9216,0.9216,0.8972,0.8313,0.7055,0.7123,0.6306,0.4377,0.2855,0.1464,0.0,0.0,0.0,0.0,0.0,0.0,0.0,0.0,0.0,0.0,0.0,0.0,0.0,0.0,0.0,0.0,0.0,0.0,0.0,0.0,0.0,0.0,1.4299,1.4299,1.4299,1.4299,1.4299,1.4299,1.4299,1.4299,1.4299,1.4299,1.4299,1.4299,1.4299,1.4299,1.4299,1.4299,1.4299,1.4272,1.4197,1.4048,1.3899,1.3749,1.36,1.3485,1.3403,1.3403,1.3403,1.3403,1.3329,1.3295,1.3295,1.3146,1.3037,1.2963,1.2888,1.2773,1.2623,1.2623,1.2576,1.2501,1.2501,1.2501,1.2501,1.2501,1.2501,1.2501,1.2501,1.2461,1.2406,1.2406,1.2305,1.2182,1.2182,1.2081,1.1938,1.1857,1.1728,1.1619,1.1619,1.1504,1.1341,1.1118,1.1002,1.084,1.0758,1.0717,1.0717,1.0717,1.0717,1.067,1.0521,1.0378,1.0134,0.9693,0.9429,0.0,0.0,0.9015,0.9117,0.9279,0.9483,0.9612,0.9618,0.968,0.9727,0.9727,0.9802,0.9538,0.8861,0.8982,0.8265,0.662,0.4935,0.3241,0.1447,0.1459,0.0935,0.0,0.0,0.0,0.0,0.0,0.0,0.0,0.0,0.0,0.0,0.0,0.0,0.0,0.0,0.0,0.0,0.0,0.0,0.0,1.4299,1.4299,1.4299,1.4299,1.4299,1.4299,1.4299,1.4299,1.4299,1.4299,1.4299,1.4299,1.4299,1.4299,1.4299,1.4299,1.4299,1.4299,1.4299,1.419,1.4055,1.3899,1.3722,1.3559,1.3403,1.3403,1.3403,1.3403,1.3403,1.3403,1.3397,1.3281,1.3207,1.3166,1.3057,1.2922,1.2786,1.2786,1.2698,1.2556,1.2556,1.2535,1.2501,1.2501,1.2501,1.2501,1.2501,1.2501,1.2501,1.2501,1.2427,1.2338,1.2338,1.2237,1.2094,1.1972,1.1809,1.166,1.1626,1.1531,1.1409,1.1253,1.1104,1.0955,1.0806,1.0744,1.0717,1.0717,1.0717,1.0683,1.0568,1.0426,1.0229,0.9924,0.0,0.0,0.0,0.9395,0.9449,0.9686,0.9741,0.9808,0.9917,0.9924,0.9924,0.9924,1.0039,1.0038,1.0038,1.0249,0.9748,0.8497,0.646,0.475,0.3367,0.3337,0.2618,0.1277,0.1277,0.1009,0.0605,0.0605,0.0404,0.0,0.0,0.0,0.0,0.0,0.0,0.0,0.0,0.0,0.0,0.0,0.0,0.0,1.4299,1.4299,1.4299,1.4299,1.4299,1.4299,1.4299,1.4299,1.4299,1.4299,1.4299,1.4299,1.4299,1.4299,1.4299,1.4299,1.4299,1.4299,1.4299,1.4292,1.4217,1.4061,1.3783,1.3559,1.3403,1.3403,1.3403,1.3403,1.3403,1.3403,1.3403,1.339,1.3308,1.3173,1.3159,1.3078,1.2942,1.2942,1.2854,1.2712,1.2712,1.263,1.2501,1.2501,1.2501,1.2501,1.2501,1.2501,1.2501,1.2501,1.2494,1.2488,1.2488,1.2386,1.2271,1.2257,1.2047,1.1789,1.1653,1.1613,1.1565,1.1409,1.126,1.1111,1.0894,1.0819,1.0717,1.0717,1.0717,1.0717,1.0704,1.0582,1.0378,1.0149,0.0,0.0,0.9632,0.9822,0.993,0.995,1.0141,1.0236,1.0243,1.0249,1.0249,1.0249,1.0256,1.0263,1.0263,1.0399,1.0482,1.0498,0.7156,0.5355,0.5222,0.5225,0.5162,0.5028,0.5028,0.4091,0.2484,0.2484,0.1613,0.0,0.0,0.0,0.0,0.0,0.0,0.0,0.0,0.0,0.0,0.0,0.0,0.0,1.4299,1.4299,1.4299,1.4299,1.4299,1.4299,1.4299,1.4299,1.4299,1.4299,1.4299,1.4299,1.4299,1.4299,1.4299,1.4299,1.4299,1.4299,1.4299,1.4299,1.419,1.3939,1.3736,1.3559,1.3403,1.3403,1.3403,1.3403,1.3403,1.3403,1.3403,1.3403,1.337,1.3315,1.3315,1.3234,1.3091,1.3091,1.301,1.2874,1.2874,1.2779,1.2644,1.2644,1.2583,1.2501,1.2501,1.2501,1.2501,1.2501,1.2501,1.2501,1.2501,1.2467,1.2406,1.2318,1.2074,1.1816,1.1769,1.1687,1.1586,1.143,1.1348,1.124,1.0934,1.0833,1.0766,1.0738,1.0717,1.0717,1.0717,1.0595,1.0487,1.0466,0.0,1.0011,1.0148,1.0093,1.0024,1.0181,1.0243,1.0283,1.0283,1.0283,1.0283,1.0283,1.0365,1.0412,1.0412,1.0555,1.0663,1.0717,0.9377,0.8169,0.7031,0.7031,0.6498,0.5429,0.5429,0.5028,0.4359,0.4359,0.4024,0.3354,0.3354,0.2685,0.1747,0.2887,0.2685,0.1814,0.2887,0.3354,0.3354,0.3354,0.3354,0.3354,1.4299,1.4299,1.4299,1.4299,1.4299,1.4299,1.4299,1.4299,1.4299,1.4299,1.4299,1.4299,1.4299,1.4299,1.4299,1.4299,1.4299,1.4299,1.4299,1.4299,1.4183,1.3926,1.3777,1.3627,1.3478,1.3424,1.3403,1.3403,1.3403,1.3403,1.3403,1.3403,1.3403,1.3403,1.3403,1.3342,1.3247,1.3247,1.3159,1.303,1.303,1.2935,1.28,1.28,1.2705,1.2576,1.2576,1.2542,1.2501,1.2501,1.2501,1.2501,1.2501,1.2501,1.2474,1.2332,1.2142,1.1965,1.1918,1.1796,1.1647,1.1497,1.1423,1.1335,1.1131,1.105,1.0975,1.0819,1.0792,1.0778,1.0731,1.0636,1.0595,1.0704,1.046,1.0331,1.0534,1.0385,1.0297,1.0405,1.0419,1.0419,1.0419,1.0419,1.0419,1.0419,1.0507,1.0561,1.0561,1.0663,1.0717,1.0717,1.0717,1.0114,0.8834,0.8834,0.8235,0.7036,0.7036,0.6769,0.6231,0.6231,0.5897,0.5429,0.5429,0.4693,0.3622,0.4894,0.4693,0.3689,0.4894,0.5429,0.5429,0.5429,0.5429,0.5429,1.4299,1.4299,1.4299,1.4299,1.4299,1.4299,1.4299,1.4299,1.4299,1.4299,1.4299,1.4299,1.4299,1.4299,1.4299,1.4299,1.4299,1.4299,1.4299,1.4299,1.4231,1.4082,1.3926,1.3777,1.3634,1.3478,1.3403,1.3403,1.3403,1.3403,1.3403,1.3403,1.3403,1.3403,1.3403,1.3403,1.3403,1.3403,1.3315,1.3173,1.3173,1.3091,1.2963,1.2963,1.2868,1.2732,1.2732,1.263,1.2508,1.2501,1.2501,1.2501,1.2501,1.2501,1.2474,1.2332,1.2291,1.2257,1.2108,1.1952,1.1796,1.1653,1.1504,1.1396,1.1389,1.1274,1.1124,1.0914,1.088,1.0833,1.0751,1.0717,1.0717,1.0717,1.0717,1.0717,1.0717,1.0717,1.0717,1.0717,1.0717,1.0717,1.0717,1.0717,1.0717,1.0717,1.0717,1.0717,1.0717,1.0717,1.0717,1.0717,1.0717,1.0717,1.0717,1.0717,1.0717,1.0717,1.0717,0.9775,0.803,0.803,0.7098,0.5429,0.5429,0.5429,0.5429,0.5429,0.5429,0.5429,0.5429,0.5429,0.5429,0.5429,0.5429,0.5429,1.4299,1.4299,1.4299,1.4299,1.4299,1.4299,1.4299,1.4299,1.4299,1.4299,1.4299,1.4299,1.4299,1.4299,1.4299,1.4299,1.4299,1.4299,1.4299,1.4299,1.4278,1.4231,1.398,1.3777,1.3634,1.3478,1.3403,1.3403,1.3403,1.3403,1.3403,1.3403,1.3403,1.3403,1.3403,1.3403,1.3403,1.3403,1.3376,1.3336,1.3336,1.3241,1.3112,1.3112,1.3017,1.2895,1.2895,1.2861,1.2807,1.2698,1.2664,1.2644,1.2535,1.2501,1.2494,1.2447,1.2366,1.2277,1.2237,1.2108,1.1959,1.1803,1.166,1.1525,1.1416,1.1355,1.128,1.1131,1.1016,1.0867,1.082,1.0792,1.0717,1.0717,1.0717,1.0717,1.0717,1.0717,1.0717,1.0717,1.0717,1.0717,1.0717,1.0717,1.0717,1.0717,1.0717,1.0717,1.0717,1.0717,1.0717,1.0717,1.0717,1.0717,1.0717,1.0717,1.0717,1.0717,1.0717,1.0452,0.9908,0.9908,0.9643,0.9111,0.9111,0.8368,0.7298,0.8573,0.8368,0.7365,0.864,0.9111,0.9111,0.9111,0.9111,0.9111,1.4299,1.4299,1.4299,1.4299,1.4299,1.4299,1.4299,1.4299,1.4299,1.4299,1.4299,1.4299,1.4299,1.4299,1.4299,1.4299,1.4299,1.4299,1.4299,1.4299,1.4299,1.4299,1.4061,1.3865,1.3715,1.3566,1.3464,1.3403,1.3403,1.3403,1.3403,1.3403,1.3403,1.3403,1.3403,1.3403,1.3403,1.3403,1.3403,1.3403,1.3403,1.3342,1.3261,1.3261,1.3173,1.3044,1.3044,1.309,1.2949,1.2854,1.2779,1.2712,1.2623,1.2549,1.2501,1.2501,1.244,1.2372,1.2372,1.2264,1.2115,1.1959,1.1809,1.166,1.1518,1.1484,1.1436,1.1287,1.1185,1.109,1.09,1.0806,1.0792,1.0731,1.0717,1.0717,1.0717,1.0717,1.0717,1.0717,1.0717,1.0717,1.0717,1.0717,1.0717,1.0717,1.0717,1.0717,1.0717,1.0717,1.0717,1.0717,1.0717,1.0717,1.0717,1.0717,1.0717,1.0717,1.0717,1.0717,1.0717,1.0717,1.0717,1.0717,1.0717,1.0047,0.9172,1.0246,1.0047,0.9172,1.0246,1.0717,1.0717,1.0717,1.0717,1.0717,1.4299,1.4299,1.4299,1.4299,1.4299,1.4299,1.4299,1.4299,1.4299,1.4299,1.4299,1.4299,1.4299,1.4299,1.4299,1.4299,1.4299,1.4299,1.4299,1.4299,1.4299,1.4299,1.4163,1.4021,1.3865,1.3709,1.3559,1.3424,1.341,1.3403,1.3403,1.3403,1.3403,1.3403,1.3403,1.3403,1.3403,1.3403,1.3403,1.3403,1.3403,1.3403,1.3403,1.3403,1.3315,1.3193,1.3193,1.3112,1.2996,1.2983,1.2874,1.2745,1.2732,1.2637,1.2522,1.2508,1.2501,1.2501,1.2501,1.2406,1.2271,1.2121,1.1965,1.1809,1.1653,1.1619,1.1579,1.1443,1.1402,1.1307,1.0968,1.09,1.0833,1.0765,1.0731,1.0717,1.0717,1.0717,1.0717,1.0717,1.0717,1.0717,1.0717,1.0717,1.0717,1.0717,1.0717,1.0717,1.0717,1.0717,1.0717,1.0717,1.0717,1.0717,1.0717,1.0717,1.0717,1.0717,1.0717,1.0717,1.0717,1.0717,1.0717,1.0717,1.0717,1.0717,1.0717,1.0717,1.0717,1.0717,1.0717,1.0717,1.0717,1.0717,1.0717,1.0717,1.4299,1.4299,1.4299,1.4299,1.4299,1.4299,1.4299,1.4299,1.4299,1.4299,1.4299,1.4299,1.4299,1.4299,1.4299,1.4299,1.4299,1.4299,1.4299,1.4299,1.4299,1.4299,1.4272,1.4177,1.4027,1.3763,1.3614,1.358,1.3458,1.3403,1.3403,1.3403,1.3403,1.3403,1.3403,1.3403,1.3403,1.3403,1.3403,1.3403,1.3403,1.3403,1.3403,1.3403,1.3376,1.3349,1.3349,1.3336,1.3288,1.3166,1.303,1.2888,1.2766,1.2705,1.2657,1.2535,1.2501,1.2501,1.2501,1.2481,1.242,1.2277,1.2121,1.1945,1.1681,1.1619,1.1613,1.1579,1.1477,1.1369,1.1307,1.1104,1.0873,1.084,1.0799,1.0717,1.0717,1.0717,1.0717,1.0717,1.0717,1.0717,1.0717,1.0717,1.0717,1.0717,1.0717,1.0717,1.0717,1.0717,1.0717,1.0717,1.0717,1.0717,1.0717,1.0717,1.0717,1.0717,1.0717,1.0717,1.0717,1.0717,1.0717,1.0717,1.0717,1.0717,1.0717,1.0717,1.0717,1.0717,1.0717,1.0717,1.0717,1.0717,1.0717,1.0717,1.4299,1.4299,1.4299,1.4299,1.4299,1.4299,1.4299,1.4299,1.4299,1.4299,1.4299,1.4299,1.4299,1.4299,1.4299,1.4299,1.4299,1.4299,1.4299,1.4299,1.4299,1.4299,1.4299,1.4265,1.4183,1.396,1.377,1.3627,1.3546,1.3471,1.3403,1.3403,1.3403,1.3403,1.3403,1.3403,1.3403,1.3403,1.3403,1.3403,1.3403,1.3403,1.3403,1.3403,1.3403,1.3403,1.3403,1.3403,1.339,1.3308,1.3186,1.3051,1.2969,1.2895,1.2813,1.2657,1.261,1.2596,1.2522,1.2501,1.2467,1.2325,1.223,1.2094,1.1789,1.1667,1.1619,1.1619,1.1558,1.1477,1.1402,1.1267,1.1111,1.09,1.0813,1.0806,1.0731,1.0717,1.0717,1.0717,1.0717,1.0717,1.0717,1.0717,1.0717,1.0717,1.0717,1.0717,1.0717,1.0717,1.0717,1.0717,1.0717,1.0717,1.0717,1.0717,1.0717,1.0717,1.0717,1.0717,1.0717,1.0717,1.0717,1.0717,1.0717,1.0717,1.0717,1.0717,1.0717,1.0717,1.0717,1.0717,1.0717,1.0717,1.0717,1.0717,1.4299,1.4299,1.4299,1.4299,1.4299,1.4299,1.4299,1.4299,1.4299,1.4299,1.4299,1.4299,1.4299,1.4299,1.4299,1.4299,1.4299,1.4299,1.4299,1.4299,1.4299,1.4299,1.4299,1.4299,1.4299,1.4177,1.3966,1.3668,1.3641,1.3553,1.3403,1.3403,1.3403,1.3403,1.3403,1.3403,1.3403,1.3403,1.3403,1.3403,1.3403,1.3403,1.3403,1.3403,1.3403,1.3403,1.3403,1.3403,1.3403,1.3403,1.3315,1.3207,1.318,1.3091,1.2963,1.2786,1.2732,1.2698,1.2542,1.2501,1.2474,1.2352,1.2311,1.2223,1.1965,1.1775,1.1647,1.1626,1.1619,1.1579,1.1457,1.1409,1.1314,1.1063,1.0914,1.084,1.0778,1.0738,1.0717,1.0717,1.0717,1.0717,1.0717,1.0717,1.0717,1.0717,1.0717,1.0717,1.0717,1.0717,1.0717,1.0717,1.0717,1.0717,1.0717,1.0717,1.0717,1.0717,1.0717,1.0717,1.0717,1.0717,1.0717,1.0717,1.0717,1.0717,1.0717,1.0717,1.0717,1.0717,1.0717,1.0717,1.0717,1.0717,1.0717,1.0717,1.4299,1.4299,1.4299,1.4299,1.4299,1.4299,1.4299,1.4299,1.4299,1.4299,1.4299,1.4299,1.4299,1.4299,1.4299,1.4299,1.4299,1.4299,1.4299,1.4299,1.4299,1.4299,1.4299,1.4299,1.4299,1.4278,1.4116,1.381,1.3688,1.3553,1.3403,1.3403,1.3403,1.3403,1.3403,1.3403,1.3403,1.3403,1.3403,1.3403,1.3403,1.3403,1.3403,1.3403,1.3403,1.3403,1.3403,1.3403,1.3403,1.3403,1.339,1.3349,1.3214,1.3159,1.3091,1.2813,1.2732,1.2698,1.2542,1.2501,1.2494,1.2474,1.2379,1.2277,1.2237,1.2006,1.1769,1.1647,1.1619,1.1613,1.1592,1.1484,1.1382,1.1335,1.1118,1.0873,1.0853,1.0739,1.0717,1.0717,1.0717,1.0717,1.0717,1.0717,1.0717,1.0717,1.0717,1.0717,1.0717,1.0717,1.0717,1.0717,1.0717,1.0717,1.0717,1.0717,1.0717,1.0717,1.0717,1.0717,1.0717,1.0717,1.0717,1.0717,1.0717,1.0717,1.0717,1.0717,1.0717,1.0717,1.0717,1.0717,1.0717,1.0717,1.0717,1.0717,1.4299,1.4299,1.4299,1.4299,1.4299,1.4299,1.4299,1.4299,1.4299,1.4299,1.4299,1.4299,1.4299,1.4299,1.4299,1.4299,1.4299,1.4299,1.4299,1.4299,1.4299,1.4299,1.4299,1.4299,1.4299,1.4299,1.419,1.3973,1.3817,1.3675,1.3526,1.3444,1.3403,1.3403,1.3403,1.3403,1.3403,1.3403,1.3403,1.3403,1.3403,1.3403,1.3403,1.3403,1.3403,1.3403,1.3403,1.3403,1.3403,1.3403,1.3403,1.339,1.3322,1.3302,1.3261,1.3044,1.2922,1.2827,1.2671,1.2569,1.2501,1.2501,1.2454,1.2386,1.2311,1.2182,1.202,1.1782,1.1674,1.1619,1.1619,1.1565,1.1491,1.1402,1.128,1.1138,1.09,1.0826,1.0752,1.0731,1.0717,1.0717,1.0717,1.0717,1.0717,1.0717,1.0717,1.0717,1.0717,1.0717,1.0717,1.0717,1.0717,1.0717,1.0717,1.0717,1.0717,1.0717,1.0717,1.0717,1.0717,1.0717,1.0717,1.0717,1.0717,1.0717,1.0717,1.0717,1.0717,1.0717,1.0717,1.0717,1.0717,1.0717,1.0717,1.0717]}]]